LiveATC.Net - Listen to live air traffic control over the Internet!
Airport/ARTCC Code
Frequency Search
(e.g., 124.400, 128.75)
Site-wide search
 


Browse LiveATC Feeds
Top 50 LiveATC Feeds
LiveATC Feed Map
Bad Weather Areas

LiveATC FAQ
Offer LiveATC feed
Contact LiveATC.net
Press Inquiries

LiveATC on iPhone
LiveATC on Android

Windows Phone
Windows 8/10

LiveATC Mobile
(Mobile browser)

ATC Audio Archives
Interesting Recordings

LiveATC Forums

Home Page
About LiveATC.net
Make a Donation
Terms of Use
Privacy Policy

Canadian Air Freqs

AIRMETs/SIGMETs

FAA Airport Status
Nat'l Airspace Status
Arrival Demand Charts


Server Software By:
Icecast.org
Liquidsoap

Select an area of interest:
U.S. Feeds: Class B Airports | Class C Airports | Class D/Other Airports | ARTCC (Centers)
International Feeds: Canada | Europe | Oceania | Asia | South America | North/Central America | Africa
Misc Feeds: HF Feeds
Search by ICAO/IATA airport code:   (e.g., kbos, kjfk, lax, eham, etc.)


Currently Available Live Feeds: 2451
Status Updated: Thu Sep 19 2019 09:50:04 UTC


NOTICE

Unauthorized use prohibited. See LiveATC.net Terms of Service

International Airport Feeds

 

EFKK Tower (Archives)
Kronoby, Finland

Feed Status: UP
Listen in your browser - HTML5 player(in browser, HTML5)
Click here to listen with your own player(launches your MP3 player)

EFKK 190920Z AUTO 34009KT 9999 -RA FEW021 OVC033 05/03 Q1014

EFKK Flight Activity (Flightaware)

Listeners: 2 out of 753 total

Kronoby Tower: 120.100

EFKU Tower/Approach (Archives)
Siilinjarvi, Finland

Feed Status: UP
Listen in your browser - HTML5 player(in browser, HTML5)
Click here to listen with your own player(launches your MP3 player)

EFKU 190920Z VRB03KT 9999 -RA SCT011 BKN040 05/03 Q1011

EFKU Flight Activity (Flightaware)

Listeners: 1 out of 753 total

Kuopio Approach: 130.600
Kuopio Tower: 120.150

Dutch Mil Radar (Archives)
Amsterdam, Netherlands

Feed Status: UP
Listen in your browser - HTML5 player(in browser, HTML5)
Click here to listen with your own player(launches your MP3 player)

EHLE Flight Activity (Flightaware)

Listeners: 4 out of 753 total

Dutch Mil Flight Info: 264.325
Dutch Mil Radar: 128.355
Dutch Mil Radar: 132.350

EHAA Radar ARTIP (Archives)
Amsterdam, Netherlands

Feed Status: UP
Listen in your browser - HTML5 player(in browser, HTML5)
Click here to listen with your own player(launches your MP3 player)

EHAM 190925Z 05003KT 9999 FEW024 SCT034 15/09 Q1031 NOSIG

EHAM Flight Activity (Flightaware)

Listeners: 0 out of 753 total

EHAA Radar Sector 1 ARTIP: 120.550

EHAA Radar East Inbound
Amsterdam, Netherlands

Feed Status: DOWN
Offline since: 2019-03-13 16:57:02 UTC

EHAM 190925Z 05003KT 9999 FEW024 SCT034 15/09 Q1031 NOSIG

EHAA Radar Sector 2 East Inbound: 128.575

EHAA Radar East Outbound (Archives)
Amsterdam, Netherlands

Feed Status: UP
Listen in your browser - HTML5 player(in browser, HTML5)
Click here to listen with your own player(launches your MP3 player)

EHAM 190925Z 05003KT 9999 FEW024 SCT034 15/09 Q1031 NOSIG

EHAM Flight Activity (Flightaware)

Listeners: 2 out of 753 total

EHAA Radar Sector 2 East Outbound: 124.875

EHAA Radar North
Amsterdam, Netherlands

Feed Status: DOWN
Offline since: 2019-03-13 16:59:02 UTC

EHAM 190925Z 05003KT 9999 FEW024 SCT034 15/09 Q1031 NOSIG

EHAA Radar Sector 1 North: 134.375

EHAA Radar Northwest (Archives)
Amsterdam, Netherlands

Feed Status: UP
Listen in your browser - HTML5 player(in browser, HTML5)
Click here to listen with your own player(launches your MP3 player)

EHAM 190925Z 05003KT 9999 FEW024 SCT034 15/09 Q1031 NOSIG

EHAM Flight Activity (Flightaware)

Listeners: 0 out of 753 total

EHAA Radar Sector 5 Northwest: 123.7000

EHAA Radar RIVER
Amsterdam, Netherlands

Feed Status: DOWN
Offline since: 2019-03-13 16:57:02 UTC

EHAM 190925Z 05003KT 9999 FEW024 SCT034 15/09 Q1031 NOSIG

EHAA Radar Sector 3 RIVER: 130.950

EHAA Radar South (Archives)
Amsterdam, Netherlands

Feed Status: UP
Listen in your browser - HTML5 player(in browser, HTML5)
Click here to listen with your own player(launches your MP3 player)

EHAM 190925Z 05003KT 9999 FEW024 SCT034 15/09 Q1031 NOSIG

EHAM Flight Activity (Flightaware)

Listeners: 1 out of 753 total

EHAA Radar Sector 3 South: 123.850

EHAA Radar South (Backup) (Archives)
Amsterdam, Netherlands

Feed Status: UP
Listen in your browser - HTML5 player(in browser, HTML5)
Click here to listen with your own player(launches your MP3 player)

EHAM 190925Z 05003KT 9999 FEW024 SCT034 15/09 Q1031 NOSIG

EHAM Flight Activity (Flightaware)

Listeners: 0 out of 753 total

EHAA Radar Sector 3 South Backup : 127.775

EHAA Radar Southwest (Archives)
Amsterdam, Netherlands

Feed Status: UP
Listen in your browser - HTML5 player(in browser, HTML5)
Click here to listen with your own player(launches your MP3 player)

EHAM 190925Z 05003KT 9999 FEW024 SCT034 15/09 Q1031 NOSIG

EHAM Flight Activity (Flightaware)

Listeners: 0 out of 753 total

EHAA Radar Sector 4 Southwest: 125.750

EHAA Radar SUGOL (Archives)
Amsterdam, Netherlands

Feed Status: UP
Listen in your browser - HTML5 player(in browser, HTML5)
Click here to listen with your own player(launches your MP3 player)

EHAM 190925Z 05003KT 9999 FEW024 SCT034 15/09 Q1031 NOSIG

EHAM Flight Activity (Flightaware)

Listeners: 0 out of 753 total

EHAA Radar Sector 5 SUGOL: 118.800

EHAM Airside Ops Mgr (AOM)
Amsterdam, Netherlands

Feed Status: DOWN
Offline since: 2019-03-13 17:05:02 UTC

EHAM 190925Z 05003KT 9999 FEW024 SCT034 15/09 Q1031 NOSIG

Schiphol Airside Operations Manager: 130.475

EHAM App/Dep Backup (Archives)
Amsterdam, Netherlands

Feed Status: UP
Listen in your browser - HTML5 player(in browser, HTML5)
Click here to listen with your own player(launches your MP3 player)

EHAM 190925Z 05003KT 9999 FEW024 SCT034 15/09 Q1031 NOSIG

EHAM Flight Activity (Flightaware)

Listeners: 0 out of 753 total

Schiphol App/Dep Backup: 118.075

EHAM App/Dep TMA East (Archives)
Amsterdam, Netherlands

Feed Status: UP
Listen in your browser - HTML5 player(in browser, HTML5)
Click here to listen with your own player(launches your MP3 player)

EHAM 190925Z 05003KT 9999 FEW024 SCT034 15/09 Q1031 NOSIG

EHAM Flight Activity (Flightaware)

Listeners: 1 out of 753 total

Amsterdam Approach/Departure TMA East: 119.055

EHAM App/Dep TMA West (Archives)
Amsterdam, Netherlands

Feed Status: UP
Listen in your browser - HTML5 player(in browser, HTML5)
Click here to listen with your own player(launches your MP3 player)

EHAM 190925Z 05003KT 9999 FEW024 SCT034 15/09 Q1031 NOSIG

EHAM Flight Activity (Flightaware)

Listeners: 3 out of 753 total

Amsterdam Approach/Departure TMA West: 121.200

EHAM Apron (North) (Archives)
Amsterdam, Netherlands

Feed Status: UP
Listen in your browser - HTML5 player(in browser, HTML5)
Click here to listen with your own player(launches your MP3 player)

EHAM 190925Z 05003KT 9999 FEW024 SCT034 15/09 Q1031 NOSIG

EHAM Flight Activity (Flightaware)

Listeners: 0 out of 753 total

Schiphol Apron (North): 121.880

EHAM Apron (South) (Archives)
Amsterdam, Netherlands

Feed Status: UP
Listen in your browser - HTML5 player(in browser, HTML5)
Click here to listen with your own player(launches your MP3 player)

EHAM 190925Z 05003KT 9999 FEW024 SCT034 15/09 Q1031 NOSIG

EHAM Flight Activity (Flightaware)

Listeners: 0 out of 753 total

Schiphol Apron (South): 121.780

EHAM Arrival (Primary) (Archives)
Amsterdam, Netherlands

Feed Status: UP
Listen in your browser - HTML5 player(in browser, HTML5)
Click here to listen with your own player(launches your MP3 player)

EHAM 190925Z 05003KT 9999 FEW024 SCT034 15/09 Q1031 NOSIG

EHAM Flight Activity (Flightaware)

Listeners: 2 out of 753 total

Amsterdam Arrival : 118.400

EHAM Arrival (Secondary)
Amsterdam, Netherlands

Feed Status: DOWN
Offline since: 2019-03-13 16:59:02 UTC

EHAM 190925Z 05003KT 9999 FEW024 SCT034 15/09 Q1031 NOSIG

Amsterdam Arrival (Secondary): 131.150

EHAM Arrival (Secondary/Backup)
Amsterdam, Netherlands

Feed Status: DOWN
Offline since: 2019-03-13 16:59:02 UTC

EHAM 190925Z 05003KT 9999 FEW024 SCT034 15/09 Q1031 NOSIG

Amsterdam Arrival (Secondary Backup): 131.275

EHAM Arrival Backup/Discrete (Archives)
Amsterdam, Netherlands

Feed Status: UP
Listen in your browser - HTML5 player(in browser, HTML5)
Click here to listen with your own player(launches your MP3 player)

EHAM 190925Z 05003KT 9999 FEW024 SCT034 15/09 Q1031 NOSIG

EHAM Flight Activity (Flightaware)

Listeners: 0 out of 753 total

Schiphol Arrival Backup: 126.675

EHAM Clearance Delivery (Archives)
Amsterdam, Netherlands

Feed Status: UP
Listen in your browser - HTML5 player(in browser, HTML5)
Click here to listen with your own player(launches your MP3 player)

EHAM 190925Z 05003KT 9999 FEW024 SCT034 15/09 Q1031 NOSIG

EHAM Flight Activity (Flightaware)

Listeners: 2 out of 753 total

Schiphol Clearance Delivery: 121.980

EHAM Ground (Backup) (Archives)
Amsterdam, Netherlands

Feed Status: UP
Listen in your browser - HTML5 player(in browser, HTML5)
Click here to listen with your own player(launches your MP3 player)

EHAM 190925Z 05003KT 9999 FEW024 SCT034 15/09 Q1031 NOSIG

EHAM Flight Activity (Flightaware)

Listeners: 0 out of 753 total

Schiphol Ground (Backup): 122.425

EHAM Ground (North) (Archives)
Amsterdam, Netherlands

Feed Status: UP
Listen in your browser - HTML5 player(in browser, HTML5)
Click here to listen with your own player(launches your MP3 player)

EHAM 190925Z 05003KT 9999 FEW024 SCT034 15/09 Q1031 NOSIG

EHAM Flight Activity (Flightaware)

Listeners: 0 out of 753 total

Schiphol Ground (North): 121.805

EHAM Ground (South) (Archives)
Amsterdam, Netherlands

Feed Status: UP
Listen in your browser - HTML5 player(in browser, HTML5)
Click here to listen with your own player(launches your MP3 player)

EHAM 190925Z 05003KT 9999 FEW024 SCT034 15/09 Q1031 NOSIG

EHAM Flight Activity (Flightaware)

Listeners: 3 out of 753 total

Schiphol Ground (South): 121.705

EHAM Ground (West) (Archives)
Amsterdam, Netherlands

Feed Status: UP
Listen in your browser - HTML5 player(in browser, HTML5)
Click here to listen with your own player(launches your MP3 player)

EHAM 190925Z 05003KT 9999 FEW024 SCT034 15/09 Q1031 NOSIG

EHAM Flight Activity (Flightaware)

Listeners: 0 out of 753 total

Schiphol Ground (West): 121.560

EHAM Info North Sea (North) (Archives)
Amsterdam, Netherlands

Feed Status: UP
Listen in your browser - HTML5 player(in browser, HTML5)
Click here to listen with your own player(launches your MP3 player)

EHAM 190925Z 05003KT 9999 FEW024 SCT034 15/09 Q1031 NOSIG

EHAM Flight Activity (Flightaware)

Listeners: 1 out of 753 total

Amsterdam Info North Sea (North): 119.175

EHAM Info North Sea (Over Land) (Archives)
Amsterdam, Netherlands

Feed Status: UP
Listen in your browser - HTML5 player(in browser, HTML5)
Click here to listen with your own player(launches your MP3 player)

EHAM 190925Z 05003KT 9999 FEW024 SCT034 15/09 Q1031 NOSIG

EHAM Flight Activity (Flightaware)

Listeners: 0 out of 753 total

Amsterdam Info North Sea (Over Land): 124.300

EHAM Info North Sea (South)
Amsterdam, Netherlands

Feed Status: DOWN
Offline since: 2019-03-13 16:57:02 UTC

EHAM 190925Z 05003KT 9999 FEW024 SCT034 15/09 Q1031 NOSIG

Amsterdam Info North Sea (South): 136.650

EHAM Ops (Archives)
Amsterdam, Netherlands

Feed Status: UP
Listen in your browser - HTML5 player(in browser, HTML5)
Click here to listen with your own player(launches your MP3 player)

EHAM 190925Z 05003KT 9999 FEW024 SCT034 15/09 Q1031 NOSIG

EHAM Flight Activity (Flightaware)

Listeners: 0 out of 753 total

Schiphol Ops 1: 465.770
Schiphol Ops 2: 466.470
Schiphol Runway Ops: 447.175

EHAM Schiphol Outbound Planner (Archives)
Amsterdam, Netherlands

Feed Status: UP
Listen in your browser - HTML5 player(in browser, HTML5)
Click here to listen with your own player(launches your MP3 player)

EHAM 190925Z 05003KT 9999 FEW024 SCT034 15/09 Q1031 NOSIG

EHAM Flight Activity (Flightaware)

Listeners: 0 out of 753 total

Schiphol Outbound Planner: 121.655

EHAM Tow Traffic
Amsterdam, Netherlands

Feed Status: DOWN
Offline since: 2019-03-13 17:03:02 UTC

EHAM 190925Z 05003KT 9999 FEW024 SCT034 15/09 Q1031 NOSIG

Schiphol Tow Traffic: 134.875

EHAM Tower (06/24) (Archives)
Amsterdam, Netherlands

Feed Status: UP
Listen in your browser - HTML5 player(in browser, HTML5)
Click here to listen with your own player(launches your MP3 player)

EHAM 190925Z 05003KT 9999 FEW024 SCT034 15/09 Q1031 NOSIG

EHAM Flight Activity (Flightaware)

Listeners: 0 out of 753 total

Schiphol Tower Main 06/24: 118.950

EHAM Tower (18C/36C-27/09) (Archives)
Amsterdam, Netherlands

Feed Status: UP
Listen in your browser - HTML5 player(in browser, HTML5)
Click here to listen with your own player(launches your MP3 player)

EHAM 190925Z 05003KT 9999 FEW024 SCT034 15/09 Q1031 NOSIG

EHAM Flight Activity (Flightaware)

Listeners: 5 out of 753 total

Schiphol Tower Main 18C/36C - 27/09: 118.100

EHAM Tower (18L/36R-22/04) (Archives)
Amsterdam, Netherlands

Feed Status: UP
Listen in your browser - HTML5 player(in browser, HTML5)
Click here to listen with your own player(launches your MP3 player)

EHAM 190925Z 05003KT 9999 FEW024 SCT034 15/09 Q1031 NOSIG

EHAM Flight Activity (Flightaware)

Listeners: 4 out of 753 total

Schiphol Tower Main 18L/36R - 22/04: 119.225

EHAM Tower Backup (Archives)
Amsterdam, Netherlands

Feed Status: UP
Listen in your browser - HTML5 player(in browser, HTML5)
Click here to listen with your own player(launches your MP3 player)

EHAM 190925Z 05003KT 9999 FEW024 SCT034 15/09 Q1031 NOSIG

EHAM Flight Activity (Flightaware)

Listeners: 0 out of 753 total

Schiphol Tower Backup: 119.905

EHAM Tower West (18R/36L) (Archives)
Amsterdam, Netherlands

Feed Status: UP
Listen in your browser - HTML5 player(in browser, HTML5)
Click here to listen with your own player(launches your MP3 player)

EHAM 190925Z 05003KT 9999 FEW024 SCT034 15/09 Q1031 NOSIG

EHAM Flight Activity (Flightaware)

Listeners: 0 out of 753 total

Schiphol Tower West 18R/36L: 118.280

EHBK ATIS (Archives)
Beek, Netherlands

Feed Status: UP
Listen in your browser - HTML5 player(in browser, HTML5)
Click here to listen with your own player(launches your MP3 player)

EHBK 190925Z AUTO 04007KT 360V090 9999 FEW027 15/06 Q1031 NOSIG

EHBK Flight Activity (Flightaware)

Listeners: 0 out of 753 total

Beek ATIS: 124.575

EHBK Gnd/Twr/App (Archives)
Beek, Netherlands

Feed Status: UP
Listen in your browser - HTML5 player(in browser, HTML5)
Click here to listen with your own player(launches your MP3 player)

EHBK 190925Z AUTO 04007KT 360V090 9999 FEW027 15/06 Q1031 NOSIG

EHBK Flight Activity (Flightaware)

Listeners: 0 out of 753 total

Beek Approach: 120.200
Beek Approach: 123.975
Beek Ground: 121.825
Beek Tower: 119.475
Beek Tower: 119.700

MUAC/Eurocontrol Delta High (Archives)
Beek, Netherlands

Feed Status: UP
Listen in your browser - HTML5 player(in browser, HTML5)
Click here to listen with your own player(launches your MP3 player)

EHBK 190925Z AUTO 04007KT 360V090 9999 FEW027 15/06 Q1031 NOSIG

EHBK Flight Activity (Flightaware)

Listeners: 0 out of 753 total

MUAC Delta High Sector: 132.085

MUAC/Eurocontrol Koksy (Archives)
Beek, Netherlands

Feed Status: UP
Listen in your browser - HTML5 player(in browser, HTML5)
Click here to listen with your own player(launches your MP3 player)

EHBK 190925Z AUTO 04007KT 360V090 9999 FEW027 15/06 Q1031 NOSIG

EHBK Flight Activity (Flightaware)

Listeners: 0 out of 753 total

MUAC Koksy Sector: 132.205

MUAC/Eurocontrol Koksy High (Archives)
Beek, Netherlands

Feed Status: UP
Listen in your browser - HTML5 player(in browser, HTML5)
Click here to listen with your own player(launches your MP3 player)

EHBK 190925Z AUTO 04007KT 360V090 9999 FEW027 15/06 Q1031 NOSIG

EHBK Flight Activity (Flightaware)

Listeners: 0 out of 753 total

MUAC Koksy High Sector: 132.755

MUAC/Eurocontrol Lux High (Archives)
Beek, Netherlands

Feed Status: UP
Listen in your browser - HTML5 player(in browser, HTML5)
Click here to listen with your own player(launches your MP3 player)

EHBK 190925Z AUTO 04007KT 360V090 9999 FEW027 15/06 Q1031 NOSIG

EHBK Flight Activity (Flightaware)

Listeners: 0 out of 753 total

MUAC Lux High Sector: 132.315

MUAC/Eurocontrol Lux Low (Archives)
Beek, Netherlands

Feed Status: UP
Listen in your browser - HTML5 player(in browser, HTML5)
Click here to listen with your own player(launches your MP3 player)

EHBK 190925Z AUTO 04007KT 360V090 9999 FEW027 15/06 Q1031 NOSIG

EHBK Flight Activity (Flightaware)

Listeners: 0 out of 753 total

MUAC Lux Low Sector: 133.355

MUAC/Eurocontrol Olno Low (Archives)
Beek, Netherlands

Feed Status: UP
Listen in your browser - HTML5 player(in browser, HTML5)
Click here to listen with your own player(launches your MP3 player)

EHBK 190925Z AUTO 04007KT 360V090 9999 FEW027 15/06 Q1031 NOSIG

EHBK Flight Activity (Flightaware)

Listeners: 0 out of 753 total

MUAC Olno Low Sector: 132.855

MUAC/Eurocontrol Ruhr (Archives)
Beek, Netherlands

Feed Status: UP
Listen in your browser - HTML5 player(in browser, HTML5)
Click here to listen with your own player(launches your MP3 player)

EHBK 190925Z AUTO 04007KT 360V090 9999 FEW027 15/06 Q1031 NOSIG

EHBK Flight Activity (Flightaware)

Listeners: 1 out of 753 total

MUAC Ruhr Sector: 132.515

EHEH Approach #1 (Archives)
Eindhoven, Netherlands

Feed Status: UP
Listen in your browser - HTML5 player(in browser, HTML5)
Click here to listen with your own player(launches your MP3 player)

EHEH 190925Z AUTO 36004KT 340V100 9999 BKN025 BKN048 OVC340 15/07 Q1031 BLU 03004KT 9999 SCT025 SCT040

EHEH Flight Activity (Flightaware)

Listeners: 3 out of 753 total

Eindhoven Approach: 132.525
Eindhoven Arrival/Director: 124.525
Emergency/Guard: 121.500

EHEH Approach #2 (Archives)
Eindhoven, Netherlands

Feed Status: UP
Listen in your browser - HTML5 player(in browser, HTML5)
Click here to listen with your own player(launches your MP3 player)

EHEH 190925Z AUTO 36004KT 340V100 9999 BKN025 BKN048 OVC340 15/07 Q1031 BLU 03004KT 9999 SCT025 SCT040

EHEH Flight Activity (Flightaware)

Listeners: 0 out of 753 total

Eindhoven Approach/Arrival: 124.530
Eindhoven Approach/Arrival: 132.530
Eindhoven Approach/Arrival: 278.050

EHEH Ground (Archives)
Eindhoven, Netherlands

Feed Status: UP
Listen in your browser - HTML5 player(in browser, HTML5)
Click here to listen with your own player(launches your MP3 player)

EHEH 190925Z AUTO 36004KT 340V100 9999 BKN025 BKN048 OVC340 15/07 Q1031 BLU 03004KT 9999 SCT025 SCT040

EHEH Flight Activity (Flightaware)

Listeners: 0 out of 753 total

Eindhoven Ground: 121.930
Eindhoven Ground: 369.250

EHEH Tower #1 (Archives)
Eindhoven, Netherlands

Feed Status: UP
Listen in your browser - HTML5 player(in browser, HTML5)
Click here to listen with your own player(launches your MP3 player)

EHEH 190925Z AUTO 36004KT 340V100 9999 BKN025 BKN048 OVC340 15/07 Q1031 BLU 03004KT 9999 SCT025 SCT040

EHEH Flight Activity (Flightaware)

Listeners: 7 out of 753 total

Budel Tower: 122.150
Eindhoven Tower: 131.005
Emergency/Guard: 121.500
Generic Tower: 122.100
Volkel Tower: 136.075

EHEH Tower #2 (Archives)
Eindhoven, Netherlands

Feed Status: UP
Listen in your browser - HTML5 player(in browser, HTML5)
Click here to listen with your own player(launches your MP3 player)

EHEH 190925Z AUTO 36004KT 340V100 9999 BKN025 BKN048 OVC340 15/07 Q1031 BLU 03004KT 9999 SCT025 SCT040

EHEH Flight Activity (Flightaware)

Listeners: 0 out of 753 total

Eindhoven Tower: 122.100
Eindhoven Tower: 131.005
Eindhoven Tower: 281.150

EHGG Approach (Archives)
Groningen, Netherlands

Feed Status: UP
Listen in your browser - HTML5 player(in browser, HTML5)
Click here to listen with your own player(launches your MP3 player)

EHGG 190925Z AUTO 34006KT 270V040 9999 NSC 15/06 Q1030 NOSIG

EHGG Flight Activity (Flightaware)

Listeners: 1 out of 753 total

Eelde Approach: 120.305

EHGG ATIS (Archives)
Groningen, Netherlands

Feed Status: UP
Listen in your browser - HTML5 player(in browser, HTML5)
Click here to listen with your own player(launches your MP3 player)

EHGG 190925Z AUTO 34006KT 270V040 9999 NSC 15/06 Q1030 NOSIG

EHGG Flight Activity (Flightaware)

Listeners: 0 out of 753 total

Groningen ATIS: 133.555

EHGG Ground (Archives)
Groningen, Netherlands

Feed Status: UP
Listen in your browser - HTML5 player(in browser, HTML5)
Click here to listen with your own player(launches your MP3 player)

EHGG 190925Z AUTO 34006KT 270V040 9999 NSC 15/06 Q1030 NOSIG

EHGG Flight Activity (Flightaware)

Listeners: 0 out of 753 total

Eelde Clearance Delivery/Ground: 121.705

EHGG Guard/Emergency (Archives)
Groningen, Netherlands

Feed Status: UP
Listen in your browser - HTML5 player(in browser, HTML5)
Click here to listen with your own player(launches your MP3 player)

EHGG 190925Z AUTO 34006KT 270V040 9999 NSC 15/06 Q1030 NOSIG

EHGG Flight Activity (Flightaware)

Listeners: 0 out of 753 total

Emergency/Guard: 121.500

EHGG Tower (Archives)
Groningen, Netherlands

Feed Status: UP
Listen in your browser - HTML5 player(in browser, HTML5)
Click here to listen with your own player(launches your MP3 player)

EHGG 190925Z AUTO 34006KT 270V040 9999 NSC 15/06 Q1030 NOSIG

EHGG Flight Activity (Flightaware)

Listeners: 2 out of 753 total

Eelde Tower: 118.705

MUAC/Eurocontrol (EHGG Area) (Archives)
Groningen, Netherlands

Feed Status: UP
Listen in your browser - HTML5 player(in browser, HTML5)
Click here to listen with your own player(launches your MP3 player)

EHGG 190925Z AUTO 34006KT 270V040 9999 NSC 15/06 Q1030 NOSIG

EHGG Flight Activity (Flightaware)

Listeners: 0 out of 753 total

MUAC Holstein High Sector: 132.775
MUAC Holstein Sector: 120.9333
MUAC Javer High Sector: 134.700
MUAC Jever Sector: 136.4666

EHHV CTAF (Archives)
Hilversum, Netherlands

Feed Status: UP
Listen in your browser - HTML5 player(in browser, HTML5)
Click here to listen with your own player(launches your MP3 player)

EHHV Flight Activity (Flightaware)

Listeners: 0 out of 753 total

Hilversum Radio: 131.025

Dutch Mil Radar (Archives)
Lelystad, Netherlands

Feed Status: UP
Listen in your browser - HTML5 player(in browser, HTML5)
Click here to listen with your own player(launches your MP3 player)

EHLE Flight Activity (Flightaware)

Listeners: 4 out of 753 total

Dutch Mil Flight Info: 264.325
Dutch Mil Radar: 128.355
Dutch Mil Radar: 132.350

EHLE Air to Air (Archives)
Lelystad, Netherlands

Feed Status: UP
Listen in your browser - HTML5 player(in browser, HTML5)
Click here to listen with your own player(launches your MP3 player)

EHLE Flight Activity (Flightaware)

Listeners: 0 out of 753 total

Lelystad Air to Air: 123.450

EHLE Fokker Four (Archives)
Lelystad, Netherlands

Feed Status: UP
Listen in your browser - HTML5 player(in browser, HTML5)
Click here to listen with your own player(launches your MP3 player)

EHLE Flight Activity (Flightaware)

Listeners: 0 out of 753 total

Lelystad Fokker Four: 123.525

EHLE Microlight Aircraft (Archives)
Lelystad, Netherlands

Feed Status: UP
Listen in your browser - HTML5 player(in browser, HTML5)
Click here to listen with your own player(launches your MP3 player)

EHLE Flight Activity (Flightaware)

Listeners: 0 out of 753 total

Lelystad Microlight Aircraft: 123.825

EHLE Radio (Archives)
Lelystad, Netherlands

Feed Status: UP
Listen in your browser - HTML5 player(in browser, HTML5)
Click here to listen with your own player(launches your MP3 player)

EHLE Flight Activity (Flightaware)

Listeners: 1 out of 753 total

Lelystad Radio: 123.680

EHMC/EHML Military/Radar (Archives)
Nieuw-Milligen, Netherlands

Feed Status: UP
Listen in your browser - HTML5 player(in browser, HTML5)
Click here to listen with your own player(launches your MP3 player)

EHMC Flight Activity (Flightaware)

Listeners: 0 out of 753 total

AMCC: 234.000
Belga Radar: 129.325
Command Post: 313.550
Dutch Military Radar: 120.825
Dutch Military Radar: 125.925
Dutch Military Radar: 128.350
GCI: 363.100
Lippe Radar: 131.075
London Mil: 135.275
Meteo: 284.425

Military Mode-S Logs
REACH Flights Europe Mode-S Logs
NOTE: Due to receiver distance only aircraft can be heard

EHMC/EHML Military/Radar (Archives)
Nieuw-Milligen, Netherlands

Feed Status: UP
Listen in your browser - HTML5 player(in browser, HTML5)
Click here to listen with your own player(launches your MP3 player)

EHMC Flight Activity (Flightaware)

Listeners: 0 out of 753 total

AMCC: 234.000
Belga Radar: 129.325
Command Post: 313.550
Dutch Military Radar: 120.825
Dutch Military Radar: 125.925
Dutch Military Radar: 128.350
GCI: 363.100
Lippe Radar: 131.075
London Mil: 135.275
Meteo: 284.425

Military Mode-S Logs
REACH Flights Europe Mode-S Logs
NOTE: Due to receiver distance only aircraft can be heard

EHMM CTAF (Archives)
Middenmeer, Netherlands

Feed Status: UP
Listen in your browser - HTML5 player(in browser, HTML5)
Click here to listen with your own player(launches your MP3 player)

EHMM Flight Activity (Flightaware)

Listeners: 0 out of 753 total

Middenmeer CTAF: 123.425

EHRD Approach (Archives)
Rotterdam, Netherlands

Feed Status: UP
Listen in your browser - HTML5 player(in browser, HTML5)
Click here to listen with your own player(launches your MP3 player)

EHRD 190925Z AUTO 28004KT 240V330 9999 FEW029 OVC034 13/11 Q1032 NOSIG

EHRD Flight Activity (Flightaware)

Listeners: 1 out of 753 total

Rotterdam Approach: 124.535
Rotterdam Approach: 281.050

EHRD Clearance Delivery (Archives)
Rotterdam, Netherlands

Feed Status: UP
Listen in your browser - HTML5 player(in browser, HTML5)
Click here to listen with your own player(launches your MP3 player)

EHRD 190925Z AUTO 28004KT 240V330 9999 FEW029 OVC034 13/11 Q1032 NOSIG

EHRD Flight Activity (Flightaware)

Listeners: 0 out of 753 total

Rotterdam Del/Gnd: 122.180

EHRD Del/Twr (Archives)
Rotterdam, Netherlands

Feed Status: UP
Listen in your browser - HTML5 player(in browser, HTML5)
Click here to listen with your own player(launches your MP3 player)

EHRD 190925Z AUTO 28004KT 240V330 9999 FEW029 OVC034 13/11 Q1032 NOSIG

EHRD Flight Activity (Flightaware)

Listeners: 2 out of 753 total

Rotterdam Del/Gnd: 122.180
Rotterdam Tower: 118.205

EHRD Gnd/Twr/App (Archives)
Rotterdam, Netherlands

Feed Status: UP
Listen in your browser - HTML5 player(in browser, HTML5)
Click here to listen with your own player(launches your MP3 player)

EHRD 190925Z AUTO 28004KT 240V330 9999 FEW029 OVC034 13/11 Q1032 NOSIG

EHRD Flight Activity (Flightaware)

Listeners: 3 out of 753 total

Adam Info: 124.300
Regional Guard: 119.705
Rotterdam Approach: 127.025
Rotterdam Del/Gnd: 122.180
Rotterdam Tower: 118.205
SAR: 123.100
SAR: 282.800

EHRD Tower (Archives)
Rotterdam, Netherlands

Feed Status: UP
Listen in your browser - HTML5 player(in browser, HTML5)
Click here to listen with your own player(launches your MP3 player)

EHRD 190925Z AUTO 28004KT 240V330 9999 FEW029 OVC034 13/11 Q1032 NOSIG

EHRD Flight Activity (Flightaware)

Listeners: 1 out of 753 total

Rotterdam Tower: 118.205
Rotterdam Tower: 362.300

EHRD Twr/App (Archives)
Rotterdam, Netherlands

Feed Status: UP
Listen in your browser - HTML5 player(in browser, HTML5)
Click here to listen with your own player(launches your MP3 player)

EHRD 190925Z AUTO 28004KT 240V330 9999 FEW029 OVC034 13/11 Q1032 NOSIG

EHRD Flight Activity (Flightaware)

Listeners: out of 753 total

Rotterdam Approach: 127.025
Rotterdam Tower: 118.205

EHRD ADS-B Logs

EHTX Gnd/Twr (Archives)
Texel, Netherlands

Feed Status: UP
Listen in your browser - HTML5 player(in browser, HTML5)
Click here to listen with your own player(launches your MP3 player)

EHTX Flight Activity (Flightaware)

Listeners: 0 out of 753 total

Texel Radio (Ground/Tower): 119.300

EHVL CTAF/Range Control (Archives)
Vlieland, Netherlands

Feed Status: UP
Listen in your browser - HTML5 player(in browser, HTML5)
Click here to listen with your own player(launches your MP3 player)

EHVL 190925Z AUTO VRB02KT 9999 SCT027 SCT032 BKN043 15/08 Q1031 BLU

EHVL Flight Activity (Flightaware)

Listeners: 1 out of 753 total

Cornfield VHF (CTAF): 122.100
Range Controller (Primary): 279.000
Range Controller (Secondary): 369.200
Range Controller VHF: 138.075

EICK Approach/Departure (Archives)
Cork, Ireland

Feed Status: UP
Listen in your browser - HTML5 player(in browser, HTML5)
Click here to listen with your own player(launches your MP3 player)

EICK 190900Z 11007KT 1400 R16/P2000 R34/P2000 BR SCT001 BKN004 14/13 Q1031 BECMG 9999 FEW040

EICK Flight Activity (Flightaware)

Listeners: 1 out of 753 total

Cork Approach: 119.900

EICK Gnd/Twr/App/Dep (Archives)
Cork, Ireland

Feed Status: UP
Listen in your browser - HTML5 player(in browser, HTML5)
Click here to listen with your own player(launches your MP3 player)

EICK 190900Z 11007KT 1400 R16/P2000 R34/P2000 BR SCT001 BKN004 14/13 Q1031 BECMG 9999 FEW040

EICK Flight Activity (Flightaware)

Listeners: 2 out of 753 total

Cork Approach: 119.900
Cork Ground: 121.850
Cork Tower: 119.300

EICK Ground/Tower (Archives)
Cork, Ireland

Feed Status: UP
Listen in your browser - HTML5 player(in browser, HTML5)
Click here to listen with your own player(launches your MP3 player)

EICK 190900Z 11007KT 1400 R16/P2000 R34/P2000 BR SCT001 BKN004 14/13 Q1031 BECMG 9999 FEW040

EICK Flight Activity (Flightaware)

Listeners: 0 out of 753 total

Cork Ground: 121.850
Cork Tower: 119.300

EIDW Approach (Archives)
Dublin, Ireland

Feed Status: UP
Listen in your browser - HTML5 player(in browser, HTML5)
Click here to listen with your own player(launches your MP3 player)

EIDW 190900Z 11004KT 080V160 CAVOK 15/12 Q1031 NOSIG

EIDW Flight Activity (Flightaware)

Listeners: 2 out of 753 total

Dublin Approach: 121.100

EIDW Approach (Final) (Archives)
Dublin, Ireland

Feed Status: UP
Listen in your browser - HTML5 player(in browser, HTML5)
Click here to listen with your own player(launches your MP3 player)

EIDW 190900Z 11004KT 080V160 CAVOK 15/12 Q1031 NOSIG

EIDW Flight Activity (Flightaware)

Listeners: 3 out of 753 total

Dublin Approach (Final): 119.925

EIDW Clearance Delivery (Archives)
Dublin, Ireland

Feed Status: UP
Listen in your browser - HTML5 player(in browser, HTML5)
Click here to listen with your own player(launches your MP3 player)

EIDW 190900Z 11004KT 080V160 CAVOK 15/12 Q1031 NOSIG

EIDW Flight Activity (Flightaware)

Listeners: 1 out of 753 total

Dublin Clearance Delivery: 121.875

EIDW Del/Gnd/Twr/App/Center (Archives)
Dublin, Ireland

Feed Status: UP
Listen in your browser - HTML5 player(in browser, HTML5)
Click here to listen with your own player(launches your MP3 player)

EIDW 190900Z 11004KT 080V160 CAVOK 15/12 Q1031 NOSIG

EIDW Flight Activity (Flightaware)

Listeners: 26 out of 753 total

Dublin Approach: 121.100
Dublin Approach (backup): 119.550
Dublin Centre North: 129.175
Dublin Centre South: 126.250
Dublin Clearance Delivery: 121.875
Dublin FIS: 118.500
Dublin Ground: 121.800
Dublin Tower: 118.600

EIDW Ground (Archives)
Dublin, Ireland

Feed Status: UP
Listen in your browser - HTML5 player(in browser, HTML5)
Click here to listen with your own player(launches your MP3 player)

EIDW 190900Z 11004KT 080V160 CAVOK 15/12 Q1031 NOSIG

EIDW Flight Activity (Flightaware)

Listeners: 0 out of 753 total

Dublin Ground: 121.800

EIDW Ground (North) (Archives)
Dublin, Ireland

Feed Status: UP
Listen in your browser - HTML5 player(in browser, HTML5)
Click here to listen with your own player(launches your MP3 player)

EIDW 190900Z 11004KT 080V160 CAVOK 15/12 Q1031 NOSIG

EIDW Flight Activity (Flightaware)

Listeners: 0 out of 753 total

Dublin Ground (North): 118.750

EIDW Tower (Archives)
Dublin, Ireland

Feed Status: UP
Listen in your browser - HTML5 player(in browser, HTML5)
Click here to listen with your own player(launches your MP3 player)

EIDW 190900Z 11004KT 080V160 CAVOK 15/12 Q1031 NOSIG

EIDW Flight Activity (Flightaware)

Listeners: 3 out of 753 total

Dublin Tower: 118.600

EIKN Gnd/Twr/App (Archives)
Charlestown, Ireland

Feed Status: UP
Listen in your browser - HTML5 player(in browser, HTML5)
Click here to listen with your own player(launches your MP3 player)

EIKN 190900Z 15003KT CAVOK 13/11 Q1030 NOSIG

EIKN Flight Activity (Flightaware)

Listeners: 3 out of 753 total

Connaught Ground: 121.900
Connaught Tower: 130.700
Shannon Low Level: 119.075

Special Note: Sponsored by CAC

EINN Approach/Departure (Archives)
Shannon, Ireland

Feed Status: UP
Listen in your browser - HTML5 player(in browser, HTML5)
Click here to listen with your own player(launches your MP3 player)

EINN 190900Z 12005KT 9999 FEW012 12/09 Q1031 NOSIG

EINN Flight Activity (Flightaware)

Listeners: 2 out of 753 total

Shannon Approach Radar: 121.400
Shannon Low: 124.700

EINN Gnd/Twr/Ops (Archives)
Shannon, Ireland

Feed Status: UP
Listen in your browser - HTML5 player(in browser, HTML5)
Click here to listen with your own player(launches your MP3 player)

EINN 190900Z 12005KT 9999 FEW012 12/09 Q1031 NOSIG

EINN Flight Activity (Flightaware)

Listeners: 0 out of 753 total

Aer Lingus Ops: 131.500
Service Air Ops: 131.450
Shannon Ground: 121.800
Shannon Tower: 118.700
Sig Ops (Pre-Clearance): 131.590

EINN Shannon Control High #1 (Archives)
Shannon, Ireland

Feed Status: UP
Listen in your browser - HTML5 player(in browser, HTML5)
Click here to listen with your own player(launches your MP3 player)

EINN 190900Z 12005KT 9999 FEW012 12/09 Q1031 NOSIG

EINN Flight Activity (Flightaware)

Listeners: 6 out of 753 total

Shannon Clearance (Oceanic only): 121.700
Shannon Control: 134.630
Shannon Control: 134.260
Shannon Control: 119.075
Shannon Control (BABAN/DEVOL Sector): 132.150
Shannon Control (Cork Sector): 131.150
Shannon Control (Shannon Sector): 134.280
Shannon Control (SOTA Sector): 135.600
Shannon Control NOTA: 125.875
Shannon Control NOTA: 122.980
Shannon High Level (SOTA Sector): 135.230
Shanwick Radio: 127.650
Track Information: 133.800

EINN Twr/App #1 (Archives)
Shannon, Ireland

Feed Status: UP
Listen in your browser - HTML5 player(in browser, HTML5)
Click here to listen with your own player(launches your MP3 player)

EINN 190900Z 12005KT 9999 FEW012 12/09 Q1031 NOSIG

EINN Flight Activity (Flightaware)

Listeners: 2 out of 753 total

Aer Lingus Ops: 131.500
Service Air Ops: 131.450
Shannon Approach Radar: 121.400
Shannon Control: Misc
Shannon Ground: 121.800
Shannon Tower: 118.700
Sig Ops (Pre-Clearance): 131.590

ENAT Twr/App/Control (Archives)
Alta, Norway

Feed Status: UP
Listen in your browser - HTML5 player(in browser, HTML5)
Click here to listen with your own player(launches your MP3 player)

ENAT 190850Z VRB02KT 9999 VCSH FEW015 SCT039 04/01 Q1011 RMK WIND 700FT VRB02KT

ENAT Flight Activity (Flightaware)

Listeners: 0 out of 753 total

Alta Tower (to boat, Harbour Channel 12): 156.600
Alta Tower (to vehicle): 462.400
Alta Tower/Approach: 120.400
Norway Control: 126.700

ENBO Approach (Archives)
Bodo, Norway

Feed Status: UP
Listen in your browser - HTML5 player(in browser, HTML5)
Click here to listen with your own player(launches your MP3 player)

ENBO 190920Z 27017KT 9999 VCSH FEW020TCU BKN040 06/02 Q1019 TEMPO 28015G25KT SHRA SCT030CB

ENBO Flight Activity (Flightaware)

Listeners: 0 out of 753 total

Bodo Approach: 119.700

ENBO Tower (Archives)
Bodo, Norway

Feed Status: UP
Listen in your browser - HTML5 player(in browser, HTML5)
Click here to listen with your own player(launches your MP3 player)

ENBO 190920Z 27017KT 9999 VCSH FEW020TCU BKN040 06/02 Q1019 TEMPO 28015G25KT SHRA SCT030CB

ENBO Flight Activity (Flightaware)

Listeners: 0 out of 753 total

Bodo Tower: 118.100

ENCN Tower/Approach (Archives)
Kristiansand, Norway

Feed Status: UP
Listen in your browser - HTML5 player(in browser, HTML5)
Click here to listen with your own player(launches your MP3 player)

ENCN 190920Z VRB02KT CAVOK 12/04 Q1027

ENCN Flight Activity (Flightaware)

Listeners: 0 out of 753 total

Kjevik Tower: 118.100
Kjevik Tower/Approach: 119.950

ENEV Twr/App/ACC (Archives)
Evenes, Norway

Feed Status: UP
Listen in your browser - HTML5 player(in browser, HTML5)
Click here to listen with your own player(launches your MP3 player)

ENEV 190850Z 29005KT 230V350 9999 SCT028 BKN041 06/00 Q1016 RMK WIND 1400FT 26008KT

ENEV Flight Activity (Flightaware)

Listeners: 0 out of 753 total

Evenes Approach: 120.100
Evenes Tower: 118.000
Norway ACC (Bodo Sector 25): 126.450

ENGM Approach (Archives)
Oslo, Norway

Feed Status: UP
Listen in your browser - HTML5 player(in browser, HTML5)
Click here to listen with your own player(launches your MP3 player)

ENGM 190920Z 36007KT 300V020 CAVOK 10/00 Q1024 NOSIG

ENGM Flight Activity (Flightaware)

Listeners: 2 out of 753 total

Oslo Approach: 118.475
Oslo Approach: 120.450

ENGM Tower (Archives)
Oslo, Norway

Feed Status: UP
Listen in your browser - HTML5 player(in browser, HTML5)
Click here to listen with your own player(launches your MP3 player)

ENGM 190920Z 36007KT 300V020 CAVOK 10/00 Q1024 NOSIG

ENGM Flight Activity (Flightaware)

Listeners: 1 out of 753 total

Oslo Tower (East): 120.100
Oslo Tower (West): 118.300

ENKJ RDO (Archives)
Kjeller, Norway

Feed Status: UP
Listen in your browser - HTML5 player(in browser, HTML5)
Click here to listen with your own player(launches your MP3 player)

ENKJ Flight Activity (Flightaware)

Listeners: 0 out of 753 total

Kjeller RDO: 119.100

ENLI CTAF (Archives)
Farsund, Norway

Feed Status: UP
Listen in your browser - HTML5 player(in browser, HTML5)
Click here to listen with your own player(launches your MP3 player)

ENLI Flight Activity (Flightaware)

Listeners: 0 out of 753 total

Lista Traffic/Lista Radio: 126.450

ENML Gnd/Twr/App/Center
Molde, Norway

Feed Status: DOWN
Offline since: 2019-09-18 16:08:05 UTC

ENML 190920Z 04003KT 9999 FEW020 BKN042 09/05 Q1026

Molde Info: 119.950

ENRK CTAF
Astorp, Norway

Feed Status: DOWN
Offline since: 2019-09-08 11:25:39 UTC

Rakkestad CTAF: 122.950

ENOR Sector 8
Moss, Norway

Feed Status: DOWN
Offline since: 2019-09-16 00:35:38 UTC

Norway Center (FIR) Sector 8: 118.875

ENRY Tower
Moss, Norway

Feed Status: DOWN
Offline since: 2019-09-16 00:35:38 UTC

ENRY 190920Z 32007KT 290V350 CAVOK 11/01 Q1026 NOSIG

Rygge Tower: 119.500

ENSO AFIS (Archives)
Stord, Norway

Feed Status: UP
Listen in your browser - HTML5 player(in browser, HTML5)
Click here to listen with your own player(launches your MP3 player)

ENSO 190920Z 14005KT CAVOK 09/07 Q1028

ENSO Flight Activity (Flightaware)

Listeners: 1 out of 753 total

Stord AFIS: 120.200

Feed sponsored by:

ENTO Tower/App (Archives)
Sandefjord, Norway

Feed Status: UP
Listen in your browser - HTML5 player(in browser, HTML5)
Click here to listen with your own player(launches your MP3 player)

ENTO 190920Z 34005KT CAVOK 11/01 Q1026 NOSIG

ENTO Flight Activity (Flightaware)

Listeners: 1 out of 753 total

ENJB Tonsberg Airport - Jarlsberg - CTAF: 122.300
Farris Approach (TCA): 134.050
Sandefjord Tower: 118.650

ENVA Gnd/Twr/App (Archives)
Trondheim, Norway

Feed Status: UP
Listen in your browser - HTML5 player(in browser, HTML5)
Click here to listen with your own player(launches your MP3 player)

ENVA 190920Z 24010KT 9999 FEW003 SCT016 BKN027 08/05 Q1024 TEMPO SHRA BKN014CB RMK WIND 670FT 26010KT

ENVA Flight Activity (Flightaware)

Listeners: 0 out of 753 total

Trondheim Approach: 118.600
Trondheim Ground: 121.600
Trondheim Tower: 119.400

ENZV Gnd/Twr/App (Archives)
Stavanger, Norway

Feed Status: UP
Listen in your browser - HTML5 player(in browser, HTML5)
Click here to listen with your own player(launches your MP3 player)

ENZV 190920Z VRB03KT 9999 FEW045 BKN095 10/06 Q1028 NOSIG

ENZV Flight Activity (Flightaware)

Listeners: 0 out of 753 total

Sola Approach/Departure: 119.600
Sola Ground: 121.750
Sola Tower: 118.350

EPBY Tower (Archives)
Bydgoszcz, Poland

Feed Status: UP
Listen in your browser - HTML5 player(in browser, HTML5)
Click here to listen with your own player(launches your MP3 player)

EPBY 190900Z 32009KT 280V350 9999 FEW028 13/06 Q1022

EPBY Flight Activity (Flightaware)

Listeners: 0 out of 753 total

Bydgoszcz Tower: 131.000

EPGD Tower/Approach (Archives)
Gdansk, Poland

Feed Status: UP
Listen in your browser - HTML5 player(in browser, HTML5)
Click here to listen with your own player(launches your MP3 player)

EPGD 190900Z 30014KT 9999 FEW027 13/07 Q1021

EPGD Flight Activity (Flightaware)

Listeners: 2 out of 753 total

Gdansk Approach: 127.275
Gdansk Tower: 118.100

EPKK Tower/App (Archives)
Krakow, Poland

Feed Status: UP
Listen in your browser - HTML5 player(in browser, HTML5)
Click here to listen with your own player(launches your MP3 player)

EPKK 190900Z 23010KT 9999 BKN023 10/06 Q1024

EPKK Flight Activity (Flightaware)

Listeners: 0 out of 753 total

Krakow Approach: 121.075
Krakow Approach: 123.258
Krakow Tower: 123.250

EPKR CTAF (Archives)
Krosno, Poland

Feed Status: UP
Listen in your browser - HTML5 player(in browser, HTML5)
Click here to listen with your own player(launches your MP3 player)

EPKR Flight Activity (Flightaware)

Listeners: 0 out of 753 total

Krosno CTAF: 122.400

EPKT Del/Twr/App (Archives)
Katowice, Poland

Feed Status: UP
Listen in your browser - HTML5 player(in browser, HTML5)
Click here to listen with your own player(launches your MP3 player)

EPKT 190900Z 28011KT 9999 SCT022 BKN026 11/05 Q1024

EPKT Flight Activity (Flightaware)

Listeners: 0 out of 753 total

Katowice Delivery: 121.800
Katowice Tower: 129.250
Krakow Approach: 135.400
Krakow Approach: 121.075

EPKT Delivery/Approach (Archives)
Katowice, Poland

Feed Status: UP
Listen in your browser - HTML5 player(in browser, HTML5)
Click here to listen with your own player(launches your MP3 player)

EPKT 190900Z 28011KT 9999 SCT022 BKN026 11/05 Q1024

EPKT Flight Activity (Flightaware)

Listeners: 0 out of 753 total

Katowice Delivery: 121.800
Krakow Approach: 121.075

EPKT Tower/Approach (Archives)
Katowice, Poland

Feed Status: UP
Listen in your browser - HTML5 player(in browser, HTML5)
Click here to listen with your own player(launches your MP3 player)

EPKT 190900Z 28011KT 9999 SCT022 BKN026 11/05 Q1024

EPKT Flight Activity (Flightaware)

Listeners: 1 out of 753 total

Katowice Tower: 129.250
Krakow Approach: 135.400

EPLL Tower (Archives)
Lodz, Poland

Feed Status: UP
Listen in your browser - HTML5 player(in browser, HTML5)
Click here to listen with your own player(launches your MP3 player)

EPLL 190900Z 26012KT 9999 SCT012 BKN021 08/06 Q1023

EPLL Flight Activity (Flightaware)

Listeners: 0 out of 753 total

Lodz Tower: 124.230

EPPO Twr/App/FIS (Archives)
Poznan, Poland

Feed Status: UP
Listen in your browser - HTML5 player(in browser, HTML5)
Click here to listen with your own player(launches your MP3 player)

EPPO 190900Z 30011KT 9999 FEW022 12/06 Q1024

EPPO Flight Activity (Flightaware)

Listeners: 0 out of 753 total

Poznan Approach: 129.025
Poznan Approach: 127.225
Poznan FIS: 126.300
Poznan Tower: 119.975

Sponsored by: GearUp!

EPRZ Del/Twr/EPWW Radar (Archives)
Jasionka, Poland

Feed Status: UP
Listen in your browser - HTML5 player(in browser, HTML5)
Click here to listen with your own player(launches your MP3 player)

EPRZ 190900Z 27018KT 9999 BKN036 12/03 Q1022

EPRZ Flight Activity (Flightaware)

Listeners: 5 out of 753 total

EPWW Radar: 134.175
EPWW Radar: 120.950
Rzeszow Delivery: 121.800
Rzeszow Tower: 126.800

EPWA Approach #1 (Archives)
Warsaw, Poland

Feed Status: UP
Listen in your browser - HTML5 player(in browser, HTML5)
Click here to listen with your own player(launches your MP3 player)

EPWA 190900Z 27008KT 230V310 9999 FEW020 11/07 Q1021 NOSIG

EPWA Flight Activity (Flightaware)

Listeners: 8 out of 753 total

Warsaw Approach: 128.800

EPWA Approach #2 (Archives)
Warsaw, Poland

Feed Status: UP
Listen in your browser - HTML5 player(in browser, HTML5)
Click here to listen with your own player(launches your MP3 player)

EPWA 190900Z 27008KT 230V310 9999 FEW020 11/07 Q1021 NOSIG

EPWA Flight Activity (Flightaware)

Listeners: 0 out of 753 total

Warsaw Approach: 125.050

EPWA Clearance Delivery (Archives)
Warsaw, Poland

Feed Status: UP
Listen in your browser - HTML5 player(in browser, HTML5)
Click here to listen with your own player(launches your MP3 player)

EPWA 190900Z 27008KT 230V310 9999 FEW020 11/07 Q1021 NOSIG

EPWA Flight Activity (Flightaware)

Listeners: 0 out of 753 total

Warsaw Clearance Delivery: 121.600

EPWA Director (Archives)
Warsaw, Poland

Feed Status: UP
Listen in your browser - HTML5 player(in browser, HTML5)
Click here to listen with your own player(launches your MP3 player)

EPWA 190900Z 27008KT 230V310 9999 FEW020 11/07 Q1021 NOSIG

EPWA Flight Activity (Flightaware)

Listeners: 0 out of 753 total

Warsaw Director: 129.375

EPWA Ground (Archives)
Warsaw, Poland

Feed Status: UP
Listen in your browser - HTML5 player(in browser, HTML5)
Click here to listen with your own player(launches your MP3 player)

EPWA 190900Z 27008KT 230V310 9999 FEW020 11/07 Q1021 NOSIG

EPWA Flight Activity (Flightaware)

Listeners: 0 out of 753 total

Warsaw Ground: 121.900

EPWA Tower #1 (Archives)
Warsaw, Poland

Feed Status: UP
Listen in your browser - HTML5 player(in browser, HTML5)
Click here to listen with your own player(launches your MP3 player)

EPWA 190900Z 27008KT 230V310 9999 FEW020 11/07 Q1021 NOSIG

EPWA Flight Activity (Flightaware)

Listeners: 2 out of 753 total

Warsaw Tower: 118.300

EPWA Tower #2 (Archives)
Warsaw, Poland

Feed Status: UP
Listen in your browser - HTML5 player(in browser, HTML5)
Click here to listen with your own player(launches your MP3 player)

EPWA 190900Z 27008KT 230V310 9999 FEW020 11/07 Q1021 NOSIG

EPWA Flight Activity (Flightaware)

Listeners: 0 out of 753 total

Warsaw Tower: 118.300

Audio provided by: datahouse.pl

EPWR Tower (Archives)
Wroclaw, Poland

Feed Status: UP
Listen in your browser - HTML5 player(in browser, HTML5)
Click here to listen with your own player(launches your MP3 player)

EPWR 190900Z 29013KT 9999 FEW021 12/06 Q1025

EPWR Flight Activity (Flightaware)

Listeners: 0 out of 753 total

Wroclaw Tower: 120.250

EPWR Twr/App (Archives)
Wroclaw, Poland

Feed Status: UP
Listen in your browser - HTML5 player(in browser, HTML5)
Click here to listen with your own player(launches your MP3 player)

EPPO 190900Z 30011KT 9999 FEW022 12/06 Q1024

EPPO Flight Activity (Flightaware)

Listeners: 1 out of 753 total

Poznan Approach (South): 127.225

EPRZ Del/Twr/EPWW Radar (Archives)
Jasionka, Poland

Feed Status: UP
Listen in your browser - HTML5 player(in browser, HTML5)
Click here to listen with your own player(launches your MP3 player)

EPRZ 190900Z 27018KT 9999 BKN036 12/03 Q1022

EPRZ Flight Activity (Flightaware)

Listeners: 5 out of 753 total

EPWW Radar: 134.175
EPWW Radar: 120.950
Rzeszow Delivery: 121.800
Rzeszow Tower: 126.800

ESDF Gnd/Twr (Archives)
Ronneby, Sweden

Feed Status: UP
Listen in your browser - HTML5 player(in browser, HTML5)
Click here to listen with your own player(launches your MP3 player)

ESDF 190920Z 32010KT 290V350 CAVOK 12/06 Q1023

ESDF Flight Activity (Flightaware)

Listeners: 0 out of 753 total

Ronneby Ground: 121.850
Ronneby Tower: 119.200

ESDF Ronneby Control (Archives)
Ronneby, Sweden

Feed Status: UP
Listen in your browser - HTML5 player(in browser, HTML5)
Click here to listen with your own player(launches your MP3 player)

ESDF 190920Z 32010KT 290V350 CAVOK 12/06 Q1023

ESDF Flight Activity (Flightaware)

Listeners: 1 out of 753 total

Ronneby Control: 128.450

ESGG Gnd/Twr/Control (Archives)
Gothenburg, Sweden

Feed Status: UP
Listen in your browser - HTML5 player(in browser, HTML5)
Click here to listen with your own player(launches your MP3 player)

ESGG 190920Z 36007KT CAVOK 10/01 Q1025

ESGG Flight Activity (Flightaware)

Listeners: 1 out of 753 total

Emergency/Guard: 121.500
Goteborg Arrival: 120.125
Goteborg Control: 124.675
Goteborg Control: 124.200
Landvetter Ground: 121.900
Landvetter Tower: 118.605

ESMQ Tower (Archives)
Kalmar, Sweden

Feed Status: UP
Listen in your browser - HTML5 player(in browser, HTML5)
Click here to listen with your own player(launches your MP3 player)

ESMQ 190920Z 33013KT CAVOK 12/04 Q1021

ESMQ Flight Activity (Flightaware)

Listeners: 0 out of 753 total

Kalmar Tower: 130.805

ESOW Twr/CTAF/Control (Archives)
Stockholm, Sweden

Feed Status: UP
Listen in your browser - HTML5 player(in browser, HTML5)
Click here to listen with your own player(launches your MP3 player)

ESOW 190920Z 34011KT CAVOK 10/02 Q1021

ESOW Flight Activity (Flightaware)

Listeners: 3 out of 753 total

Arlanda Approach: 123.750
Arlanda Approach: 126.655
Arlanda Approach: 130.325
Arlanda Departure: 124.100
Arlanda Tower: 118.505
Arlanda Tower: 128.725
Enkoping/Langtora: 123.525
Eskilstuna: 126.850
Frolunda: 123.400
Johannisberg CTAF: 123.650
Ska Edeby: 123.350
Stockholm Control: 120.155
Stockholm Control: 118.405
Stockholm Control: 118.280
Sweden Control: 133.260
Sweden Control: 129.175
Sweden Control: 131.130
Uppsala Tower: 119.200
Uppsala/Sundbro: 123.350
Vasteras Control: 125.955
Vasteras Tower: 130.600

ESPA Twr/Control (Archives)
Lulea, Sweden

Feed Status: UP
Listen in your browser - HTML5 player(in browser, HTML5)
Click here to listen with your own player(launches your MP3 player)

ESPA 190920Z 32011KT CAVOK 07/01 Q1015

ESPA Flight Activity (Flightaware)

Listeners: 0 out of 753 total

Emergency/Guard: 121.500
Kallax Control: 125.450
Kallax Tower: 128.200
Sweden Control North: 131.050

ESSG Misc
Ludvika, Sweden

Feed Status: DOWN
Offline since: 2019-09-18 16:02:05 UTC

Avesta, Gagnef, Siljansnas: 123.550
Borlange Tower: 127.300
Dala-Jarna: 123.350
Emergency/Guard: 121.500
Karlstad: 119.450
Koping, Arboga, Borberg: 123.150
Ludvika CTAF: 122.100
Mora: 129.850
Orebro: 120.275
Orsa: 123.400
Soaring Freq: 123.500
Sweden Control: 131.125
Sweden Control: 129.175
Sweden Control: 118.200
Sweden Control: 132.150

ESSL Twr/App/Control
Linkoping, Sweden

Feed Status: DOWN
Offline since: 2019-09-01 11:45:22 UTC

ESSL 190920Z 32010KT CAVOK 10/03 Q1022

Emergency/Guard: 121.500
Linkoping Tower: 118.800
Linkoping Tower (Secondary): 123.400
Ostgota Control: 127.350
Ostgota Control: 126.400
Ostgota Control: 135.850
Ostgota Control: 132.950
Ostgota Control: 128.700
Ostgota Control (Malmen Sector): 133.100
Ostgota Control/Sweden Control: 118.400

ESVQ CTAF (Archives)
Koping, Sweden

Feed Status: UP
Listen in your browser - HTML5 player(in browser, HTML5)
Click here to listen with your own player(launches your MP3 player)

ESVQ Flight Activity (Flightaware)

Listeners: 0 out of 753 total

Koping CTAF: 123.150

EVLA AFIS (Archives)
Liepaja, Latvia

Feed Status: UP
Listen in your browser - HTML5 player(in browser, HTML5)
Click here to listen with your own player(launches your MP3 player)

EVLA 190920Z AUTO 31006KT 280V340 9999 SCT037/// BKN067/// BKN100/// 13/06 Q1016

EVLA Flight Activity (Flightaware)

Listeners: 1 out of 753 total

Liepaja AFIS: 129.400

EVRA Approach (Archives)
Riga, Latvia

Feed Status: UP
Listen in your browser - HTML5 player(in browser, HTML5)
Click here to listen with your own player(launches your MP3 player)

EVRA 190920Z 21005KT 9999 FEW046CB 10/07 Q1015 NOSIG

EVRA Flight Activity (Flightaware)

Listeners: 0 out of 753 total

Riga Approach: 129.925

EVRA Approach (Archives)
Riga, Latvia

Feed Status: UP
Listen in your browser - HTML5 player(in browser, HTML5)
Click here to listen with your own player(launches your MP3 player)

EVLA 190920Z AUTO 31006KT 280V340 9999 SCT037/// BKN067/// BKN100/// 13/06 Q1016

EVLA Flight Activity (Flightaware)

Listeners: 0 out of 753 total

Riga Approach: 129.925

EVRA CTAF (Archives)
Riga, Latvia

Feed Status: UP
Listen in your browser - HTML5 player(in browser, HTML5)
Click here to listen with your own player(launches your MP3 player)

EVRA 190920Z 21005KT 9999 FEW046CB 10/07 Q1015 NOSIG

EVRA Flight Activity (Flightaware)

Listeners: 0 out of 753 total

Riga Approach (evenings): 134.850
Riga CTAF: 123.950

EVRA FIC (Archives)
Riga, Latvia

Feed Status: UP
Listen in your browser - HTML5 player(in browser, HTML5)
Click here to listen with your own player(launches your MP3 player)

EVRA 190920Z 21005KT 9999 FEW046CB 10/07 Q1015 NOSIG

EVRA Flight Activity (Flightaware)

Listeners: 0 out of 753 total

Riga FIC: 120.225

EVRA FIC (Archives)
Riga, Latvia

Feed Status: UP
Listen in your browser - HTML5 player(in browser, HTML5)
Click here to listen with your own player(launches your MP3 player)

EVLA 190920Z AUTO 31006KT 280V340 9999 SCT037/// BKN067/// BKN100/// 13/06 Q1016

EVLA Flight Activity (Flightaware)

Listeners: 0 out of 753 total

Riga FIC: 120.225

EVRA Tower/Guard (Archives)
Riga, Latvia

Feed Status: UP
Listen in your browser - HTML5 player(in browser, HTML5)
Click here to listen with your own player(launches your MP3 player)

EVRA 190920Z 21005KT 9999 FEW046CB 10/07 Q1015 NOSIG

EVRA Flight Activity (Flightaware)

Listeners: 1 out of 753 total

Emergency/Guard: 121.500
Riga Tower: 118.100

EYPA Tower (Archives)
Palanga, Lithuania

Feed Status: UP
Listen in your browser - HTML5 player(in browser, HTML5)
Click here to listen with your own player(launches your MP3 player)

EVLA 190920Z AUTO 31006KT 280V340 9999 SCT037/// BKN067/// BKN100/// 13/06 Q1016

EVLA Flight Activity (Flightaware)

Listeners: 0 out of 753 total

Palanga Tower: 124.300

EYVI Twr/App/Misc (Archives)
Vilnius, Lithuania

Feed Status: UP
Listen in your browser - HTML5 player(in browser, HTML5)
Click here to listen with your own player(launches your MP3 player)

EYVI 190920Z 29006KT 260V330 9999 BKN021 BKN240 10/05 Q1016 NOSIG

EYVI Flight Activity (Flightaware)

Listeners: 0 out of 753 total

Emergency / GUARD: 121.500
FlyLAL, AirBaltic transit services: 131.900
FlyLAL, AirBaltic transit services: 131.600
FlyLAL, AirBaltic transit services: 131.500
Kaunas Approach (EYKA): 124.200
Vilnius Approach: 120.700
Vilnius Control: 132.275
Vilnius Control: 133.425
Vilnius Control: 133.300
Vilnius FIS: 123.850
Vilnius Tower: 118.200
Zokniai A/G (mil): 122.775

EYVP CTAF (Archives)
Paluknys, Lithuania

Feed Status: UP
Listen in your browser - HTML5 player(in browser, HTML5)
Click here to listen with your own player(launches your MP3 player)

EYVP Flight Activity (Flightaware)

Listeners: 0 out of 753 total

EYVP Paluknis CTAF: 119.100

FIMP Twr/App/Ctr #1 (Archives)
Plaine Magnien, Mauritius

Feed Status: UP
Listen in your browser - HTML5 player(in browser, HTML5)
Click here to listen with your own player(launches your MP3 player)

FIMP 190900Z 13009KT 9999 SCT017 26/18 Q1018


Listeners: 0 out of 753 total

FIMP Approach: 119.100
FIMP Tower: 118.100
FMEE Approach/Departure: 127.200
Mauritius Centre: 129.300

FIMP Twr/App/Ctr #2 (Archives)
Plaine Magnien, Mauritius

Feed Status: UP
Listen in your browser - HTML5 player(in browser, HTML5)
Click here to listen with your own player(launches your MP3 player)

FIMP 190900Z 13009KT 9999 SCT017 26/18 Q1018


Listeners: 0 out of 753 total

FIMP Approach: 119.100
FIMP Tower: 118.100
Mauritius Centre: 129.300

FMEE Tower
Sainte-Marie, Reunion

Feed Status: DOWN
Offline since: 2019-09-10 00:09:39 UTC

FMEE 190900Z AUTO 08009KT 9999 OVC033 24/19 Q1018 NOSIG

Gillot Tower: 118.400

FMEP Info (Archives)
Saint-Pierre, Reunion

Feed Status: UP
Listen in your browser - HTML5 player(in browser, HTML5)
Click here to listen with your own player(launches your MP3 player)

FMEP 190900Z AUTO 16013KT 9999 FEW054 25/18 Q1018 NOSIG


Listeners: 0 out of 753 total

Saint-Pierre Info: 122.400

FMMI Twr/App/Center (Archives)
Antananarivo, Madagascar

Feed Status: UP
Listen in your browser - HTML5 player(in browser, HTML5)
Click here to listen with your own player(launches your MP3 player)

FMMI 190900Z VRB05KT 9999 FEW023 28/07 Q1022 NOSIG


Listeners: 3 out of 753 total

Ivato Approach: 125.700
Ivato Tower: 120.100
Tana Control: 128.900

LATI Twr/App/ACC (Archives)
Tirana, Albania

Feed Status: UP
Listen in your browser - HTML5 player(in browser, HTML5)
Click here to listen with your own player(launches your MP3 player)

LATI 190920Z 33004KT 290V040 CAVOK 27/18 Q1015 NOSIG

LATI Flight Activity (Flightaware)

Listeners: 1 out of 753 total

Tirana Approach/Departure: 133.150
Tirana Approach/Departure: 131.075
Tirana Tower: 122.500
Tirana Tower: 123.500

LBLS Tower/FIC
Lesnovo, Bulgaria

Feed Status: DOWN
Offline since: 2019-08-23 13:30:40 UTC

LBSF 190900Z 31006KT 9999 FEW029 BKN046 OVC065 11/08 Q1023 NOSIG

Lesnovo FIC: 130.600
Lesnovo Tower: 122.250

LBPD Tower (Archives)
Plovdiv, Bulgaria

Feed Status: UP
Listen in your browser - HTML5 player(in browser, HTML5)
Click here to listen with your own player(launches your MP3 player)

LBSF 190900Z 31006KT 9999 FEW029 BKN046 OVC065 11/08 Q1023 NOSIG

LBSF Flight Activity (Flightaware)

Listeners: 0 out of 753 total

Plovdiv Tower: 125.500
Plovdiv Tower: 133.600

LBSF ATIS (Archives)
Sofia, Bulgaria

Feed Status: UP
Listen in your browser - HTML5 player(in browser, HTML5)
Click here to listen with your own player(launches your MP3 player)

LBSF 190900Z 31006KT 9999 FEW029 BKN046 OVC065 11/08 Q1023 NOSIG

LBSF Flight Activity (Flightaware)

Listeners: 0 out of 753 total

Sofia ATIS: 126.680

LBSF Sofia Control East (Archives)
Sofia, Bulgaria

Feed Status: UP
Listen in your browser - HTML5 player(in browser, HTML5)
Click here to listen with your own player(launches your MP3 player)

LBSF 190900Z 31006KT 9999 FEW029 BKN046 OVC065 11/08 Q1023 NOSIG

LBSF Flight Activity (Flightaware)

Listeners: 0 out of 753 total

Sofia Control (East/Middle Sector): 129.100
Sofia Control (Varna Sector): 134.700

LBSF Twr/App #1 (Archives)
Sofia, Bulgaria

Feed Status: UP
Listen in your browser - HTML5 player(in browser, HTML5)
Click here to listen with your own player(launches your MP3 player)

LBSF 190900Z 31006KT 9999 FEW029 BKN046 OVC065 11/08 Q1023 NOSIG

LBSF Flight Activity (Flightaware)

Listeners: 1 out of 753 total

Sofia Approach: 123.700
Sofia Approach: 129.900
Sofia Tower: 118.100
Sofia Tower: 120.200

LBSF Twr/App #2 (Archives)
Sofia, Bulgaria

Feed Status: UP
Listen in your browser - HTML5 player(in browser, HTML5)
Click here to listen with your own player(launches your MP3 player)

LBSF 190900Z 31006KT 9999 FEW029 BKN046 OVC065 11/08 Q1023 NOSIG

LBSF Flight Activity (Flightaware)

Listeners: 1 out of 753 total

Sofia Approach: 123.700
Sofia Tower: 118.100

LBWN Tower/Approach (Archives)
Varna, Bulgaria

Feed Status: UP
Listen in your browser - HTML5 player(in browser, HTML5)
Click here to listen with your own player(launches your MP3 player)

LBWN 190900Z VRB01KT 9999 FEW033 BKN042 20/12 Q1020 NOSIG

LBWN Flight Activity (Flightaware)

Listeners: 1 out of 753 total

Varna Approach: 121.000
Varna Tower: 119.500

Bordeaux Control (Archives)
Bordeaux, France

Feed Status: UP
Listen in your browser - HTML5 player(in browser, HTML5)
Click here to listen with your own player(launches your MP3 player)

LFBD 190900Z AUTO 05007KT 010V090 CAVOK 18/05 Q1020 NOSIG

LFBD Flight Activity (Flightaware)

Listeners: 1 out of 753 total

Air to Air: 123.450
Bordeaux Control BN FL<300: 127.675
Bordeaux Control L3 FL>300: 134.250
Bordeaux Control R2 FL>300: 133.575
Emergency/Guard: 121.500

NOTE: In case of garbled sound, please refresh the player.

LFBD Aquitane Approach (Archives)
Bordeaux, France

Feed Status: UP
Listen in your browser - HTML5 player(in browser, HTML5)
Click here to listen with your own player(launches your MP3 player)

LFBD 190900Z AUTO 05007KT 010V090 CAVOK 18/05 Q1020 NOSIG

LFBD Flight Activity (Flightaware)

Listeners: 1 out of 753 total

Aquitane Approach: 129.875

Feed sponsored by: Dataero.fr

LFBD Tower (Archives)
Bordeaux, France

Feed Status: UP
Listen in your browser - HTML5 player(in browser, HTML5)
Click here to listen with your own player(launches your MP3 player)

LFBD 190900Z AUTO 05007KT 010V090 CAVOK 18/05 Q1020 NOSIG

LFBD Flight Activity (Flightaware)

Listeners: 4 out of 753 total

Merignac Tower: 118.300

LFBU/LFBL Tower
Limoges, France

Feed Status: DOWN
Offline since: 2018-11-19 20:05:05 UTC

LFBU 190900Z AUTO 04017KT CAVOK 17/04 Q1021 BECMG 05015G25KT

LFBL Limoges Tower: 124.055
LFBU Angouleme Tower: 123.150
Medoc: 124.325

Bordeaux Control (Archives)
Angouleme, France

Feed Status: UP
Listen in your browser - HTML5 player(in browser, HTML5)
Click here to listen with your own player(launches your MP3 player)

LFBD 190900Z AUTO 05007KT 010V090 CAVOK 18/05 Q1020 NOSIG

LFBD Flight Activity (Flightaware)

Listeners: 1 out of 753 total

Air to Air: 123.450
Bordeaux Control BN FL<300: 127.675
Bordeaux Control L3 FL>300: 134.250
Bordeaux Control R2 FL>300: 133.575
Emergency/Guard: 121.500

NOTE: In case of garbled sound, please refresh the player.

LFBZ Tower (Archives)
Biarritz, France

Feed Status: UP
Listen in your browser - HTML5 player(in browser, HTML5)
Click here to listen with your own player(launches your MP3 player)

LFBZ 190900Z AUTO 28006KT 240V310 9999 FEW016 21/17 Q1019 NOSIG

LFBZ Flight Activity (Flightaware)

Listeners: 0 out of 753 total


LFLL Tower (Archives)
Lyon, France

Feed Status: UP
Listen in your browser - HTML5 player(in browser, HTML5)
Click here to listen with your own player(launches your MP3 player)

LFLL 190900Z 31005KT 250V360 CAVOK 14/06 Q1022 NOSIG

LFLL Flight Activity (Flightaware)

Listeners: 1 out of 753 total

Lyon Tower: 120.450

Lyon FIS (Archives)
Lyon, France

Feed Status: UP
Listen in your browser - HTML5 player(in browser, HTML5)
Click here to listen with your own player(launches your MP3 player)

LFLL 190900Z 31005KT 250V360 CAVOK 14/06 Q1022 NOSIG

LFLL Flight Activity (Flightaware)

Listeners: 3 out of 750 total

Lyon FIS: 135.200

LFLP Twr/LFLB App
Annecy, France

Feed Status: DOWN
Offline since: 2019-09-19 07:35:23 UTC

LFLP 190900Z AUTO 33006KT 280V010 9999 OVC038 15/08 Q1021 NOSIG

Annecy Tower: 118.200
Chambery Approach: 121.200
Chambery Info: 123.700

NOTE: Reception might be deteriorated due to terrain surrounding feed

LFLY Tower (Archives)
Bron, France

Feed Status: UP
Listen in your browser - HTML5 player(in browser, HTML5)
Click here to listen with your own player(launches your MP3 player)

LFLY 190900Z AUTO 33007KT 280V010 CAVOK 15/05 Q1022 NOSIG

LFLY Flight Activity (Flightaware)

Listeners: 0 out of 750 total

Lyon-Bron Tower: 118.100

Lyon FIS (Archives)
Bron, France

Feed Status: UP
Listen in your browser - HTML5 player(in browser, HTML5)
Click here to listen with your own player(launches your MP3 player)

LFLL 190900Z 31005KT 250V360 CAVOK 14/06 Q1022 NOSIG

LFLL Flight Activity (Flightaware)

Listeners: 3 out of 750 total

Lyon FIS: 135.200

LFMD Ground/Tower (Archives)
Cannes, France

Feed Status: UP
Listen in your browser - HTML5 player(in browser, HTML5)
Click here to listen with your own player(launches your MP3 player)

LFMD 190900Z AUTO 20003KT 170V250 9999 FEW021 OVC047 25/20 Q1016 NOSIG

LFMD Flight Activity (Flightaware)

Listeners: 0 out of 750 total

Cannes Ground: 121.800
Cannes Tower: 118.625

LFMN Approach (Archives)
Nice, France

Feed Status: UP
Listen in your browser - HTML5 player(in browser, HTML5)
Click here to listen with your own player(launches your MP3 player)

LFMN 190900Z 14003KT 9999 FEW020 25/18 Q1017 NOSIG

LFMN Flight Activity (Flightaware)

Listeners: 0 out of 750 total

Nice Approach: 124.175

LFMN Control (High) (Archives)
Nice, France

Feed Status: UP
Listen in your browser - HTML5 player(in browser, HTML5)
Click here to listen with your own player(launches your MP3 player)

LFMN 190900Z 14003KT 9999 FEW020 25/18 Q1017 NOSIG

LFMN Flight Activity (Flightaware)

Listeners: 0 out of 750 total

Marseille Control Sector K1 (FL245-FL305): 126.780

LFMN FIS/Approach (Archives)
Nice, France

Feed Status: UP
Listen in your browser - HTML5 player(in browser, HTML5)
Click here to listen with your own player(launches your MP3 player)

LFMN 190900Z 14003KT 9999 FEW020 25/18 Q1017 NOSIG

LFMN Flight Activity (Flightaware)

Listeners: 0 out of 750 total

Nice FIS/Approach (TMA4 NICE 2500ft - FL115): 120.850

LFMN Ground/Tower (Archives)
Nice, France

Feed Status: UP
Listen in your browser - HTML5 player(in browser, HTML5)
Click here to listen with your own player(launches your MP3 player)

LFMN 190900Z 14003KT 9999 FEW020 25/18 Q1017 NOSIG

LFMN Flight Activity (Flightaware)

Listeners: 1 out of 750 total

Nice Ground: 121.700
Nice Tower: 118.700

LFPO Approach (Archives)
Paris, France

Feed Status: UP
Listen in your browser - HTML5 player(in browser, HTML5)
Click here to listen with your own player(launches your MP3 player)

LFPO 190900Z 05014KT CAVOK 15/06 Q1028 NOSIG

LFPO Flight Activity (Flightaware)

Listeners: 3 out of 750 total

Orly Approach: 124.450
Orly Approach: 118.850
Orly Approach: 120.850
Orly Approach: 123.875

LFPO Departure (Archives)
Paris, France

Feed Status: UP
Listen in your browser - HTML5 player(in browser, HTML5)
Click here to listen with your own player(launches your MP3 player)

LFPO 190900Z 05014KT CAVOK 15/06 Q1028 NOSIG

LFPO Flight Activity (Flightaware)

Listeners: 0 out of 750 total

Orly Departure: 127.750

LFPO Tower (Archives)
Paris, France

Feed Status: UP
Listen in your browser - HTML5 player(in browser, HTML5)
Click here to listen with your own player(launches your MP3 player)

LFPO 190900Z 05014KT CAVOK 15/06 Q1028 NOSIG

LFPO Flight Activity (Flightaware)

Listeners: 6 out of 750 total

Orly Tower: 120.500
Orly Tower: 118.700

LFSB Tower (Archives)
Basel, Switzerland

Feed Status: UP
Listen in your browser - HTML5 player(in browser, HTML5)
Click here to listen with your own player(launches your MP3 player)

LFSB 190900Z 01007KT 320V040 CAVOK 13/06 Q1026 NOSIG

LFSB Flight Activity (Flightaware)

Listeners: 1 out of 750 total

Mulhouse Tower: 118.300

LFST Approach #1
Strasbourg, France

Feed Status: DOWN
Offline since: 2019-09-01 14:43:39 UTC

LFST 190900Z AUTO 03010KT 350V060 CAVOK 15/05 Q1028 TEMPO 04015G25KT

Strasbourg Approach: 120.700

LFST Approach #2
Strasbourg, France

Feed Status: DOWN
Offline since: 2019-09-01 14:43:39 UTC

LFST 190900Z AUTO 03010KT 350V060 CAVOK 15/05 Q1028 TEMPO 04015G25KT

Strasbourg Approach: 119.575

LFST Emergency/Guard
Strasbourg, France

Feed Status: DOWN
Offline since: 2019-09-01 14:43:39 UTC

LFST 190900Z AUTO 03010KT 350V060 CAVOK 15/05 Q1028 TEMPO 04015G25KT

Emergency/Guard: 121.500

LFST Ground
Strasbourg, France

Feed Status: DOWN
Offline since: 2019-09-01 14:43:39 UTC

LFST 190900Z AUTO 03010KT 350V060 CAVOK 15/05 Q1028 TEMPO 04015G25KT

Strasbourg Ground: 121.800

LFST Tower
Strasbourg, France

Feed Status: DOWN
Offline since: 2019-09-01 14:43:39 UTC

LFST 190900Z AUTO 03010KT 350V060 CAVOK 15/05 Q1028 TEMPO 04015G25KT

Strasbourg Tower: 119.250

LGAV App/Radar (Archives)
Athens, Greece

Feed Status: UP
Listen in your browser - HTML5 player(in browser, HTML5)
Click here to listen with your own player(launches your MP3 player)

LGAV 190920Z 05012KT 9999 FEW018 27/18 Q1016 NOSIG

LGAV Flight Activity (Flightaware)

Listeners: 0 out of 750 total

Athens Approach: 132.975
Athens Information: 130.925
Athens Information: 119.750
Athens Radar (Kerkira-Kefalinia-Paleohora Sectors FL460-FL345): 134.325
Athens Radar (Milos/Sitia Sectors FL460-FL345): 125.200
Athens Radar (Paleohora /Kerkira Sectors FL460-FL345): 133.725
Athens Radar (Paleohora Sector FL460-FL345): 124.625
Athens Radar (Rhodos/Kavos Sector FL460-FL345): 133.325
Emergency/Guard: 121.500
Makedonia Radar (Thessaloniki/Skopelos/Limnos/Kavala Sectors FL460-FL345): 133.575

LGAV Clearance Delivery
Athens, Greece

Feed Status: DOWN
Offline since: 2019-09-17 22:40:23 UTC

LGAV 190920Z 05012KT 9999 FEW018 27/18 Q1016 NOSIG

Athens Clearance Delivery: 118.675

LGAV Director
Athens, Greece

Feed Status: DOWN
Offline since: 2019-09-17 22:40:23 UTC

LGAV 190920Z 05012KT 9999 FEW018 27/18 Q1016 NOSIG

Athens Director: 121.400

LGAV Ground (North)
Athens, Greece

Feed Status: DOWN
Offline since: 2019-09-17 22:40:23 UTC

LGAV 190920Z 05012KT 9999 FEW018 27/18 Q1016 NOSIG

Athens Ground (North): 121.750

LGAV Ground (South)
Athens, Greece

Feed Status: DOWN
Offline since: 2019-09-17 22:40:23 UTC

LGAV 190920Z 05012KT 9999 FEW018 27/18 Q1016 NOSIG

Athens Ground (South): 121.950

LGAV Tower (Rwy 3L/21R)
Athens, Greece

Feed Status: DOWN
Offline since: 2019-09-17 22:40:23 UTC

LGAV 190920Z 05012KT 9999 FEW018 27/18 Q1016 NOSIG

Athens Tower (Rwy 03L/21R): 136.275

LGAV Tower (Rwy 3R/21L)
Athens, Greece

Feed Status: DOWN
Offline since: 2019-09-17 22:40:23 UTC

LGAV 190920Z 05012KT 9999 FEW018 27/18 Q1016 NOSIG

Athens Tower (Rwy 03R/21L): 118.625

LGIR Approach (Archives)
Iraklion, Greece

Feed Status: UP
Listen in your browser - HTML5 player(in browser, HTML5)
Click here to listen with your own player(launches your MP3 player)

LGIR 190920Z 05007KT CAVOK 27/20 Q1014 NOSIG

LGIR Flight Activity (Flightaware)

Listeners: 0 out of 750 total

Iraklion Radar: 123.975

LGIR Ground (Archives)
Iraklion, Greece

Feed Status: UP
Listen in your browser - HTML5 player(in browser, HTML5)
Click here to listen with your own player(launches your MP3 player)

LGIR 190920Z 05007KT CAVOK 27/20 Q1014 NOSIG

LGIR Flight Activity (Flightaware)

Listeners: 0 out of 750 total

Heraklion Ground: 121.700

LGIR Tower (Archives)
Iraklion, Greece

Feed Status: UP
Listen in your browser - HTML5 player(in browser, HTML5)
Click here to listen with your own player(launches your MP3 player)

LGIR 190920Z 05007KT CAVOK 27/20 Q1014 NOSIG

LGIR Flight Activity (Flightaware)

Listeners: 0 out of 750 total

Heraklion Tower: 120.850

LHBP Approach #1 (Archives)
Budapest, Hungary

Feed Status: UP
Listen in your browser - HTML5 player(in browser, HTML5)
Click here to listen with your own player(launches your MP3 player)

LHBP 190900Z 30010KT 9999 FEW048 16/03 Q1025 NOSIG

LHBP Flight Activity (Flightaware)

Listeners: 3 out of 750 total

Budapest Approach: 129.700
Budapest Approach: 122.975
Budapest Approach (Upper): 123.860

LHBP Approach #2 (Archives)
Budapest, Hungary

Feed Status: UP
Listen in your browser - HTML5 player(in browser, HTML5)
Click here to listen with your own player(launches your MP3 player)

LHBP 190900Z 30010KT 9999 FEW048 16/03 Q1025 NOSIG

LHBP Flight Activity (Flightaware)

Listeners: 0 out of 750 total

Budapest Approach: 122.975
Budapest Approach (Upper): 123.860

LHBP Approach (Director) (Archives)
Budapest, Hungary

Feed Status: UP
Listen in your browser - HTML5 player(in browser, HTML5)
Click here to listen with your own player(launches your MP3 player)

LHBP 190900Z 30010KT 9999 FEW048 16/03 Q1025 NOSIG

LHBP Flight Activity (Flightaware)

Listeners: 0 out of 750 total

Budapest Director: 119.510

LHBP ATIS (Archives)
Budapest, Hungary

Feed Status: UP
Listen in your browser - HTML5 player(in browser, HTML5)
Click here to listen with your own player(launches your MP3 player)

LHBP 190900Z 30010KT 9999 FEW048 16/03 Q1025 NOSIG

LHBP Flight Activity (Flightaware)

Listeners: 0 out of 750 total

Budapest ATIS: 132.380

LHBP Clearance Delivery (Archives)
Budapest, Hungary

Feed Status: UP
Listen in your browser - HTML5 player(in browser, HTML5)
Click here to listen with your own player(launches your MP3 player)

LHBP 190900Z 30010KT 9999 FEW048 16/03 Q1025 NOSIG

LHBP Flight Activity (Flightaware)

Listeners: 0 out of 750 total

Budapest Clearance Delivery: 134.540

LHBP Ground (Archives)
Budapest, Hungary

Feed Status: UP
Listen in your browser - HTML5 player(in browser, HTML5)
Click here to listen with your own player(launches your MP3 player)

LHBP 190900Z 30010KT 9999 FEW048 16/03 Q1025 NOSIG

LHBP Flight Activity (Flightaware)

Listeners: 0 out of 750 total

Budapest Ground: 121.910

LHBP Info (Archives)
Budapest, Hungary

Feed Status: UP
Listen in your browser - HTML5 player(in browser, HTML5)
Click here to listen with your own player(launches your MP3 player)

LHBP 190900Z 30010KT 9999 FEW048 16/03 Q1025 NOSIG

LHBP Flight Activity (Flightaware)

Listeners: 2 out of 750 total

Budapest Info: 119.350

LHBP Tower (Archives)
Budapest, Hungary

Feed Status: UP
Listen in your browser - HTML5 player(in browser, HTML5)
Click here to listen with your own player(launches your MP3 player)

LHBP 190900Z 30010KT 9999 FEW048 16/03 Q1025 NOSIG

LHBP Flight Activity (Flightaware)

Listeners: 1 out of 750 total

Budapest Tower: 118.100

LHBP Twr/Info (Archives)
Budapest, Hungary

Feed Status: UP
Listen in your browser - HTML5 player(in browser, HTML5)
Click here to listen with your own player(launches your MP3 player)

LHBP 190900Z 30010KT 9999 FEW048 16/03 Q1025 NOSIG

LHBP Flight Activity (Flightaware)

Listeners: 0 out of 750 total

Budapest Info: 119.350
Budapest Tower: 118.100

LHCC Control (East/West) (Archives)
Budapest, Hungary

Feed Status: UP
Listen in your browser - HTML5 player(in browser, HTML5)
Click here to listen with your own player(launches your MP3 player)

LHBP 190900Z 30010KT 9999 FEW048 16/03 Q1025 NOSIG

LHBP Flight Activity (Flightaware)

Listeners: 0 out of 750 total

Budapest Control (East Low Sector): 120.375
Budapest Control (West Low Sector): 133.200

LHDC Info/Tower (Archives)
Debrecen, Hungary

Feed Status: UP
Listen in your browser - HTML5 player(in browser, HTML5)
Click here to listen with your own player(launches your MP3 player)

LHDC 190845Z AUTO 02007KT 340V060 CAVOK 15/03 Q1023 NOSIG

LHDC Flight Activity (Flightaware)

Listeners: 1 out of 750 total

Debrecen Info/Tower: 125.900

LHEM CTAF (Archives)
Esztergom, Hungary

Feed Status: UP
Listen in your browser - HTML5 player(in browser, HTML5)
Click here to listen with your own player(launches your MP3 player)

LHEM Flight Activity (Flightaware)

Listeners: 0 out of 750 total

Esztergom CTAF: 126.850

LHPR Info/AFIS (Archives)
Gyor, Hungary

Feed Status: UP
Listen in your browser - HTML5 player(in browser, HTML5)
Click here to listen with your own player(launches your MP3 player)

LHPR 190845Z 33009KT 270V020 9999 FEW033 BKN200 15/05 Q1026

LHPR Flight Activity (Flightaware)

Listeners: 3 out of 750 total

Gyor AFIS: 129.910

LHUD CTAF/Info/AFIS (Archives)
Szeged, Hungary

Feed Status: UP
Listen in your browser - HTML5 player(in browser, HTML5)
Click here to listen with your own player(launches your MP3 player)

LHUD 032345Z 35004KT CAVOK 18/13 Q1019

LHUD Flight Activity (Flightaware)

Listeners: 1 out of 750 total

Szeged CTAF/Info/AFIS: 122.810

LJLJ Radar (Archives)
Ljubljana, Slovenia

Feed Status: UP
Listen in your browser - HTML5 player(in browser, HTML5)
Click here to listen with your own player(launches your MP3 player)

LJLJ 190900Z 16001KT 9999 FEW040 SCT060 16/08 Q1024 NOSIG

LJLJ Flight Activity (Flightaware)

Listeners: 0 out of 750 total

Ljubljana Approach: 135.275

LJLJ Tower (Archives)
Ljubljana, Slovenia

Feed Status: UP
Listen in your browser - HTML5 player(in browser, HTML5)
Click here to listen with your own player(launches your MP3 player)

LJLJ 190900Z 16001KT 9999 FEW040 SCT060 16/08 Q1024 NOSIG

LJLJ Flight Activity (Flightaware)

Listeners: 0 out of 750 total

Ljubljana Tower: 118.000

LJMB Info/FSS/FIC (Archives)
Maribor, Slovenia

Feed Status: UP
Listen in your browser - HTML5 player(in browser, HTML5)
Click here to listen with your own player(launches your MP3 player)

LJMB 190900Z 05005KT 330V100 9999 FEW040 SCT073 BKN250 15/04 Q1026

LJMB Flight Activity (Flightaware)

Listeners: 0 out of 750 total

Ljubljana Information FSS/FIC (Maribor Area): 118.475

LJMB Tower/Approach (Archives)
Maribor, Slovenia

Feed Status: UP
Listen in your browser - HTML5 player(in browser, HTML5)
Click here to listen with your own player(launches your MP3 player)

LJMB 190900Z 05005KT 330V100 9999 FEW040 SCT073 BKN250 15/04 Q1026

LJMB Flight Activity (Flightaware)

Listeners: 0 out of 750 total

Maribor Tower/Approach: 119.200

LJPZ Tower (Archives)
Secovlje, Slovenia

Feed Status: UP
Listen in your browser - HTML5 player(in browser, HTML5)
Click here to listen with your own player(launches your MP3 player)

LJPZ 190900Z 07007KT 010V130 CAVOK 21/05 Q1019

LJPZ Flight Activity (Flightaware)

Listeners: 0 out of 750 total

Portoroz Tower: 124.875

LKPM Tower
Pribram, Czech Republic

Feed Status: DOWN
Offline since: 2019-09-19 09:39:06 UTC

Pribram Tower: 118.750

LKAA FIR (High) (Archives)
Prague, Czech Republic

Feed Status: UP
Listen in your browser - HTML5 player(in browser, HTML5)
Click here to listen with your own player(launches your MP3 player)

LKAA Flight Activity (Flightaware)

Listeners: 0 out of 750 total

LKAA FIR Sector West High / Praha Radar : 132.065

LKAA FIR (Low) (Archives)
Prague, Czech Republic

Feed Status: UP
Listen in your browser - HTML5 player(in browser, HTML5)
Click here to listen with your own player(launches your MP3 player)

LKAA Flight Activity (Flightaware)

Listeners: 0 out of 750 total

LKAA FIR Sector West Low / Praha Radar: 120.275

LKPR Approach (Archives)
Prague, Czech Republic

Feed Status: UP
Listen in your browser - HTML5 player(in browser, HTML5)
Click here to listen with your own player(launches your MP3 player)

LKPR 190900Z 29008KT 250V320 9999 SCT033 BKN048 11/02 Q1027 NOSIG

LKPR Flight Activity (Flightaware)

Listeners: 2 out of 750 total

Prague Approach/Radar: 127.580

LKPR Clearance Del (Archives)
Prague, Czech Republic

Feed Status: UP
Listen in your browser - HTML5 player(in browser, HTML5)
Click here to listen with your own player(launches your MP3 player)

LKPR 190900Z 29008KT 250V320 9999 SCT033 BKN048 11/02 Q1027 NOSIG

LKPR Flight Activity (Flightaware)

Listeners: 1 out of 750 total


LKPR Director/Ruzyne Radar (Archives)
Prague, Czech Republic

Feed Status: UP
Listen in your browser - HTML5 player(in browser, HTML5)
Click here to listen with your own player(launches your MP3 player)

LKPR 190900Z 29008KT 250V320 9999 SCT033 BKN048 11/02 Q1027 NOSIG

LKPR Flight Activity (Flightaware)

Listeners: 0 out of 750 total

Prague Director/Ruzyne Radar: 119.010

NOTE: Only active during peak times, typically 2-6PM local time (CET)

LKPR Ground (Archives)
Prague, Czech Republic

Feed Status: UP
Listen in your browser - HTML5 player(in browser, HTML5)
Click here to listen with your own player(launches your MP3 player)

LKPR 190900Z 29008KT 250V320 9999 SCT033 BKN048 11/02 Q1027 NOSIG

LKPR Flight Activity (Flightaware)

Listeners: 0 out of 750 total

Prague/Ruzyne Clearance Delivery: 120.060
Prague/Ruzyne Ground: 121.910

LKPR Tower (Archives)
Prague, Czech Republic

Feed Status: UP
Listen in your browser - HTML5 player(in browser, HTML5)
Click here to listen with your own player(launches your MP3 player)

LKPR 190900Z 29008KT 250V320 9999 SCT033 BKN048 11/02 Q1027 NOSIG

LKPR Flight Activity (Flightaware)

Listeners: 8 out of 750 total

Prague/Ruzyne Tower: 134.560

LKTB Gnd/Twr/Radar (Archives)
Brno, Czech Republic

Feed Status: UP
Listen in your browser - HTML5 player(in browser, HTML5)
Click here to listen with your own player(launches your MP3 player)

LKTB 190900Z 33008KT 200V010 9999 SCT037 12/05 Q1026 NOSIG

LKTB Flight Activity (Flightaware)

Listeners: 0 out of 750 total

Brno Ground: 125.425
Brno Handling: 131.800
Brno Radar (Approach): 127.350
Brno Tower: 119.600

LMML Del/Gnd/Twr/App
Luqa, Malta

Feed Status: DOWN
Offline since: 2019-05-20 08:38:03 UTC

LMML 190915Z 25010KT 9999 SCT016 27/22 Q1017 NOSIG

Luqa Approach: 128.150
Luqa Approach/Radar: 118.350
Luqa Ground: 121.600
Luqa Tower: 135.100
Malta Control East: 123.625
Malta Control West: 130.975

Santa Maria Control (Oceanic) (Archives)
Santa Maria Island (Azores), Portugal

Feed Status: UP
Listen in your browser - HTML5 player(in browser, HTML5)
Click here to listen with your own player(launches your MP3 player)

LPAZ 190900Z 29011KT 9999 FEW014 22/20 Q1017

LPAZ Flight Activity (Flightaware)

Listeners: 0 out of 750 total

Emergency/Guard: 121.500
LPHR (Horta) Approach: 120.600
LPLA (Terceira) Approach: 135.000
LPLA (Terceira) Tower: 122.100
LPPD (Ponta Delgada) Approach: 119.400
Ponta Delgada Ground: 131.600
Santa Maria Approach: 119.100
Santa Maria Control: 132.150

LPLA Gnd/Twr/App (Archives)
Lajes, Portugal

Feed Status: UP
Listen in your browser - HTML5 player(in browser, HTML5)
Click here to listen with your own player(launches your MP3 player)

LPLA 190900Z /////KT 9999 FEW023 21/18 Q1016

LPLA Flight Activity (Flightaware)

Listeners: 2 out of 750 total

Lajes Approach: 135.000
Lajes Ground: 121.900
Lajes Tower: 122.100

LPPR Approach #1 (Archives)
Porto, Portugal

Feed Status: UP
Listen in your browser - HTML5 player(in browser, HTML5)
Click here to listen with your own player(launches your MP3 player)

LPPR 190900Z 00000KT 8000 BKN004 16/15 Q1018

LPPR Flight Activity (Flightaware)

Listeners: 0 out of 750 total

Porto Approach: 121.105

LPPT Approach (Archives)
Lisbon, Portugal

Feed Status: UP
Listen in your browser - HTML5 player(in browser, HTML5)
Click here to listen with your own player(launches your MP3 player)

LPPT 190900Z 01006KT 320V090 9999 FEW016 20/15 Q1017

LPPT Flight Activity (Flightaware)

Listeners: 4 out of 750 total

Lisbon Approach: 119.100

LRCL Twr/App #1 (Archives)
Cluj-Napoca, Romania

Feed Status: UP
Listen in your browser - HTML5 player(in browser, HTML5)
Click here to listen with your own player(launches your MP3 player)

LRCL 190900Z 36005KT 9999 SCT044 15/01 Q1022

LRCL Flight Activity (Flightaware)

Listeners: 2 out of 750 total

Cluj Approach: 126.425
Cluj Tower: 134.400

LRCL Twr/App/ACC (Archives)
Cluj-Napoca, Romania

Feed Status: UP
Listen in your browser - HTML5 player(in browser, HTML5)
Click here to listen with your own player(launches your MP3 player)

LRCL 190900Z 36005KT 9999 SCT044 15/01 Q1022

LRCL Flight Activity (Flightaware)

Listeners: 0 out of 750 total

Cluj Approach: 126.425
Cluj Tower: 134.400
Napoc ACC: 127.075

LROP Ground (Archives)
Bucharest, Romania

Feed Status: UP
Listen in your browser - HTML5 player(in browser, HTML5)
Click here to listen with your own player(launches your MP3 player)

LROP 190900Z 08012KT CAVOK 19/02 Q1022 NOSIG

LROP Flight Activity (Flightaware)

Listeners: 0 out of 750 total

Bucharest Ground: 121.855

LROP Radar (Archives)
Bucharest, Romania

Feed Status: UP
Listen in your browser - HTML5 player(in browser, HTML5)
Click here to listen with your own player(launches your MP3 player)

LROP 190900Z 08012KT CAVOK 19/02 Q1022 NOSIG

LROP Flight Activity (Flightaware)

Listeners: 0 out of 750 total

Bucharest Radar (Arges Mid sector): 121.175
Bucharest Radar (Arges Top Sector): 123.265
Bucharest Radar (Lomos Top Sector): 132.865

LROP Tower/Approach (Archives)
Bucharest, Romania

Feed Status: UP
Listen in your browser - HTML5 player(in browser, HTML5)
Click here to listen with your own player(launches your MP3 player)

LROP 190900Z 08012KT CAVOK 19/02 Q1022 NOSIG

LROP Flight Activity (Flightaware)

Listeners: 0 out of 750 total

Bucharest Approach: 119.415
Bucharest Director: 127.155
Bucharest Tower: 118.805

LROP Twr/App/Radar (Archives)
Bucharest, Romania

Feed Status: UP
Listen in your browser - HTML5 player(in browser, HTML5)
Click here to listen with your own player(launches your MP3 player)

LROP 190900Z 08012KT CAVOK 19/02 Q1022 NOSIG

LROP Flight Activity (Flightaware)

Listeners: 5 out of 750 total

Bucharest Approach: 119.415
Bucharest Director: 127.155
Bucharest Radar (Arges Mid sector): 121.175
Bucharest Radar (Arges Top Sector): 123.265
Bucharest Radar (Lomos Top Sector): 132.865
Bucharest Tower: 118.805

Note: Bucharest Radar on right stereo channel and Bucharest Tower/Approach on left stereo channel.

LRSB Tower/CTAF (Archives)
Sibiu, Romania

Feed Status: UP
Listen in your browser - HTML5 player(in browser, HTML5)
Click here to listen with your own player(launches your MP3 player)

LRSB 190900Z 33009KT 310V010 CAVOK 16/00 Q1022

LRSB Flight Activity (Flightaware)

Listeners: 0 out of 750 total

Sibiu Tower: 121.305

LRTR Tower (Archives)
Timisoara, Romania

Feed Status: UP
Listen in your browser - HTML5 player(in browser, HTML5)
Click here to listen with your own player(launches your MP3 player)

LRTR 190900Z 33005KT 270V020 9999 FEW043 16/03 Q1024

LRTR Flight Activity (Flightaware)

Listeners: 0 out of 750 total

ARAD Approach: 127.250
Timisoara Tower: 120.100

LSGG Tower (Archives)
Geneva, Switzerland

Feed Status: UP
Listen in your browser - HTML5 player(in browser, HTML5)
Click here to listen with your own player(launches your MP3 player)

LSGG 190920Z 05015KT 020V080 9999 FEW045 15/06 Q1023 NOSIG

LSGG Flight Activity (Flightaware)

Listeners: 0 out of 750 total

Geneva Tower: 118.700

LSGS Gnd/Twr/App (Archives)
Sion, Switzerland

Feed Status: UP
Listen in your browser - HTML5 player(in browser, HTML5)
Click here to listen with your own player(launches your MP3 player)

LSGS 190920Z 26007KT 9999 SCT025 BKN050 16/09 Q1022

LSGS Flight Activity (Flightaware)

Listeners: 1 out of 750 total

Alpine Jet Service Handling: 131.675
Sion Airport Handling: 131.475
Sion Approach (IFR ARR MIL OFF): 126.825
Sion Ground: 121.700
Sion Tower: 118.275

LiveATC LSGS - About us

LSMD Tower (Archives)
Dubendorf, Switzerland

Feed Status: UP
Listen in your browser - HTML5 player(in browser, HTML5)
Click here to listen with your own player(launches your MP3 player)

LSZH 190920Z 05010KT 020V090 CAVOK 14/04 Q1026 NOSIG

LSZH Flight Activity (Flightaware)

Listeners: 0 out of 750 total

Dubendorf Tower: 118.975

LSPM AFIS (Archives)
Ambri, Switzerland

Feed Status: UP
Listen in your browser - HTML5 player(in browser, HTML5)
Click here to listen with your own player(launches your MP3 player)

LSPM Flight Activity (Flightaware)

Listeners: 0 out of 750 total

Ambri AFIS: 118.525

LSZA Tower (Archives)
Agno, Switzerland

Feed Status: UP
Listen in your browser - HTML5 player(in browser, HTML5)
Click here to listen with your own player(launches your MP3 player)

LSZA 190920Z 19006KT 160V220 9000 FEW008 SCT012 BKN018 17/15 Q1021 NOSIG

LSZA Flight Activity (Flightaware)

Listeners: 0 out of 750 total

Lugano Tower: 120.250

LSZB Tower/App/Dep
Bern, Switzerland

Feed Status: DOWN
Offline since: 2019-08-28 21:02:40 UTC

LSZB 190920Z 07006KT 340V110 9999 FEW041 14/07 Q1024 NOSIG

LSZB Arrival/Departure (left channel): 127.325
LSZB Tower (right channel): 121.025

LSZG Tower (Archives)
Grenchen, Switzerland

Feed Status: UP
Listen in your browser - HTML5 player(in browser, HTML5)
Click here to listen with your own player(launches your MP3 player)

LSZG 190920Z 08020KT CAVOK 15/03 Q1024 NOSIG

LSZG Flight Activity (Flightaware)

Listeners: 1 out of 750 total

Grenchen Tower: 120.100

LSZH Approach (East) (Archives)
Zurich, Switzerland

Feed Status: UP
Listen in your browser - HTML5 player(in browser, HTML5)
Click here to listen with your own player(launches your MP3 player)

LSZH 190920Z 05010KT 020V090 CAVOK 14/04 Q1026 NOSIG

LSZH Flight Activity (Flightaware)

Listeners: 2 out of 750 total

Zurich Approach (East): 135.225

LSZH Approach (West) (Archives)
Zurich, Switzerland

Feed Status: UP
Listen in your browser - HTML5 player(in browser, HTML5)
Click here to listen with your own player(launches your MP3 player)

LSZH 190920Z 05010KT 020V090 CAVOK 14/04 Q1026 NOSIG

LSZH Flight Activity (Flightaware)

Listeners: 0 out of 750 total

Zurich Approach (West): 118.000

LSZH Apron (South) (Archives)
Zurich, Switzerland

Feed Status: UP
Listen in your browser - HTML5 player(in browser, HTML5)
Click here to listen with your own player(launches your MP3 player)

LSZH 190920Z 05010KT 020V090 CAVOK 14/04 Q1026 NOSIG

LSZH Flight Activity (Flightaware)

Listeners: 2 out of 750 total

Zurich Apron (South): 121.755

LSZH Apron (West) (Archives)
Zurich, Switzerland

Feed Status: UP
Listen in your browser - HTML5 player(in browser, HTML5)
Click here to listen with your own player(launches your MP3 player)

LSZH 190920Z 05010KT 020V090 CAVOK 14/04 Q1026 NOSIG

LSZH Flight Activity (Flightaware)

Listeners: 1 out of 750 total

Zurich Apron (West): 121.855

LSZH Clearance Delivery (Archives)
Zurich, Switzerland

Feed Status: UP
Listen in your browser - HTML5 player(in browser, HTML5)
Click here to listen with your own player(launches your MP3 player)

LSZH 190920Z 05010KT 020V090 CAVOK 14/04 Q1026 NOSIG

LSZH Flight Activity (Flightaware)

Listeners: 4 out of 750 total

Zurich Clearance Delivery: 121.925

LSZH Ground (Archives)
Zurich, Switzerland

Feed Status: UP
Listen in your browser - HTML5 player(in browser, HTML5)
Click here to listen with your own player(launches your MP3 player)

LSZH 190920Z 05010KT 020V090 CAVOK 14/04 Q1026 NOSIG

LSZH Flight Activity (Flightaware)

Listeners: 0 out of 750 total

Zurich Ground: 121.905

LSZH Radar (Archives)
Zurich, Switzerland

Feed Status: UP
Listen in your browser - HTML5 player(in browser, HTML5)
Click here to listen with your own player(launches your MP3 player)

LSZH 190920Z 05010KT 020V090 CAVOK 14/04 Q1026 NOSIG

LSZH Flight Activity (Flightaware)

Listeners: 1 out of 750 total

Zurich Radar ACC (-FL240 East): 133.900
Zurich Radar ACC (-FL240 North): 136.150
Zurich Radar ACC (-FL240 South): 128.050
Zurich Radar ACC (-FL240 West): 135.675
Zurich Radar ACC (FL250-280): 133.050
Zurich Radar ACC (FL290-320): 132.815
Zurich Radar ACC (FL330-350): 134.600
Zurich Radar ACC (FL360+): 133.400

LSZH Radar 132.815 (Archives)
Zurich, Switzerland

Feed Status: UP
Listen in your browser - HTML5 player(in browser, HTML5)
Click here to listen with your own player(launches your MP3 player)

LSZH 190920Z 05010KT 020V090 CAVOK 14/04 Q1026 NOSIG

LSZH Flight Activity (Flightaware)

Listeners: 0 out of 750 total

Zurich Radar: 132.815

LSZH Radar 133.050 (Archives)
Zurich, Switzerland

Feed Status: UP
Listen in your browser - HTML5 player(in browser, HTML5)
Click here to listen with your own player(launches your MP3 player)

LSZH 190920Z 05010KT 020V090 CAVOK 14/04 Q1026 NOSIG

LSZH Flight Activity (Flightaware)

Listeners: 1 out of 750 total

Zurich Radar: 133.050

LSZH Radar 133.405 (Archives)
Zurich, Switzerland

Feed Status: UP
Listen in your browser - HTML5 player(in browser, HTML5)
Click here to listen with your own player(launches your MP3 player)

LSZH 190920Z 05010KT 020V090 CAVOK 14/04 Q1026 NOSIG

LSZH Flight Activity (Flightaware)

Listeners: 0 out of 750 total

Zurich Radar: 133.405

LSZH Radar 133.690 (Archives)
Zurich, Switzerland

Feed Status: UP
Listen in your browser - HTML5 player(in browser, HTML5)
Click here to listen with your own player(launches your MP3 player)

LSZH 190920Z 05010KT 020V090 CAVOK 14/04 Q1026 NOSIG

LSZH Flight Activity (Flightaware)

Listeners: 0 out of 750 total

Zurich Radar: 133.690

LSZH Radar 133.905 (Archives)
Zurich, Switzerland

Feed Status: UP
Listen in your browser - HTML5 player(in browser, HTML5)
Click here to listen with your own player(launches your MP3 player)

LSZH 190920Z 05010KT 020V090 CAVOK 14/04 Q1026 NOSIG

LSZH Flight Activity (Flightaware)

Listeners: 0 out of 750 total

Zurich Radar (Below FL240 East): 133.905

LSZH Radar 134.605 (Archives)
Zurich, Switzerland

Feed Status: UP
Listen in your browser - HTML5 player(in browser, HTML5)
Click here to listen with your own player(launches your MP3 player)

LSZH 190920Z 05010KT 020V090 CAVOK 14/04 Q1026 NOSIG

LSZH Flight Activity (Flightaware)

Listeners: 0 out of 750 total

Zurich Radar (FL330-350): 134.605

LSZH Radar 135.680 (Archives)
Zurich, Switzerland

Feed Status: UP
Listen in your browser - HTML5 player(in browser, HTML5)
Click here to listen with your own player(launches your MP3 player)

LSZH 190920Z 05010KT 020V090 CAVOK 14/04 Q1026 NOSIG

LSZH Flight Activity (Flightaware)

Listeners: 1 out of 750 total


LSZH Radar 136.155 (Archives)
Zurich, Switzerland

Feed Status: UP
Listen in your browser - HTML5 player(in browser, HTML5)
Click here to listen with your own player(launches your MP3 player)

LSZH 190920Z 05010KT 020V090 CAVOK 14/04 Q1026 NOSIG

LSZH Flight Activity (Flightaware)

Listeners: 0 out of 750 total

Zurich Radar (Below FL240 North): 136.155

LSZH Tower (Archives)
Zurich, Switzerland

Feed Status: UP
Listen in your browser - HTML5 player(in browser, HTML5)
Click here to listen with your own player(launches your MP3 player)

LSZH 190920Z 05010KT 020V090 CAVOK 14/04 Q1026 NOSIG

LSZH Flight Activity (Flightaware)

Listeners: 13 out of 750 total

Zurich Tower: 118.100

LSZH Tower #3
Zurich, Switzerland

Feed Status: DOWN
Offline since: 2019-09-02 03:53:05 UTC

LSZH 190920Z 05010KT 020V090 CAVOK 14/04 Q1026 NOSIG

Zurich Tower: 118.100

LSZH Tower (14/32) (Archives)
Zurich, Switzerland

Feed Status: UP
Listen in your browser - HTML5 player(in browser, HTML5)
Click here to listen with your own player(launches your MP3 player)

LSZH 190920Z 05010KT 020V090 CAVOK 14/04 Q1026 NOSIG

LSZH Flight Activity (Flightaware)

Listeners: 1 out of 750 total

Zurich Tower (Rwy 14 App/32 Takeoff): 120.225

LSZH Twr/Gnd (backup) (Archives)
Zurich, Switzerland

Feed Status: UP
Listen in your browser - HTML5 player(in browser, HTML5)
Click here to listen with your own player(launches your MP3 player)

LSZH 190920Z 05010KT 020V090 CAVOK 14/04 Q1026 NOSIG

LSZH Flight Activity (Flightaware)

Listeners: 0 out of 750 total

Zurich Twr/Gnd (backup): 119.700

LSZL Tower (Archives)
Locarno, Switzerland

Feed Status: UP
Listen in your browser - HTML5 player(in browser, HTML5)
Click here to listen with your own player(launches your MP3 player)

LSZL 190920Z 30006KT 260V340 9000 FEW015 BKN020 18/17 Q1020 RMK WHT

LSZL Flight Activity (Flightaware)

Listeners: 0 out of 750 total


LSZN CTAF (Archives)
Zurich, Switzerland

Feed Status: UP
Listen in your browser - HTML5 player(in browser, HTML5)
Click here to listen with your own player(launches your MP3 player)

LSZN Flight Activity (Flightaware)

Listeners: 0 out of 750 total

Hausen am Albis CTAF: 130.775

LSZR Tower (Archives)
Altenrhein, Switzerland

Feed Status: UP
Listen in your browser - HTML5 player(in browser, HTML5)
Click here to listen with your own player(launches your MP3 player)

LSZR 190920Z 27003KT CAVOK 12/07 Q1026 NOSIG RMK G

LSZR Flight Activity (Flightaware)

Listeners: 0 out of 750 total

Altenrhein Tower: 135.425

LSZW CTAF (Archives)
Thun, Switzerland

Feed Status: UP
Listen in your browser - HTML5 player(in browser, HTML5)
Click here to listen with your own player(launches your MP3 player)

LSZW Flight Activity (Flightaware)

Listeners: 0 out of 750 total

Thun CTAF/Info: 123.250

LTBA Gnd/Twr/App
Istanbul, Turkey

Feed Status: DOWN
Offline since: 2019-08-17 21:05:22 UTC

LTBA 190920Z 05013KT 010V080 9999 SCT025 26/16 Q1017 NOSIG

Istanbul Approach: 126.425
Istanbul Ground: 121.800
Istanbul Tower: 118.100

LTFJ Del/Gnd/Twr (Archives)
Istanbul, Turkey

Feed Status: UP
Listen in your browser - HTML5 player(in browser, HTML5)
Click here to listen with your own player(launches your MP3 player)

LTFJ 190920Z 06016KT 9999 SCT030 25/16 Q1017 NOSIG

LTFJ Flight Activity (Flightaware)

Listeners: 3 out of 750 total

Gokcen Clearance Delivery: 122.625
Gokcen Ground: 121.750
Gokcen Tower: 118.800

LTFJ Pegasus Dispatch (Archives)
Istanbul, Turkey

Feed Status: UP
Listen in your browser - HTML5 player(in browser, HTML5)
Click here to listen with your own player(launches your MP3 player)

LTFJ 190920Z 06016KT 9999 SCT030 25/16 Q1017 NOSIG

LTFJ Flight Activity (Flightaware)

Listeners: 0 out of 750 total

Pegasus Dispatch: 131.750

LUKK ACC #1 (Archives)
Chisinau, Moldova

Feed Status: UP
Listen in your browser - HTML5 player(in browser, HTML5)
Click here to listen with your own player(launches your MP3 player)

LUKK 190930Z 29010KT 250V330 CAVOK 18/00 Q1022 R26/CLRD// NOSIG

LUKK Flight Activity (Flightaware)

Listeners: 0 out of 750 total

Chisinau ACC: 130.975

Runway 08 Blog

LUKK ACC #2 (Archives)
Chisinau, Moldova

Feed Status: UP
Listen in your browser - HTML5 player(in browser, HTML5)
Click here to listen with your own player(launches your MP3 player)

LUKK 190930Z 29010KT 250V330 CAVOK 18/00 Q1022 R26/CLRD// NOSIG

LUKK Flight Activity (Flightaware)

Listeners: 0 out of 750 total

Chisinau ACC: 128.975

Runway 08 Blog

LUKK Air to Air (Archives)
Chisinau, Moldova

Feed Status: UP
Listen in your browser - HTML5 player(in browser, HTML5)
Click here to listen with your own player(launches your MP3 player)

LUKK 190930Z 29010KT 250V330 CAVOK 18/00 Q1022 R26/CLRD// NOSIG

LUKK Flight Activity (Flightaware)

Listeners: 0 out of 750 total

Chisinau Air to Air: 123.450

Runway 08 Blog

LUKK Alternate (Archives)
Chisinau, Moldova

Feed Status: UP
Listen in your browser - HTML5 player(in browser, HTML5)
Click here to listen with your own player(launches your MP3 player)

LUKK 190930Z 29010KT 250V330 CAVOK 18/00 Q1022 R26/CLRD// NOSIG

LUKK Flight Activity (Flightaware)

Listeners: 0 out of 750 total

Chisinau Alternate: 129.725

LUKK Approach #1
Chisinau, Moldova

Feed Status: DOWN
Offline since: 2019-07-30 07:59:39 UTC

LUKK 190930Z 29010KT 250V330 CAVOK 18/00 Q1022 R26/CLRD// NOSIG

Chisinau Approach: 133.300

LUKK Approach #2 (Archives)
Chisinau, Moldova

Feed Status: UP
Listen in your browser - HTML5 player(in browser, HTML5)
Click here to listen with your own player(launches your MP3 player)

LUKK 190930Z 29010KT 250V330 CAVOK 18/00 Q1022 R26/CLRD// NOSIG

LUKK Flight Activity (Flightaware)

Listeners: 0 out of 750 total

Chisinau Approach: 133.300

Runway 08 Blog

LUKK Emergency/Guard (Archives)
Chisinau, Moldova

Feed Status: UP
Listen in your browser - HTML5 player(in browser, HTML5)
Click here to listen with your own player(launches your MP3 player)

LUKK 190930Z 29010KT 250V330 CAVOK 18/00 Q1022 R26/CLRD// NOSIG

LUKK Flight Activity (Flightaware)

Listeners: 0 out of 750 total

Emergency/Guard: 121.500

Runway 08 Blog

LUKK Ground #1 (Archives)
Chisinau, Moldova

Feed Status: UP
Listen in your browser - HTML5 player(in browser, HTML5)
Click here to listen with your own player(launches your MP3 player)

LUKK 190930Z 29010KT 250V330 CAVOK 18/00 Q1022 R26/CLRD// NOSIG

LUKK Flight Activity (Flightaware)

Listeners: 0 out of 750 total

Chisinau Ground: 121.800

LUKK Ground #2 (Archives)
Chisinau, Moldova

Feed Status: UP
Listen in your browser - HTML5 player(in browser, HTML5)
Click here to listen with your own player(launches your MP3 player)

LUKK 190930Z 29010KT 250V330 CAVOK 18/00 Q1022 R26/CLRD// NOSIG

LUKK Flight Activity (Flightaware)

Listeners: 0 out of 750 total

Chisinau Ground: 121.800

Runway 08 Blog

LUKK Handling (Archives)
Chisinau, Moldova

Feed Status: UP
Listen in your browser - HTML5 player(in browser, HTML5)
Click here to listen with your own player(launches your MP3 player)

LUKK 190930Z 29010KT 250V330 CAVOK 18/00 Q1022 R26/CLRD// NOSIG

LUKK Flight Activity (Flightaware)

Listeners: 0 out of 750 total

Chisinau Handling: 131.700

Runway 08 Blog

LUKK Tower #2 (Archives)
Chisinau, Moldova

Feed Status: UP
Listen in your browser - HTML5 player(in browser, HTML5)
Click here to listen with your own player(launches your MP3 player)

LUKK 190930Z 29010KT 250V330 CAVOK 18/00 Q1022 R26/CLRD// NOSIG

LUKK Flight Activity (Flightaware)

Listeners: 0 out of 750 total

Chisinau Tower: 118.100

Runway 08 Blog

LWSK ACC (Lower) (Archives)
Petrovec, Macedonia, Republic of

Feed Status: UP
Listen in your browser - HTML5 player(in browser, HTML5)
Click here to listen with your own player(launches your MP3 player)

LWSK 190930Z 02008KT 360V060 9999 FEW050 SCT080 19/04 Q1021 NOSIG

LWSK Flight Activity (Flightaware)

Listeners: 0 out of 750 total

Skopje Control (Lower): 119.375

LWSK ACC (Upper) (Archives)
Petrovec, Macedonia, Republic of

Feed Status: UP
Listen in your browser - HTML5 player(in browser, HTML5)
Click here to listen with your own player(launches your MP3 player)

LWSK 190930Z 02008KT 360V060 9999 FEW050 SCT080 19/04 Q1021 NOSIG

LWSK Flight Activity (Flightaware)

Listeners: 0 out of 750 total

Skopje Control (Upper): 120.015

LWSK Approach (Archives)
Petrovec, Macedonia, Republic of

Feed Status: UP
Listen in your browser - HTML5 player(in browser, HTML5)
Click here to listen with your own player(launches your MP3 player)

LWSK 190930Z 02008KT 360V060 9999 FEW050 SCT080 19/04 Q1021 NOSIG

LWSK Flight Activity (Flightaware)

Listeners: 0 out of 750 total

Skopje Approach/Departure: 120.300

LWSK ATIS (Archives)
Petrovec, Macedonia, Republic of

Feed Status: UP
Listen in your browser - HTML5 player(in browser, HTML5)
Click here to listen with your own player(launches your MP3 player)

LWSK 190930Z 02008KT 360V060 9999 FEW050 SCT080 19/04 Q1021 NOSIG

LWSK Flight Activity (Flightaware)

Listeners: 0 out of 750 total

Skopje ATIS: 130.125

LWSK Tower (Archives)
Petrovec, Macedonia, Republic of

Feed Status: UP
Listen in your browser - HTML5 player(in browser, HTML5)
Click here to listen with your own player(launches your MP3 player)

LWSK 190930Z 02008KT 360V060 9999 FEW050 SCT080 19/04 Q1021 NOSIG

LWSK Flight Activity (Flightaware)

Listeners: 0 out of 750 total

Skopje Tower: 118.500

LZKZ Gnd/Twr/App (Archives)
Kosice, Slovakia

Feed Status: UP
Listen in your browser - HTML5 player(in browser, HTML5)
Click here to listen with your own player(launches your MP3 player)

LZKZ 190900Z 06004KT 350V130 9999 FEW035 13/04 Q1024 NOSIG

LZKZ Flight Activity (Flightaware)

Listeners: 2 out of 750 total

Kosice Approach: 119.850
Kosice Ground: 121.700
Kosice Handling: 131.850
Kosice Tower: 120.400

LZNI CTAF (Archives)
Nitra, Slovakia

Feed Status: UP
Listen in your browser - HTML5 player(in browser, HTML5)
Click here to listen with your own player(launches your MP3 player)

LZNI Flight Activity (Flightaware)

Listeners: 0 out of 750 total

Nitra Traffic Radio: 123.405

LZPE CTAF/UNICOM (Archives)
Prievidza, Slovakia

Feed Status: UP
Listen in your browser - HTML5 player(in browser, HTML5)
Click here to listen with your own player(launches your MP3 player)

LZPE Flight Activity (Flightaware)

Listeners: 0 out of 750 total

Prievidza CTAF/UNICOM: 123.055

LZPP Ground/Tower (Archives)
Piestany, Slovakia

Feed Status: UP
Listen in your browser - HTML5 player(in browser, HTML5)
Click here to listen with your own player(launches your MP3 player)

LZPP 190900Z 33006KT 300V360 9999 SCT030 14/05 Q1025

LZPP Flight Activity (Flightaware)

Listeners: 0 out of 750 total

Piestany Ground: 121.700
Piestany Tower: 118.575

LZPT CTAF (Archives)
Partizanske, Slovakia

Feed Status: UP
Listen in your browser - HTML5 player(in browser, HTML5)
Click here to listen with your own player(launches your MP3 player)

LZPT Flight Activity (Flightaware)

Listeners: 0 out of 750 total

Male Bielice CTAF: 123.500

MGGT Gnd/Twr (Archives)
Guatemala City, Guatemala

Feed Status: UP
Listen in your browser - HTML5 player(in browser, HTML5)
Click here to listen with your own player(launches your MP3 player)

MGGT 190900Z 36010KT 9999 FEW015 SCT200 17/16 Q1024 A3024 CB/LTNG/DIST/SE

MGGT Flight Activity (Flightaware)

Listeners: 0 out of 750 total

Guatemala City Ground: 121.900
Guatemala City Tower: 118.100

MGGT Ground (Archives)
Guatemala City, Guatemala

Feed Status: UP
Listen in your browser - HTML5 player(in browser, HTML5)
Click here to listen with your own player(launches your MP3 player)

MGGT 190900Z 36010KT 9999 FEW015 SCT200 17/16 Q1024 A3024 CB/LTNG/DIST/SE

MGGT Flight Activity (Flightaware)

Listeners: 0 out of 750 total

Guatemala City Ground: 121.900

MGGT Tower (Archives)
Guatemala City, Guatemala

Feed Status: UP
Listen in your browser - HTML5 player(in browser, HTML5)
Click here to listen with your own player(launches your MP3 player)

MGGT 190900Z 36010KT 9999 FEW015 SCT200 17/16 Q1024 A3024 CB/LTNG/DIST/SE

MGGT Flight Activity (Flightaware)

Listeners: 0 out of 750 total

Guatemala City Tower: 118.100

MHLC Gnd/Twr/Center (Archives)
La Ceiba, Honduras

Feed Status: UP
Listen in your browser - HTML5 player(in browser, HTML5)
Click here to listen with your own player(launches your MP3 player)

MHLC 190600Z 13002KT 9999 FEW026 24/22 Q1012 A2989 NOSIG

MHLC Flight Activity (Flightaware)

Listeners: 0 out of 750 total

CENAMER: 123.900
CENAMER: 124.300
Goloson Ground: 121.900
Goloson Tower: 118.500
La Ceiba Radio: 128.900

MHRO Gnd/Twr/App/Center (Archives)
Roatan, Honduras

Feed Status: UP
Listen in your browser - HTML5 player(in browser, HTML5)
Click here to listen with your own player(launches your MP3 player)

MHRO 190600Z 33002KT 9999 FEW020 28/27 Q1012 A2989 NOSIG

MHRO Flight Activity (Flightaware)

Listeners: 0 out of 750 total

CENAMER (Center): 124.300
La Ceiba Radio: 128.900
Roatan Ground: 121.600
Roatan Tower: 118.100

MHTG ATIS (Archives)
Tegucigalpa, Honduras

Feed Status: UP
Listen in your browser - HTML5 player(in browser, HTML5)
Click here to listen with your own player(launches your MP3 player)

MHTG 190900Z 00000KT 8000 VCSH FEW020 BKN024 20/18 Q1019 A3009 NOSIG

MHTG Flight Activity (Flightaware)

Listeners: 0 out of 750 total

Toncontin ATIS: 127.750

MHTG Gnd/Twr/App/Ctr/Ops (Archives)
Tegucigalpa, Honduras

Feed Status: UP
Listen in your browser - HTML5 player(in browser, HTML5)
Click here to listen with your own player(launches your MP3 player)

MHTG 190900Z 00000KT 8000 VCSH FEW020 BKN024 20/18 Q1019 A3009 NOSIG

MHTG Flight Activity (Flightaware)

Listeners: 0 out of 750 total

American Airlines Ops: 130.700
ARINC ACARS: 131.550
Cenamer Center: 123.900
Cenamer Center: 124.300
Cenamer Center: 124.100
CMP Ops: 129.925
Continental Airlines Ops: 129.925
FAH Ground: 122.900
Taca Ops: 131.300
Taca Ops Sal: 130.300
Tecnologias Unidas: 133.000
Tegucigalpa RDO: 126.700
Toncontin Approach: 119.100
Toncontin Ground: 121.900
Toncontin Tower: 118.700

MMAN Tower (Archives)
Monterrey, Mexico

Feed Status: UP
Listen in your browser - HTML5 player(in browser, HTML5)
Click here to listen with your own player(launches your MP3 player)

MMAN 190440Z 12006KT 6SM SKC 26/23 A2995 RMK HZY

MMAN Flight Activity (Flightaware)

Listeners: 0 out of 750 total

Monterrey Tower: 118.600

MMCU Twr/App (Archives)
Chihuahua, Mexico

Feed Status: UP
Listen in your browser - HTML5 player(in browser, HTML5)
Click here to listen with your own player(launches your MP3 player)

MMCU 190240Z 06004KT 10SM SCT030 BKN080 BKN200 23/15 A3012 RMK SLP076 52014 904 8/463 VC CB

MMCU Flight Activity (Flightaware)

Listeners: 0 out of 750 total

Chihuahua Approach: 121.000
Chihuahua Tower: 118.400

MMGL Twr/App (Archives)
Guadalajara, Mexico

Feed Status: UP
Listen in your browser - HTML5 player(in browser, HTML5)
Click here to listen with your own player(launches your MP3 player)

MMGL 190845Z 12007KT 10SM BKN100 OVC300 19/14 A3014 RMK SLP080 57008 956 8/077

MMGL Flight Activity (Flightaware)

Listeners: 0 out of 750 total

Guadalajara Approach: 120.800
Guadalajara Tower: 118.100

MMHO App/Dep (Archives)
Hermosillo, Mexico

Feed Status: UP
Listen in your browser - HTML5 player(in browser, HTML5)
Click here to listen with your own player(launches your MP3 player)

MMHO 190840Z 33003KT 10SM SKC 27/25 A2985 RMK SLP099 52001 958 HZY

MMHO Flight Activity (Flightaware)

Listeners: 0 out of 750 total

Hermosillo Approach/Departure: 121.400

MMHO Tower (Archives)
Hermosillo, Mexico

Feed Status: UP
Listen in your browser - HTML5 player(in browser, HTML5)
Click here to listen with your own player(launches your MP3 player)

MMHO 190840Z 33003KT 10SM SKC 27/25 A2985 RMK SLP099 52001 958 HZY

MMHO Flight Activity (Flightaware)

Listeners: 0 out of 750 total

Hermosillo Tower: 118.700

MMLP Twr/App/Center (Archives)
La Paz, Mexico

Feed Status: UP
Listen in your browser - HTML5 player(in browser, HTML5)
Click here to listen with your own player(launches your MP3 player)

MMLP 190440Z 16007KT 10SM SKC 28/18 A2985 RMK ISOL CI

MMLP Flight Activity (Flightaware)

Listeners: 0 out of 750 total

La Paz Approach: 120.600
La Paz Tower: 118.100
Mazatlan Center: 128.000
Mazatlan Center: 124.400
Mazatlan Center: 128.300
Mazatlan Center: 124.200
Mazatlan Center: 126.300
Mazatlan Center: 126.500
San Jose Approach: 120.900

MMMD Tower/Approach (Archives)
Merida, Mexico

Feed Status: UP
Listen in your browser - HTML5 player(in browser, HTML5)
Click here to listen with your own player(launches your MP3 player)

MMMD 190845Z 00000KT 7SM SKC 26/25 A2989 RMK SLP126 57011 963 CI

MMMD Flight Activity (Flightaware)

Listeners: 0 out of 750 total

Merida Approach: 121.200
Merida Tower: 118.300

MMMM Tower (Archives)
Morelia, Mexico

Feed Status: UP
Listen in your browser - HTML5 player(in browser, HTML5)
Click here to listen with your own player(launches your MP3 player)

MMMM 190851Z 20003KT 7SM BKN025 BKN080 OVC200 15/15 A3022 RMK SLP099 57009 901 8/577 HZY

MMMM Flight Activity (Flightaware)

Listeners: 0 out of 750 total

Morelia Tower: 118.500

MMMX Approach (Archives)
Mexico City, Mexico

Feed Status: UP
Listen in your browser - HTML5 player(in browser, HTML5)
Click here to listen with your own player(launches your MP3 player)

MMMX 190846Z 06005KT 8SM SCT020 SCT080 BKN220 15/14 A3032 NOSIG RMK SLP096 57008 905 8/538 HZY

MMMX Flight Activity (Flightaware)

Listeners: 1 out of 750 total

Mexico City Approach: 121.200

MMMX Twr/App (Archives)
Mexico City, Mexico

Feed Status: UP
Listen in your browser - HTML5 player(in browser, HTML5)
Click here to listen with your own player(launches your MP3 player)

MMMX 190846Z 06005KT 8SM SCT020 SCT080 BKN220 15/14 A3032 NOSIG RMK SLP096 57008 905 8/538 HZY

MMMX Flight Activity (Flightaware)

Listeners: 4 out of 750 total

Mexico City Approach: 121.200
Mexico City Final Approach: 119.750
Mexico City Helicopters: 118.150
Mexico City Terminal: 129.600
Mexico City Tower: 118.550

MMMY Tower/Approach (Archives)
Monterrey, Mexico

Feed Status: UP
Listen in your browser - HTML5 player(in browser, HTML5)
Click here to listen with your own player(launches your MP3 player)

MMMY 190843Z 08004KT 10SM SKC 24/23 A2986 RMK SLP/// 5//// 9//

MMMY Flight Activity (Flightaware)

Listeners: 1 out of 750 total

Monterrey Approach/Departure: 119.750
Monterrey Tower: 118.100

MMQT Tower/App (Archives)
Queretaro, Mexico

Feed Status: UP
Listen in your browser - HTML5 player(in browser, HTML5)
Click here to listen with your own player(launches your MP3 player)

MMQT 190845Z 00000KT 6SM SCT020 BKN100 16/15 A3028 RMK 8/460

MMQT Flight Activity (Flightaware)

Listeners: 0 out of 750 total

Queretaro Approach: 127.200
Queretaro Tower: 118.950

MMSP Gnd/Twr/App/Center (Archives)
San Luis Potosi, Mexico

Feed Status: UP
Listen in your browser - HTML5 player(in browser, HTML5)
Click here to listen with your own player(launches your MP3 player)

MMSP 190844Z 15004KT 8SM FEW025 16/14 A3021 RMK SLP089 57011 961 8/500 CI

MMSP Flight Activity (Flightaware)

Listeners: 0 out of 750 total

AMX Ground Ops: 131.000
Mexico Center (North, Sector 6): 126.000
Mexico Center (Northwest, Sector 7): 123.900
Mexico Center (West, Sector 5): 125.100
Potosi Approach: 127.500
Potosi Tower: 118.900
TAO Ground Ops: 133.600

MMTC Twr/App/Center (Archives)
Torreon, Mexico

Feed Status: UP
Listen in your browser - HTML5 player(in browser, HTML5)
Click here to listen with your own player(launches your MP3 player)

MMTC 190341Z 00000KT 10SM FEW100 30/13 A2998 RMK 8/030

MMTC Flight Activity (Flightaware)

Listeners: 0 out of 750 total

Mazatlan Center: 124.200
Mazatlan Center: 124.400
Mazatlan Center: 128.000
Mexico Center: 123.900
Monterrey Center: 125.600
Monterrey Center: 125.425
Monterrey Center: 127.400
Torreon Approach: 119.500
Torreon Tower: 118.500

MMTJ Approach (Archives)
Tijuana, Mexico

Feed Status: UP
Listen in your browser - HTML5 player(in browser, HTML5)
Click here to listen with your own player(launches your MP3 player)

MMTJ 190841Z 00000KT 6SM SKC 15/14 A2993 RMK SLP140 52002 952 HZY ST W

MMTJ Flight Activity (Flightaware)

Listeners: 0 out of 750 total

Tijuana Approach: 120.300

MMTJ Twr/Ramp (Archives)
Tijuana, Mexico

Feed Status: UP
Listen in your browser - HTML5 player(in browser, HTML5)
Click here to listen with your own player(launches your MP3 player)

MMTJ 190841Z 00000KT 6SM SKC 15/14 A2993 RMK SLP140 52002 952 HZY ST W

MMTJ Flight Activity (Flightaware)

Listeners: 0 out of 750 total

Tijuana Ramp: 126.100
Tijuana Tower: 118.100

MROC Del/Gnd/Twr (Archives)
San Jose, Costa Rica

Feed Status: UP
Listen in your browser - HTML5 player(in browser, HTML5)
Click here to listen with your own player(launches your MP3 player)

MROC 190900Z VRB02KT CAVOK 18/17 A2997 NOSIG

MROC Flight Activity (Flightaware)

Listeners: 0 out of 750 total

Coco Clearance Delivery/Ground: 121.900
Coco Tower: 118.600

MROC Del/Gnd/Twr/App/Center/Misc (Archives)
San Jose, Costa Rica

Feed Status: UP
Listen in your browser - HTML5 player(in browser, HTML5)
Click here to listen with your own player(launches your MP3 player)

MROC 190900Z VRB02KT CAVOK 18/17 A2997 NOSIG

MROC Flight Activity (Flightaware)

Listeners: 2 out of 750 total

Central American Center (CENAMER Control): 124.100
Coco Center (Control over CR Airspace): 119.600
Coco Clearance Delivery: 121.300
Coco Ground: 121.900
Coco Terminal Control: 120.500
Coco Tower: 118.600
Coco UNICOM: 126.800
SYQ Ground: 121.700
SYQ Tower: 118.300

MSLP Gnd/Twr/App (Archives)
San Salvador, El Salvador

Feed Status: UP
Listen in your browser - HTML5 player(in browser, HTML5)
Click here to listen with your own player(launches your MP3 player)

MSLP 190850Z VRB01KT CAVOK 24/23 Q1009 A2981 NOSIG

MSLP Flight Activity (Flightaware)

Listeners: 0 out of 750 total

Comalapa Ground: 121.700
Comalapa Tower: 118.000
Compalapa Approach: 119.900

MSLP Gnd/Twr/App/Center (Archives)
San Salvador, El Salvador

Feed Status: UP
Listen in your browser - HTML5 player(in browser, HTML5)
Click here to listen with your own player(launches your MP3 player)

MSLP 190850Z VRB01KT CAVOK 24/23 Q1009 A2981 NOSIG

MSLP Flight Activity (Flightaware)

Listeners: 0 out of 750 total

Avianca Ops: 123.500
CCA: 119.300
CENAMER: 124.100
Comalapa Authorizations: 121.250
Comalapa Departure: 123.900
Comalapa Ground: 121.700
Comalapa Tower: 118.000
Compalapa Approach: 119.900
Ilopango Tower: 118.300
TACA Ops: 130.500

MSSS Tower (Archives)
San Salvador, El Salvador

Feed Status: UP
Listen in your browser - HTML5 player(in browser, HTML5)
Click here to listen with your own player(launches your MP3 player)

MSSS 190550Z 00000KT 9999 BKN23 FEW040CB 23/22 Q1014 A2997 RMK CB S DSTN CB LTGIC SE

MSSS Flight Activity (Flightaware)

Listeners: 0 out of 750 total

Ilopango Tower: 118.300

MUFH Havana FIR (App/Center) (Archives)
Havana, Cuba

Feed Status: UP
Listen in your browser - HTML5 player(in browser, HTML5)
Click here to listen with your own player(launches your MP3 player)

MUFH Flight Activity (Flightaware)

Listeners: 0 out of 750 total

Hava Approach: 120.300
Havana Center: 120.250
Havana Center: 123.700
Havana Center: 124.550
Havana Center: 133.700
Havana Center: 135.100

OKBK Gnd/Twr/App/Radar (Archives)
Kuwait City, Kuwait

Feed Status: UP
Listen in your browser - HTML5 player(in browser, HTML5)
Click here to listen with your own player(launches your MP3 player)

OKBK 190900Z 01017KT 7000 -BLDU SKC 43/01 Q1008 NOSIG


Listeners: 5 out of 750 total

Kuwait Approach: 121.300
Kuwait Approach: 124.800
Kuwait Ground: 121.700
Kuwait Radar (Center): 125.300
Kuwait Tower: 118.300

OPKC Gnd/Twr/Radar (Archives)
Karachi, Pakistan

Feed Status: UP
Listen in your browser - HTML5 player(in browser, HTML5)
Click here to listen with your own player(launches your MP3 player)

OPKC 190925Z 29009KT 7000 NSC 36/19 Q1007 NOSIG


Listeners: 1 out of 750 total

Karachi Ground: 121.600
Karachi Radar: 125.500
Karachi Tower: 118.300

OPLA ATIS (Archives)
Lahore, Pakistan

Feed Status: UP
Listen in your browser - HTML5 player(in browser, HTML5)
Click here to listen with your own player(launches your MP3 player)

OPLA 190929Z 14012KT 4000 FU SCT040 SCT100 32/24 Q1011 RMK A29.86


Listeners: 0 out of 750 total

Lahore ATIS: 126.300

OPLA/OPLH Gnd/Twr/App (Archives)
Lahore, Pakistan

Feed Status: UP
Listen in your browser - HTML5 player(in browser, HTML5)
Click here to listen with your own player(launches your MP3 player)

OPLA 190929Z 14012KT 4000 FU SCT040 SCT100 32/24 Q1011 RMK A29.86


Listeners: 2 out of 750 total

Lahore Approach: 121.300
Lahore Approach: 125.300
Lahore Control: 127.500
Lahore Ground: 118.400
Lahore Tower: 118.100
Lahore Tower: 121.800
Walton (OPLH) Tower: 119.400

OPLA/OPLH Gnd/Twr/App (Archives)
Lahore, Pakistan

Feed Status: UP
Listen in your browser - HTML5 player(in browser, HTML5)
Click here to listen with your own player(launches your MP3 player)

OPLA 190929Z 14012KT 4000 FU SCT040 SCT100 32/24 Q1011 RMK A29.86


Listeners: 2 out of 750 total

Lahore Approach: 121.300
Lahore Approach: 125.300
Lahore Control: 127.500
Lahore Ground: 118.400
Lahore Tower: 118.100
Lahore Tower: 121.800
Walton (OPLH) Tower: 119.400

RCTP Approach (Archives)
Taipei, Taiwan

Feed Status: UP
Listen in your browser - HTML5 player(in browser, HTML5)
Click here to listen with your own player(launches your MP3 player)

RCTP 190925Z 04018KT 9999 FEW015 SCT030 BKN060 25/19 Q1011 WS R05R NOSIG RMK A2986

RCTP Flight Activity (Flightaware)

Listeners: 2 out of 750 total

Emergency/Guard: 121.500
Taipei Approach: 125.100
Taipei Approach: 125.600
Taipei Approach: 128.500

RCTP Tower (Archives)
Taipei, Taiwan

Feed Status: UP
Listen in your browser - HTML5 player(in browser, HTML5)
Click here to listen with your own player(launches your MP3 player)

RCTP 190925Z 04018KT 9999 FEW015 SCT030 BKN060 25/19 Q1011 WS R05R NOSIG RMK A2986

RCTP Flight Activity (Flightaware)

Listeners: 1 out of 750 total

Taipei Tower: 118.700

RJAA Approach (Archives)
Tokyo, Japan

Feed Status: UP
Listen in your browser - HTML5 player(in browser, HTML5)
Click here to listen with your own player(launches your MP3 player)

RJAA 190900Z 11005KT 9999 FEW030 BKN/// 20/16 Q1014 NOSIG RMK 1CU030 A2995

RJAA Flight Activity (Flightaware)

Listeners: 11 out of 750 total

Tokyo Approach: 124.400
Tokyo Approach: 127.700

RJAA Clearance Delivery (Archives)
Tokyo, Japan

Feed Status: UP
Listen in your browser - HTML5 player(in browser, HTML5)
Click here to listen with your own player(launches your MP3 player)

RJAA 190900Z 11005KT 9999 FEW030 BKN/// 20/16 Q1014 NOSIG RMK 1CU030 A2995

RJAA Flight Activity (Flightaware)

Listeners: 0 out of 750 total

Narita Clearance Delivery (Asia/Pacific): 121.650
Narita Clearance Delivery (US/Europe): 121.900

RJAA Clearance Delivery #1 (Archives)
Tokyo, Japan

Feed Status: UP
Listen in your browser - HTML5 player(in browser, HTML5)
Click here to listen with your own player(launches your MP3 player)

RJAA 190900Z 11005KT 9999 FEW030 BKN/// 20/16 Q1014 NOSIG RMK 1CU030 A2995

RJAA Flight Activity (Flightaware)

Listeners: 0 out of 750 total

Narita Clearance Delivery (Asia/Pacific): 121.650

RJAA Clearance Delivery #2 (Archives)
Tokyo, Japan

Feed Status: UP
Listen in your browser - HTML5 player(in browser, HTML5)
Click here to listen with your own player(launches your MP3 player)

RJAA 190900Z 11005KT 9999 FEW030 BKN/// 20/16 Q1014 NOSIG RMK 1CU030 A2995

RJAA Flight Activity (Flightaware)

Listeners: 1 out of 750 total

Narita Clearance Delivery (US/Europe): 121.900

RJAA Company Channels (Archives)
Tokyo, Japan

Feed Status: UP
Listen in your browser - HTML5 player(in browser, HTML5)
Click here to listen with your own player(launches your MP3 player)

RJAA 190900Z 11005KT 9999 FEW030 BKN/// 20/16 Q1014 NOSIG RMK 1CU030 A2995

RJAA Flight Activity (Flightaware)

Listeners: 3 out of 750 total

Ops: 130.450
Ops: 130.550
Ops: 130.900
Ops: 131.025
Ops: 131.100
Ops: 131.200
Ops: 131.700
Ops: 131.750

RJAA Departure (Archives)
Tokyo, Japan

Feed Status: UP
Listen in your browser - HTML5 player(in browser, HTML5)
Click here to listen with your own player(launches your MP3 player)

RJAA 190900Z 11005KT 9999 FEW030 BKN/// 20/16 Q1014 NOSIG RMK 1CU030 A2995

RJAA Flight Activity (Flightaware)

Listeners: 0 out of 750 total

Tokyo Departure: 119.600
Tokyo Departure: 124.200

RJAA Departure #1 (Archives)
Tokyo, Japan

Feed Status: UP
Listen in your browser - HTML5 player(in browser, HTML5)
Click here to listen with your own player(launches your MP3 player)

RJAA 190900Z 11005KT 9999 FEW030 BKN/// 20/16 Q1014 NOSIG RMK 1CU030 A2995

RJAA Flight Activity (Flightaware)

Listeners: 0 out of 750 total

Tokyo Departure: 124.200

RJAA Departure #2 (Archives)
Tokyo, Japan

Feed Status: UP
Listen in your browser - HTML5 player(in browser, HTML5)
Click here to listen with your own player(launches your MP3 player)

RJAA 190900Z 11005KT 9999 FEW030 BKN/// 20/16 Q1014 NOSIG RMK 1CU030 A2995

RJAA Flight Activity (Flightaware)

Listeners: 0 out of 750 total

Tokyo Departure: 119.600

RJAA Emergency/Guard (Archives)
Tokyo, Japan

Feed Status: UP
Listen in your browser - HTML5 player(in browser, HTML5)
Click here to listen with your own player(launches your MP3 player)

RJAA 190900Z 11005KT 9999 FEW030 BKN/// 20/16 Q1014 NOSIG RMK 1CU030 A2995

RJAA Flight Activity (Flightaware)

Listeners: 0 out of 750 total

Emergency/Guard: 121.500

RJAA Ground #1 (Archives)
Tokyo, Japan

Feed Status: UP
Listen in your browser - HTML5 player(in browser, HTML5)
Click here to listen with your own player(launches your MP3 player)

RJAA 190900Z 11005KT 9999 FEW030 BKN/// 20/16 Q1014 NOSIG RMK 1CU030 A2995

RJAA Flight Activity (Flightaware)

Listeners: 2 out of 750 total

Narita Ground: 121.850

RJAA Ground #2 (Archives)
Tokyo, Japan

Feed Status: UP
Listen in your browser - HTML5 player(in browser, HTML5)
Click here to listen with your own player(launches your MP3 player)

RJAA 190900Z 11005KT 9999 FEW030 BKN/// 20/16 Q1014 NOSIG RMK 1CU030 A2995

RJAA Flight Activity (Flightaware)

Listeners: 2 out of 750 total

Narita Ground: 121.950

RJAA Radar (Archives)
Tokyo, Japan

Feed Status: UP
Listen in your browser - HTML5 player(in browser, HTML5)
Click here to listen with your own player(launches your MP3 player)

RJAA 190900Z 11005KT 9999 FEW030 BKN/// 20/16 Q1014 NOSIG RMK 1CU030 A2995

RJAA Flight Activity (Flightaware)

Listeners: 2 out of 750 total

Tokyo Radar: 120.200

RJAA Ramp #1 (Archives)
Tokyo, Japan

Feed Status: UP
Listen in your browser - HTML5 player(in browser, HTML5)
Click here to listen with your own player(launches your MP3 player)

RJAA 190900Z 11005KT 9999 FEW030 BKN/// 20/16 Q1014 NOSIG RMK 1CU030 A2995

RJAA Flight Activity (Flightaware)

Listeners: 0 out of 750 total

Narita Ramp: 121.600

RJAA Ramp #2 (Archives)
Tokyo, Japan

Feed Status: UP
Listen in your browser - HTML5 player(in browser, HTML5)
Click here to listen with your own player(launches your MP3 player)

RJAA 190900Z 11005KT 9999 FEW030 BKN/// 20/16 Q1014 NOSIG RMK 1CU030 A2995

RJAA Flight Activity (Flightaware)

Listeners: 0 out of 750 total

Narita Ramp: 121.750

RJAA TCA (Archives)
Tokyo, Japan

Feed Status: UP
Listen in your browser - HTML5 player(in browser, HTML5)
Click here to listen with your own player(launches your MP3 player)

RJAA 190900Z 11005KT 9999 FEW030 BKN/// 20/16 Q1014 NOSIG RMK 1CU030 A2995

RJAA Flight Activity (Flightaware)

Listeners: 0 out of 750 total

Tokyo TCA (Terminal Control Area): 119.450

RJAA Tokyo Control (Archives)
Tokyo, Japan

Feed Status: UP
Listen in your browser - HTML5 player(in browser, HTML5)
Click here to listen with your own player(launches your MP3 player)

RJAA 190900Z 11005KT 9999 FEW030 BKN/// 20/16 Q1014 NOSIG RMK 1CU030 A2995

RJAA Flight Activity (Flightaware)

Listeners: 0 out of 750 total

Tokyo Control: 125.900

RJAA Tower #1 (Archives)
Tokyo, Japan

Feed Status: UP
Listen in your browser - HTML5 player(in browser, HTML5)
Click here to listen with your own player(launches your MP3 player)

RJAA 190900Z 11005KT 9999 FEW030 BKN/// 20/16 Q1014 NOSIG RMK 1CU030 A2995

RJAA Flight Activity (Flightaware)

Listeners: 7 out of 750 total

Narita Tower (Rwy 16R/34L): 118.200

RJAA Tower #2 (Archives)
Tokyo, Japan

Feed Status: UP
Listen in your browser - HTML5 player(in browser, HTML5)
Click here to listen with your own player(launches your MP3 player)

RJAA 190900Z 11005KT 9999 FEW030 BKN/// 20/16 Q1014 NOSIG RMK 1CU030 A2995

RJAA Flight Activity (Flightaware)

Listeners: 3 out of 750 total

Narita Tower (Rwy 16L/34R): 118.350

RJOO Tower (Archives)
Osaka, Japan

Feed Status: UP
Listen in your browser - HTML5 player(in browser, HTML5)
Click here to listen with your own player(launches your MP3 player)

RJOO 190900Z 34013KT 9999 FEW040 SCT/// 23/12 Q1014

RJOO Flight Activity (Flightaware)

Listeners: 7 out of 750 total

Osaka Tower: 118.100

RJSF RDO (Archives)
Sukagawa, Japan

Feed Status: UP
Listen in your browser - HTML5 player(in browser, HTML5)
Click here to listen with your own player(launches your MP3 player)

RJSF 190900Z 36011KT 9999 FEW030 SCT/// 16/10 Q1016

RJSF Flight Activity (Flightaware)

Listeners: 4 out of 750 total

Fukushima Radio: 118.050

RJTT App/Dep (Archives)
Tokyo, Japan

Feed Status: UP
Listen in your browser - HTML5 player(in browser, HTML5)
Click here to listen with your own player(launches your MP3 player)

RJTT 190900Z 12012KT 9999 FEW025 SCT/// 23/18 Q1013 NOSIG RMK 1CU025 A2993

RJTT Flight Activity (Flightaware)

Listeners: 10 out of 750 total

Tokyo Approach: 119.100
Tokyo Approach: 119.400
Tokyo Departure: 120.800
Tokyo Departure: 126.000

RJTT Approach (Archives)
Tokyo, Japan

Feed Status: UP
Listen in your browser - HTML5 player(in browser, HTML5)
Click here to listen with your own player(launches your MP3 player)

RJTT 190900Z 12012KT 9999 FEW025 SCT/// 23/18 Q1013 NOSIG RMK 1CU025 A2993

RJTT Flight Activity (Flightaware)

Listeners: 14 out of 750 total

Tokyo Approach: 119.100
Tokyo Approach: 119.400

RJTT ATIS (Archives)
Tokyo, Japan

Feed Status: UP
Listen in your browser - HTML5 player(in browser, HTML5)
Click here to listen with your own player(launches your MP3 player)

RJTT 190900Z 12012KT 9999 FEW025 SCT/// 23/18 Q1013 NOSIG RMK 1CU025 A2993

RJTT Flight Activity (Flightaware)

Listeners: 0 out of 750 total

Tokyo ATIS: 128.800

RJTT Company Channels
Tokyo, Japan

Feed Status: DOWN
Offline since: 2019-09-19 08:44:06 UTC

RJTT 190900Z 12012KT 9999 FEW025 SCT/// 23/18 Q1013 NOSIG RMK 1CU025 A2993

Company TBD: 128.500
Company TBD: 131.850
Company TBD: 129.725
Company TBD: 129.700
Company TBD: 131.900
Company TBD: 129.850
Company TBD: 128.975
Company TBD: 123.675
Company TBD: 132.075

RJTT Del/Ground (Archives)
Tokyo, Japan

Feed Status: UP
Listen in your browser - HTML5 player(in browser, HTML5)
Click here to listen with your own player(launches your MP3 player)

RJTT 190900Z 12012KT 9999 FEW025 SCT/// 23/18 Q1013 NOSIG RMK 1CU025 A2993

RJTT Flight Activity (Flightaware)

Listeners: 0 out of 750 total

Tokyo Clearance Delivery: 121.825
Tokyo Ground: 121.700
Tokyo Ground: 118.225
Tokyo Ground: 121.625
Tokyo Ground: 121.975

RJTT Del/Twr/TCA/Gnd (Archives)
Tokyo, Japan

Feed Status: UP
Listen in your browser - HTML5 player(in browser, HTML5)
Click here to listen with your own player(launches your MP3 player)

RJTT 190900Z 12012KT 9999 FEW025 SCT/// 23/18 Q1013 NOSIG RMK 1CU025 A2993

RJTT Flight Activity (Flightaware)

Listeners: 6 out of 750 total

Tokyo Clearance Delivery: 121.825
Tokyo Ground: 121.975
Tokyo Ground: 121.625
Tokyo Ground: 121.700
Tokyo Ground: 118.225
Tokyo TCA: 124.750
Tokyo Tower: 118.100
Tokyo Tower: 118.575
Tokyo Tower: 118.725
Tokyo Tower: 124.350

RJTT Departure (Archives)
Tokyo, Japan

Feed Status: UP
Listen in your browser - HTML5 player(in browser, HTML5)
Click here to listen with your own player(launches your MP3 player)

RJTT 190900Z 12012KT 9999 FEW025 SCT/// 23/18 Q1013 NOSIG RMK 1CU025 A2993

RJTT Flight Activity (Flightaware)

Listeners: 4 out of 750 total

Tokyo Departure: 120.800
Tokyo Departure: 126.000

RJTT Tokyo Control
Tokyo, Japan

Feed Status: DOWN
Offline since: 2019-09-19 08:44:06 UTC

RJTT 190900Z 12012KT 9999 FEW025 SCT/// 23/18 Q1013 NOSIG RMK 1CU025 A2993

Tokyo Control: 133.700
Tokyo Control: 125.900
Tokyo Control: 120.500

RJTT Twr/TCA (Archives)
Tokyo, Japan

Feed Status: UP
Listen in your browser - HTML5 player(in browser, HTML5)
Click here to listen with your own player(launches your MP3 player)

RJTT 190900Z 12012KT 9999 FEW025 SCT/// 23/18 Q1013 NOSIG RMK 1CU025 A2993

RJTT Flight Activity (Flightaware)

Listeners: 5 out of 750 total

Tokyo TCA: 124.750
Tokyo Tower: 118.100
Tokyo Tower: 118.575
Tokyo Tower: 118.725
Tokyo Tower: 124.350

RJTY Approach (Archives)
Tokyo, Japan

Feed Status: UP
Listen in your browser - HTML5 player(in browser, HTML5)
Click here to listen with your own player(launches your MP3 player)

RJTY 190856Z AUTO 18006KT 10SM OVC050 24/16 A2997 RMK AO2 SLP148 T02380158 53006 FZRANO $

RJTY Flight Activity (Flightaware)

Listeners: 3 out of 750 total

Yokota Approach: 118.300
Yokota APproach: 123.800
Yokota Approach: 120.700

RJTY ATIS (Archives)
Tokyo, Japan

Feed Status: UP
Listen in your browser - HTML5 player(in browser, HTML5)
Click here to listen with your own player(launches your MP3 player)

RJTY 190856Z AUTO 18006KT 10SM OVC050 24/16 A2997 RMK AO2 SLP148 T02380158 53006 FZRANO $

RJTY Flight Activity (Flightaware)

Listeners: 0 out of 750 total

Yokota ATIS: 126.400

RJTY Ground (Archives)
Tokyo, Japan

Feed Status: UP
Listen in your browser - HTML5 player(in browser, HTML5)
Click here to listen with your own player(launches your MP3 player)

RJTY 190856Z AUTO 18006KT 10SM OVC050 24/16 A2997 RMK AO2 SLP148 T02380158 53006 FZRANO $

RJTY Flight Activity (Flightaware)

Listeners: 0 out of 750 total

Yokota Ground: 133.200

RJTY Ground/Tower (Archives)
Tokyo, Japan

Feed Status: UP
Listen in your browser - HTML5 player(in browser, HTML5)
Click here to listen with your own player(launches your MP3 player)

RJTY 190856Z AUTO 18006KT 10SM OVC050 24/16 A2997 RMK AO2 SLP148 T02380158 53006 FZRANO $

RJTY Flight Activity (Flightaware)

Listeners: 3 out of 750 total

Yokota Ground: 133.200
Yokota Tower: 134.300

RJTY Tower (Archives)
Tokyo, Japan

Feed Status: UP
Listen in your browser - HTML5 player(in browser, HTML5)
Click here to listen with your own player(launches your MP3 player)

RJTY 190856Z AUTO 18006KT 10SM OVC050 24/16 A2997 RMK AO2 SLP148 T02380158 53006 FZRANO $

RJTY Flight Activity (Flightaware)

Listeners: 0 out of 750 total

Yokota Tower: 134.300

RKSG Gnd/Twr/App (Archives)
Pyeongtaek, Korea, Republic of

Feed Status: UP
Listen in your browser - HTML5 player(in browser, HTML5)
Click here to listen with your own player(launches your MP3 player)

RKSG 190856Z 32008KT 6SM HZ SCT230 23/14 A3001 RMK AO2A SLP168 T02280135 56005 $

RKSG Flight Activity (Flightaware)

Listeners: 3 out of 750 total

Desiderio Final: 255.800
Desiderio GCA: 226.800
Desiderio GCA: 127.000
Desiderio Ground (Camp Humphreys A-511 AAF): 119.500
Desiderio Ground UHF: 229.700
Desiderio Ops: 294.100
Desiderio Tower (Camp Humphreys A-511 AAF): 122.500
Desiderio Tower UHF: 257.800

RKRR Incheon Control (Archives)
Incheon, Korea, Republic of

Feed Status: UP
Listen in your browser - HTML5 player(in browser, HTML5)
Click here to listen with your own player(launches your MP3 player)

RKSI 190900Z 34008KT CAVOK 22/07 Q1017 NOSIG

RKSI Flight Activity (Flightaware)

Listeners: 2 out of 750 total

Incheon Control North Sector (Primary): 128.700
Incheon Control North Sector (Secondary): 132.800
Incheon Control Northwest Sector (Primary): 126.175
Incheon Control Northwest Sector (Secondary): 123.725

RKSO Gnd/Twr/App (Archives)
Pyeongtaek, Korea, Republic of

Feed Status: UP
Listen in your browser - HTML5 player(in browser, HTML5)
Click here to listen with your own player(launches your MP3 player)

RKSO 190858Z 30006KT 7SM SCT230 BKN260 23/14 A3001 RMK AO2A SLP165 T02250138 55005 $

RKSO Flight Activity (Flightaware)

Listeners: 3 out of 750 total

25 FS Ops: 229.000
36FS Ops: 371.300
Osan Air Base Approach/Departure: 127.900
Osan Air Base Approach/Departure: 133.650
Osan Air Base Ground: 132.450
Osan Air Base Tower: 122.100
Osan App/Dep UHF: 306.600
Osan App/Dep UHF: 234.300
Osan App/Dep UHF (possibly inactive): 306.300
Osan App/Dep UHF (possibly inactive): 363.100
Osan Ground UHF: 253.700
Osan SAR: 282.800
Osan SAR: 381.000
Osan SOF: 299.800
Osan Tower UHF: 308.800
Stallion Ops: 276.200

ROAH Gnd/Twr/App (Archives)
Okinawa, Japan

Feed Status: UP
Listen in your browser - HTML5 player(in browser, HTML5)
Click here to listen with your own player(launches your MP3 player)

RODN 190918Z AUTO 04016KT 10SM BKN010 BKN015 OVC041 27/25 A2956 RMK AO2 RAE07DZB07E08 CIG 010V017 BKN010 V SCT SLP015 $

RODN Flight Activity (Flightaware)

Listeners: 4 out of 750 total


ROAH Naha ACC (Archives)
Okinawa, Japan

Feed Status: UP
Listen in your browser - HTML5 player(in browser, HTML5)
Click here to listen with your own player(launches your MP3 player)

RODN 190918Z AUTO 04016KT 10SM BKN010 BKN015 OVC041 27/25 A2956 RMK AO2 RAE07DZB07E08 CIG 010V017 BKN010 V SCT SLP015 $

RODN Flight Activity (Flightaware)

Listeners: 2 out of 750 total


RODN Gnd/Twr/App (Archives)
Okinawa, Japan

Feed Status: UP
Listen in your browser - HTML5 player(in browser, HTML5)
Click here to listen with your own player(launches your MP3 player)

RODN 190918Z AUTO 04016KT 10SM BKN010 BKN015 OVC041 27/25 A2956 RMK AO2 RAE07DZB07E08 CIG 010V017 BKN010 V SCT SLP015 $

RODN Flight Activity (Flightaware)

Listeners: 3 out of 750 total


ROTM Gnd/Twr (Archives)
Okinawa, Japan

Feed Status: UP
Listen in your browser - HTML5 player(in browser, HTML5)
Click here to listen with your own player(launches your MP3 player)

RODN 190918Z AUTO 04016KT 10SM BKN010 BKN015 OVC041 27/25 A2956 RMK AO2 RAE07DZB07E08 CIG 010V017 BKN010 V SCT SLP015 $

RODN Flight Activity (Flightaware)

Listeners: 0 out of 750 total


RPLL ACC 125.7 (Archives)
Manila, Philippines

Feed Status: UP
Listen in your browser - HTML5 player(in browser, HTML5)
Click here to listen with your own player(launches your MP3 player)

RPLL 190900Z 25011KT 9000 SCT018 OVC080 27/25 Q1007 NOSIG RMK A2974

RPLL Flight Activity (Flightaware)

Listeners: 0 out of 750 total

Manila Control: 125.700

RPLL App/Dep 119.7 (Archives)
Manila, Philippines

Feed Status: UP
Listen in your browser - HTML5 player(in browser, HTML5)
Click here to listen with your own player(launches your MP3 player)

RPLL 190900Z 25011KT 9000 SCT018 OVC080 27/25 Q1007 NOSIG RMK A2974

RPLL Flight Activity (Flightaware)

Listeners: 1 out of 750 total

Manila Approach/Departure: 119.700

RPLL App/Dep 121.1 (Archives)
Manila, Philippines

Feed Status: UP
Listen in your browser - HTML5 player(in browser, HTML5)
Click here to listen with your own player(launches your MP3 player)

RPLL 190900Z 25011KT 9000 SCT018 OVC080 27/25 Q1007 NOSIG RMK A2974

RPLL Flight Activity (Flightaware)

Listeners: 1 out of 750 total

Manila Approach/Departure: 121.100

RPLL App/Dep 124.4 (Archives)
Manila, Philippines

Feed Status: UP
Listen in your browser - HTML5 player(in browser, HTML5)
Click here to listen with your own player(launches your MP3 player)

RPLL 190900Z 25011KT 9000 SCT018 OVC080 27/25 Q1007 NOSIG RMK A2974

RPLL Flight Activity (Flightaware)

Listeners: 0 out of 750 total

Manila Approach/.Departure: 124.400

RPLL App/Dep 124.8 (Archives)
Manila, Philippines

Feed Status: UP
Listen in your browser - HTML5 player(in browser, HTML5)
Click here to listen with your own player(launches your MP3 player)

RPLL 190900Z 25011KT 9000 SCT018 OVC080 27/25 Q1007 NOSIG RMK A2974

RPLL Flight Activity (Flightaware)

Listeners: 0 out of 750 total

Manila Approach/.Departure: 124.800

RPLL ATIS (Archives)
Manila, Philippines

Feed Status: UP
Listen in your browser - HTML5 player(in browser, HTML5)
Click here to listen with your own player(launches your MP3 player)

RPLL 190900Z 25011KT 9000 SCT018 OVC080 27/25 Q1007 NOSIG RMK A2974

RPLL Flight Activity (Flightaware)

Listeners: 2 out of 750 total

Manila ATIS: 126.400

RPLL Clearance Delivery (Archives)
Manila, Philippines

Feed Status: UP
Listen in your browser - HTML5 player(in browser, HTML5)
Click here to listen with your own player(launches your MP3 player)

RPLL 190900Z 25011KT 9000 SCT018 OVC080 27/25 Q1007 NOSIG RMK A2974

RPLL Flight Activity (Flightaware)

Listeners: 1 out of 750 total

Manila Clearance Delivery (Primary): 125.100
Manila Clearance Delivery (Secondary): 125.500

RPLL Ground (Archives)
Manila, Philippines

Feed Status: UP
Listen in your browser - HTML5 player(in browser, HTML5)
Click here to listen with your own player(launches your MP3 player)

RPLL 190900Z 25011KT 9000 SCT018 OVC080 27/25 Q1007 NOSIG RMK A2974

RPLL Flight Activity (Flightaware)

Listeners: 0 out of 750 total

Manila Ground: 121.800

RPLL Ramp/Taxi (Archives)
Manila, Philippines

Feed Status: UP
Listen in your browser - HTML5 player(in browser, HTML5)
Click here to listen with your own player(launches your MP3 player)

RPLL 190900Z 25011KT 9000 SCT018 OVC080 27/25 Q1007 NOSIG RMK A2974

RPLL Flight Activity (Flightaware)

Listeners: 0 out of 750 total

Manila Ramp/Taxi: 121.350
Manila Ramp/Taxi: 121.700

RPLL Tower (Archives)
Manila, Philippines

Feed Status: UP
Listen in your browser - HTML5 player(in browser, HTML5)
Click here to listen with your own player(launches your MP3 player)

RPLL 190900Z 25011KT 9000 SCT018 OVC080 27/25 Q1007 NOSIG RMK A2974

RPLL Flight Activity (Flightaware)

Listeners: 0 out of 750 total

Manila Tower: 118.100

SABE Gnd/Twr/App (Archives)
Buenos Aires, Argentina

Feed Status: UP
Listen in your browser - HTML5 player(in browser, HTML5)
Click here to listen with your own player(launches your MP3 player)

SABE 190900Z 32011KT CAVOK 15/07 Q1002 BECMG 22015KT

SABE Flight Activity (Flightaware)

Listeners: 4 out of 750 total

Aerolineas Argentinas Ops: 131.950
Aerolineas Argentinas Ops: 131.100
Aeroparque Ground: 121.900
Aeroparque Tower: 120.600
Aeroparque Tower: 118.250
Aeroparque Tower: 128.850
Aeroparque Tower: 118.850
Aeroparque Tower: 129.300
Air to Air: 123.450
Baires: 125.900
Baires: 125.300
Baires: 124.900
Cordoba South: 126.500
Ezeiza Ground: 121.750
Ezeiza North: 133.350
Ezeiza North: 124.500
Ezeiza North: 125.600
Ezeiza North: 135.500
Ezeiza South: 124.100
Ezeiza South: 125.200
LAN Ops: 131.700

Powered by aeropuertotucuman.blogspot.com

SANT Tower/Apps (Archives)
Tucuman, Argentina

Feed Status: UP
Listen in your browser - HTML5 player(in browser, HTML5)
Click here to listen with your own player(launches your MP3 player)

SANT 190900Z 36004KT CAVOK 14/07 Q1000

SANT Flight Activity (Flightaware)

Listeners: 0 out of 750 total

Aeroclub Tucuman: 119.000
Aerolineas Argentinas SOC Salta: 131.100
Aerolineas Argentinas SOC Tucuman: 131.950
Air To Air: 123.450
Andes Lineas Aereas: 132.000
Campo Arenal: 130.950
Catamarca Tower: 118.150
Copa Airlines: 129.400
Cordoba Centro Norte: 125.100
Cordoba Centro Sur: 126.500
Emergency/Guard: 121.500
Lan Argentina Operaciones: 131.700
Lan Peru: 131.300
Salta Tower: 128.850
Santiago del Estero Tower: 118.700
Taca Peru: 126.450
Termas de Rio Hondo: 118.200
Termas de Rio Hondo: 119.850
Tucuman Ground: 121.750
Tucuman Ground: 121.750
Tucuman Tower: 118.350
Tucuman Tower: 119.500

Powered by:

aeropuertotucuman.blogspot.com

SASA Twr/App (Archives)
Salta, Argentina

Feed Status: UP
Listen in your browser - HTML5 player(in browser, HTML5)
Click here to listen with your own player(launches your MP3 player)

SASA 190900Z 27003KT CAVOK 08/05 Q1005

SASA Flight Activity (Flightaware)

Listeners: 0 out of 750 total

Cordoba Approach (North): 125.100
Salta Approach: 124.600
Salta Tower: 126.000
Salta Tower/Ground: 128.850

SAZN Tower (Archives)
Neuquen, Argentina

Feed Status: UP
Listen in your browser - HTML5 player(in browser, HTML5)
Click here to listen with your own player(launches your MP3 player)

SAZN 190900Z 27010KT CAVOK 05/M03 Q1013

SAZN Flight Activity (Flightaware)

Listeners: 0 out of 750 total

Neuquen Tower/Approach: 119.800

SAZS Gnd/Twr/App (Archives)
Rio Negro, Argentina

Feed Status: UP
Listen in your browser - HTML5 player(in browser, HTML5)
Click here to listen with your own player(launches your MP3 player)

SAZS 190900Z 29027G40KT 9999 SCT035 01/M08 Q1012

SAZS Flight Activity (Flightaware)

Listeners: 0 out of 750 total

Bariloche Ground: 118.650
Bariloche Twr/App: 119.100
Chapelco Tower/Approach: 119.600
Comodoro Rivadavia Control: 125.500
Emergency: 121.500
Ezeiza South: 125.200
Puerto Mont Radar North: 121.300
Puerto Mont Radar South: 128.300
Puerto Mont Radio: 126.900


Feed courtesy of: Juan Jose Porta - Bariloche

SBBI Gnd/Twr (Archives)
Curitiba, Brazil

Feed Status: UP
Listen in your browser - HTML5 player(in browser, HTML5)
Click here to listen with your own player(launches your MP3 player)

SBBI 190100Z 03005KT 8000 -TSRA BKN003 FEW030CB BKN100 13/13 Q1015

SBBI Flight Activity (Flightaware)

Listeners: 0 out of 750 total

Bacacheri Ground: 121.800
Bacacheri Tower: 118.900

SBBV Approach (Archives)
Boa Vista, Brazil

Feed Status: UP
Listen in your browser - HTML5 player(in browser, HTML5)
Click here to listen with your own player(launches your MP3 player)

SBBV 190900Z 04002KT CAVOK 25/23 Q1009

SBBV Flight Activity (Flightaware)

Listeners: 2 out of 750 total

Boa Vista Approach: 120.100

SBBV Tower (Archives)
Boa Vista, Brazil

Feed Status: UP
Listen in your browser - HTML5 player(in browser, HTML5)
Click here to listen with your own player(launches your MP3 player)

SBBV 190900Z 04002KT CAVOK 25/23 Q1009

SBBV Flight Activity (Flightaware)

Listeners: 2 out of 750 total

Boa Vista Tower: 118.100

SBCT Gnd/Twr/App (Archives)
Curitiba, Brazil

Feed Status: UP
Listen in your browser - HTML5 player(in browser, HTML5)
Click here to listen with your own player(launches your MP3 player)

SBCT 190900Z VRB02KT 9000 MIFG BKN005 BKN100 14/13 Q1012

SBCT Flight Activity (Flightaware)

Listeners: 0 out of 750 total

Curitiba Approach: 119.950
Curitiba Ground: 121.900
Curitiba Tower: 118.150
Curitiba Tower: 118.900

SBDN Twr/App (Archives)
Presidente Prudente/Sao Paulo, Brazil

Feed Status: UP
Listen in your browser - HTML5 player(in browser, HTML5)
Click here to listen with your own player(launches your MP3 player)

SBDN 190900Z 08008KT CAVOK 23/15 Q1008

SBDN Flight Activity (Flightaware)

Listeners: 0 out of 750 total

Air-to-Air: 123.450
Curitiba Sector 13: 133.595
Prudente Approach: 118.450
Prudente Tower: 125.450

SBEG Tower/App (Archives)
Manaus, Brazil

Feed Status: UP
Listen in your browser - HTML5 player(in browser, HTML5)
Click here to listen with your own player(launches your MP3 player)

SBEG 190900Z 00000KT CAVOK 23/22 Q1008

SBEG Flight Activity (Flightaware)

Listeners: 2 out of 750 total

Emergency/Guard: 121.500
Manaus Approach : 119.250
Manaus Approach: 120.400
Manaus Approach: 119.700
Manaus Tower: 118.300

SBFI Twr/App/Ctr/Misc (Archives)
Foz do Iguacu, Brazil

Feed Status: UP
Listen in your browser - HTML5 player(in browser, HTML5)
Click here to listen with your own player(launches your MP3 player)

SBFI 190900Z 05002KT CAVOK 16/16 Q1006

SBFI Flight Activity (Flightaware)

Listeners: 0 out of 750 total

Asuncion Center (Paraguay): 126.900
Asuncion Center (Paraguay): 128.400
Curitiba Center: 127.200
Curitiba Center: 125.800
Emergency/Guard: 121.500
Foz do Iguacu Approach/Departure: 120.300
Foz do Iguacu Approach/Departure: 119.150
Foz do Iguacu Tower: 118.800
Guarani Approach (Paraguay): 119.300
Puerto Iguazu - Cataratas Tower (Argentina) : 120.700
Resistencia Center (Argentina): 124.300
UNICOM: 123.450

SBFZ Twr/App/Center (Archives)
Fortaleza, Brazil

Feed Status: UP
Listen in your browser - HTML5 player(in browser, HTML5)
Click here to listen with your own player(launches your MP3 player)

SBFZ 190900Z 15008KT 9999 SCT023 25/21 Q1012

SBFZ Flight Activity (Flightaware)

Listeners: 7 out of 750 total

ACC-RE (Fortaleza Sector): 125.150
ACC-RE (Fortaleza Sector): 126.350
ACC-RE (Fortaleza Sector): 135.250
Fortaleza Approach: 133.000
Fortaleza Tower: 129.000

SBGO Gnd/Twr/App (Archives)
Goiania, Brazil

Feed Status: UP
Listen in your browser - HTML5 player(in browser, HTML5)
Click here to listen with your own player(launches your MP3 player)

SBGO 190900Z 32004KT CAVOK 19/12 Q1013

SBGO Flight Activity (Flightaware)

Listeners: 2 out of 750 total

Anapolis Approach: 119.150
Anapolis Approach: 120.550
Anapolis Approach: 133.000
Anapolis Approach: 129.450
Emergency/Guard: 121.500
Goiania Ground: 121.700
Goiania Tower: 118.700
Goiania Tower: 121.050

SBJP Twr/Control/Airlines (Archives)
Joao Pessoa, Brazil

Feed Status: UP
Listen in your browser - HTML5 player(in browser, HTML5)
Click here to listen with your own player(launches your MP3 player)

SBJP 190900Z 23004KT 9999 FEW020 21/21 Q1014

SBJP Flight Activity (Flightaware)

Listeners: 0 out of 750 total

AZUL: 130.900
GOL: 131.225
Joao Pessoa Tower: 118.300
Recife Control: 119.500
TAM: 130.500

SBJU Tower/Center (Archives)
Juazeiro do Norte, Brazil

Feed Status: UP
Listen in your browser - HTML5 player(in browser, HTML5)
Click here to listen with your own player(launches your MP3 player)

SBJU 190900Z 12003KT CAVOK 23/17 Q1017

SBJU Flight Activity (Flightaware)

Listeners: 0 out of 750 total

Pilot-to-Pilot: 123.450
Radio Juazeiro: 131.750
Recife Center: 135.250
Recife Center: 125.150

Sponsored by:

SBLO Gnd/Twr/App
Londrina, Brazil

Feed Status: DOWN
Offline since: 2019-09-02 02:54:39 UTC

SBLO 190900Z 14004KT CAVOK 20/17 Q1010

Londrina Approach: 129.700
Londrina Ground: 119.550
Londrina Tower: 118.400

SBMG Twr/App/Misc (Archives)
Maringa, Brazil

Feed Status: UP
Listen in your browser - HTML5 player(in browser, HTML5)
Click here to listen with your own player(launches your MP3 player)

SBMG 190900Z 04008KT CAVOK 22/16 Q1007

SBMG Flight Activity (Flightaware)

Listeners: 0 out of 750 total

Air to Air: 123.450
Londrina Approach: 129.700
Maringa Tower: 118.750

SBMK RDO/Center
Montes Claros, Brazil

Feed Status: DOWN
Offline since: 2019-09-12 17:19:05 UTC

Brasilia Center (Sector 15): 127.300
Montes Claros RDO: 131.700

SBMQ Tower/App/Center (Archives)
Macapa, Brazil

Feed Status: UP
Listen in your browser - HTML5 player(in browser, HTML5)
Click here to listen with your own player(launches your MP3 player)

SBMQ 190900Z 01003KT 9999 SCT020 25/25 Q1009

SBMQ Flight Activity (Flightaware)

Listeners: 2 out of 750 total

Amazonico Center: 123.950
Amazonico Center: 128.000
Macapa Approach: 119.000
Macapa Tower: 118.000

SBNF Tower
Navegantes, Brazil

Feed Status: DOWN
Offline since: 2019-09-17 20:04:05 UTC

SBNF 190910Z 15002KT 9999 -TSRA BKN008 BKN012 FEW030CB 17/17 Q1010

Navegantes Tower: 118.200

SBPA Gnd/Twr/App (Archives)
Porto Alegre, Brazil

Feed Status: UP
Listen in your browser - HTML5 player(in browser, HTML5)
Click here to listen with your own player(launches your MP3 player)

SBPA 190900Z 08002KT 7000 NSC 10/10 Q1008

SBPA Flight Activity (Flightaware)

Listeners: 7 out of 750 total

BACO (Canoas) Ground: 121.700
BACO (Canoas) Tower: 122.800
BACO (Canoas) Tower: 118.500
Emergency/Guard: 121.500
Porto Alegre Approach Sector 2: 119.000
Porto Alegre Approach Sector 1: 120.100
Porto Alegre Approach Sector 3: 120.550
Porto Alegre Approach Sector 4: 128.900
Porto Alegre Center: 126.750
Porto Alegre Center: 127.400
Porto Alegre Center: 135.850
Porto Alegre Center: 128.450
Salgado Filho Ground: 121.900
Salgado Filho Tower: 118.100

NOTE: Feed site maintenance Nov 13-30, 2016

SBPL RDO (Archives)
Petrolina, Brazil

Feed Status: UP
Listen in your browser - HTML5 player(in browser, HTML5)
Click here to listen with your own player(launches your MP3 player)

SBPL 190900Z 12007KT 9999 FEW025 22/17 Q1015

SBPL Flight Activity (Flightaware)

Listeners: 2 out of 750 total

Petrolina RDO: 125.700

Sponsored by PNZSpotter

SBRF App 129.60 (Archives)
Recife, Brazil

Feed Status: UP
Listen in your browser - HTML5 player(in browser, HTML5)
Click here to listen with your own player(launches your MP3 player)

SBRF 190900Z 11007KT 9999 SCT023 26/21 Q1014

SBRF Flight Activity (Flightaware)

Listeners: 2 out of 750 total

Recife Approach: 129.600

SBRF Ground (Archives)
Recife, Brazil

Feed Status: UP
Listen in your browser - HTML5 player(in browser, HTML5)
Click here to listen with your own player(launches your MP3 player)

SBRF 190900Z 11007KT 9999 SCT023 26/21 Q1014

SBRF Flight Activity (Flightaware)

Listeners: 2 out of 750 total

Recife Ground: 121.850

SBRF Recife ACC (Archives)
Recife, Brazil

Feed Status: UP
Listen in your browser - HTML5 player(in browser, HTML5)
Click here to listen with your own player(launches your MP3 player)

SBRF 190900Z 11007KT 9999 SCT023 26/21 Q1014

SBRF Flight Activity (Flightaware)

Listeners: 1 out of 750 total

Recife Center: 128.700
Recife Center: 133.650
Recife Center: 134.800

SBRF Tower (Archives)
Recife, Brazil

Feed Status: UP
Listen in your browser - HTML5 player(in browser, HTML5)
Click here to listen with your own player(launches your MP3 player)

SBRF 190900Z 11007KT 9999 SCT023 26/21 Q1014

SBRF Flight Activity (Flightaware)

Listeners: 1 out of 750 total

Recife Tower: 125.250
Recife Tower: 118.350
Recife Tower: 118.900

SBRP Tower/Center
Ribeirao Preto, Brazil

Feed Status: DOWN
Offline since: 2019-09-13 22:42:40 UTC

SBRP 190906Z 00000KT 3500 HZ NSC 21/12 Q1010

Leite Lopes Tower: 118.000
Pirassununga Center (North): 119.550

SBSN Twr/App/ACC (Archives)
Santarem, Brazil

Feed Status: UP
Listen in your browser - HTML5 player(in browser, HTML5)
Click here to listen with your own player(launches your MP3 player)

SBSN 190900Z 09012KT 9999 SCT013 28/24 Q1008

SBSN Flight Activity (Flightaware)

Listeners: 0 out of 750 total

Brasilia Center/ACC: 123.650
Brasilia Center/ACC: 125.050
Santarem Approach: 119.300
Santarem Tower: 118.100

SBSR AFIS/App/Center (Archives)
Sao Jose do Rio Preto, Brazil

Feed Status: UP
Listen in your browser - HTML5 player(in browser, HTML5)
Click here to listen with your own player(launches your MP3 player)

SBSR 190900Z 00000KT CAVOK 25/14 Q1009

SBSR Flight Activity (Flightaware)

Listeners: 2 out of 750 total

Academia Approach (North Sector): 119.750
Academia Approach (North Sector): 120.400
Brasilia Center: 135.150
Rio Preto Radio AFIS: 130.850

SBTE Twr/App (Archives)
Teresina, Brazil

Feed Status: UP
Listen in your browser - HTML5 player(in browser, HTML5)
Click here to listen with your own player(launches your MP3 player)

SBTE 190900Z 28001KT CAVOK 24/21 Q1010

SBTE Flight Activity (Flightaware)

Listeners: 3 out of 750 total

Teresina Approach: 119.600
Teresina Tower: 118.800

Sponsored by:

Pistadoiszero

SBRE Recife ACC (Archives)
Paulo Afonso, Brazil

Feed Status: UP
Listen in your browser - HTML5 player(in browser, HTML5)
Click here to listen with your own player(launches your MP3 player)

SBRE Flight Activity (Flightaware)

Listeners: 0 out of 750 total

Recife Center (ACC): 125.400
Recife Center (ACC): 125.450
Recife Center (ACC): 126.850
Recife Center (ACC): 133.650
Recife Center (ACC): 134.500
Recife Center (ACC): 134.900

SBUF AFIS/Center (Archives)
Paulo Afonso, Brazil

Feed Status: UP
Listen in your browser - HTML5 player(in browser, HTML5)
Click here to listen with your own player(launches your MP3 player)

SBUF 121900Z 09014KT 9999 SCT020 BKN070 23/20 Q1017

SBUF Flight Activity (Flightaware)

Listeners: 0 out of 750 total

Paulo Afonso Radio: 125.850
Recife Center: 133.650
Recife Center: 134.500
Recife Center: 125.450

SBQV AFIS (Archives)
Vitoria da Conquista, Brazil

Feed Status: UP
Listen in your browser - HTML5 player(in browser, HTML5)
Click here to listen with your own player(launches your MP3 player)

SBQV Flight Activity (Flightaware)

Listeners: 0 out of 750 total

Conquista AFIS: 130.850
Despacho Azul: 131.875
Despacho Passaredo: 132.000

SBVT Gnd/Twr/App (Archives)
Vitoria, Brazil

Feed Status: UP
Listen in your browser - HTML5 player(in browser, HTML5)
Click here to listen with your own player(launches your MP3 player)

SBVT 190900Z 02011KT CAVOK 23/18 Q1013

SBVT Flight Activity (Flightaware)

Listeners: 0 out of 750 total

SBVT Approach: 119.850
SBVT Ground: 121.950
SBVT Tower: 118.100

SCEL Gnd/Twr/Radar (Archives)
Santiago, Chile

Feed Status: UP
Listen in your browser - HTML5 player(in browser, HTML5)
Click here to listen with your own player(launches your MP3 player)

SCEL 190900Z 14004KT 9999 FEW050 08/05 Q1016 NOSIG

SCEL Flight Activity (Flightaware)

Listeners: 5 out of 750 total

Santiago Authorizations: 121.700
Santiago Control (Lat 3323S North): 128.100
Santiago Control (Lat 3323S South): 126.300
Santiago Ground (Primary): 122.200
Santiago Ground (Secondary): 122.500
Santiago Radar: 135.400
Santiago Radar (Arrival, Primary): 129.700
Santiago Radar (Arrival, Secondary): 119.700
Santiago Radar (Arrival, Secondary): 123.800
Santiago Radar (Departure, Primary): 121.100
Santiago Radar (Departure, Secondary): 123.800
Santiago Radar (Information, Primary): 122.400
Santiago Radar (Information, Secondary): 120.800
Santiago Radar (Information, Secondary): 123.800
Santiago Tower (Primary): 118.100
Santiago Tower (Secondary): 118.350
SCTB Tobalaba Tower: 118.700

SEGU App/Dep/Info (Archives)
Guayaquil, Ecuador

Feed Status: UP
Listen in your browser - HTML5 player(in browser, HTML5)
Click here to listen with your own player(launches your MP3 player)

SEGU 190900Z 23009KT 9999 FEW010 BKN026 22/19 Q1012 NOSIG RMK A2989

SEGU Flight Activity (Flightaware)

Listeners: 0 out of 750 total

Guayaquil Approach: 120.700
Guayaquil Approach (Secondary): 119.300
Guayaquil Info: 126.900

SEGU Gnd/Twr (Archives)
Guayaquil, Ecuador

Feed Status: UP
Listen in your browser - HTML5 player(in browser, HTML5)
Click here to listen with your own player(launches your MP3 player)

SEGU 190900Z 23009KT 9999 FEW010 BKN026 22/19 Q1012 NOSIG RMK A2989

SEGU Flight Activity (Flightaware)

Listeners: 0 out of 750 total

Guayaquil Ground: 121.900
Guayaquil Ground (Secondary): 121.700
Guayaquil Tower: 118.300
Guayaquil Tower (Secondary): 118.900

SEGU Gnd/Twr/App (Archives)
Guayaquil, Ecuador

Feed Status: UP
Listen in your browser - HTML5 player(in browser, HTML5)
Click here to listen with your own player(launches your MP3 player)

SEGU 190900Z 23009KT 9999 FEW010 BKN026 22/19 Q1012 NOSIG RMK A2989

SEGU Flight Activity (Flightaware)

Listeners: 0 out of 750 total

Guayaquil Approach: 120.700
Guayaquil Ground: 121.900
Guayaquil Tower: 118.300

SEGU Guayaquil Center (Archives)
Guayaquil, Ecuador

Feed Status: UP
Listen in your browser - HTML5 player(in browser, HTML5)
Click here to listen with your own player(launches your MP3 player)

SEGU 190900Z 23009KT 9999 FEW010 BKN026 22/19 Q1012 NOSIG RMK A2989

SEGU Flight Activity (Flightaware)

Listeners: 0 out of 750 total

Guayaquil Center: 127.950
Guayaquil Center: 128.300
Guayaquil Center (Secondary): 128.000
Guayaquil Center (Secondary): 123.900

SEQM ATIS (Archives)
Quito, Ecuador

Feed Status: UP
Listen in your browser - HTML5 player(in browser, HTML5)
Click here to listen with your own player(launches your MP3 player)

SEQM 190900Z 36004KT 8000 BCFG OVC004 12/11 Q1026 NOSIG RMK A3030

SEQM Flight Activity (Flightaware)

Listeners: 0 out of 750 total

Quito ATIS: 118.700

SEQM Gnd/Twr/App (Archives)
Quito, Ecuador

Feed Status: UP
Listen in your browser - HTML5 player(in browser, HTML5)
Click here to listen with your own player(launches your MP3 player)

SEQM 190900Z 36004KT 8000 BCFG OVC004 12/11 Q1026 NOSIG RMK A3030

SEQM Flight Activity (Flightaware)

Listeners: 0 out of 750 total

Quito Approach/Departure: 119.700
Quito Approach/Departure: 121.200
Quito Ground: 121.900
Quito Tower: 118.100
Quito Tower (Secondary): 118.350

SEQM Tower (Archives)
Quito, Ecuador

Feed Status: UP
Listen in your browser - HTML5 player(in browser, HTML5)
Click here to listen with your own player(launches your MP3 player)

SEQM 190900Z 36004KT 8000 BCFG OVC004 12/11 Q1026 NOSIG RMK A3030

SEQM Flight Activity (Flightaware)

Listeners: 0 out of 750 total

Quito Tower: 118.100
Quito Tower (Secondary): 118.350

SGAS Gnd/Twr/App/Center (Archives)
Asuncion, Paraguay

Feed Status: UP
Listen in your browser - HTML5 player(in browser, HTML5)
Click here to listen with your own player(launches your MP3 player)

SGAS 190900Z 00000KT CAVOK 14/12 Q1003

SGAS Flight Activity (Flightaware)

Listeners: 0 out of 750 total

Asuncion Approach: 119.700
Asuncion Control: 126.900
Asuncion Ground: 121.900
Asuncion Tower: 118.100

SKBO Del/Gnd/Twr/App
Bogota, Colombia

Feed Status: DOWN
Offline since: 2019-09-09 17:31:40 UTC

SKBO 190900Z VRB02KT 9999 FEW008 BKN070 12/11 A3027 NOSIG

Bogota Approach: 119.500
Bogota Clearance Delivery: 121.600
Bogota Departure (North): 121.300
Bogota Departure (South): 119.650
Bogota Ground (North): 121.800
Bogota Ground (South): 122.750
Bogota Information: 126.900
Bogota Tower (North): 118.100
Bogota Tower (South): 118.250
Guaymaral Ground: 121.700
Guaymaral Tower: 118.800

SKBQ Approach (Archives)
Barranquilla, Colombia

Feed Status: UP
Listen in your browser - HTML5 player(in browser, HTML5)
Click here to listen with your own player(launches your MP3 player)

SKBQ 190900Z 22003KT 9999 -DZ SCT012 BKN070 25/24 A2977 NOSIG

SKBQ Flight Activity (Flightaware)

Listeners: 0 out of 750 total

Barranquilla Approach/Departure: 119.100

HF CWP/SEA (Archives)
Pyeongtaek, Korea, Republic of

Feed Status: UP
Listen in your browser - HTML5 player(in browser, HTML5)
Click here to listen with your own player(launches your MP3 player)


Listeners: 2 out of 750 total

CWP 1 (Tokyo): 11.384
CWP 1/2 (Tokyo): 13.300
CWP-1/2 (San Francisco): 17.904
CWP-1/2 (Tokyo/Manila): 8.903
CWP-1/2 (Tokyo/San Francisco): 21.985
SEA-2 (Manila): 8.942

Receiver location: Seoul, Korea

SPJC Approach (Archives)
Lima, Peru

Feed Status: UP
Listen in your browser - HTML5 player(in browser, HTML5)
Click here to listen with your own player(launches your MP3 player)

SPJC 190900Z 20004KT 9000 OVC011 15/13 Q1015 NOSIG RMK PP000

SPJC Flight Activity (Flightaware)

Listeners: 0 out of 750 total

Lima Approach: 119.700

SPJC Ground (Archives)
Lima, Peru

Feed Status: UP
Listen in your browser - HTML5 player(in browser, HTML5)
Click here to listen with your own player(launches your MP3 player)

SPJC 190900Z 20004KT 9000 OVC011 15/13 Q1015 NOSIG RMK PP000

SPJC Flight Activity (Flightaware)

Listeners: 0 out of 750 total

Lima Ground: 121.900

SPJC Tower (Archives)
Lima, Peru

Feed Status: UP
Listen in your browser - HTML5 player(in browser, HTML5)
Click here to listen with your own player(launches your MP3 player)

SPJC 190900Z 20004KT 9000 OVC011 15/13 Q1015 NOSIG RMK PP000

SPJC Flight Activity (Flightaware)

Listeners: 0 out of 750 total

Lima Tower: 118.100

SPST Tower
Tarapoto, Peru

Feed Status: DOWN
Offline since: 2019-09-19 06:58:40 UTC

SPST 190300Z 00000KT 9999 FEW020 26/23 Q1008 RMK BIRD HAZARD RWY 17/35 PP000

Tarapoto Tower: 118.400

SSBL Air to Air (Archives)
Blumenau, Brazil

Feed Status: UP
Listen in your browser - HTML5 player(in browser, HTML5)
Click here to listen with your own player(launches your MP3 player)

SSBL Flight Activity (Flightaware)

Listeners: 0 out of 750 total

Air to Air: 123.450

SUMU Twr/App (Archives)
Montevideo, Uruguay

Feed Status: UP
Listen in your browser - HTML5 player(in browser, HTML5)
Click here to listen with your own player(launches your MP3 player)

SUMU 190900Z 02011KT CAVOK 11/07 Q1002 NOSIG

SUMU Flight Activity (Flightaware)

Listeners: 0 out of 750 total

SUMU Approach: 119.200
SUMU Tower: 118.100

Sponsored by Aeroclub Aerosur - Escuela de Vuelo

SUMU Twr/App/Radar (Archives)
Montevideo, Uruguay

Feed Status: UP
Listen in your browser - HTML5 player(in browser, HTML5)
Click here to listen with your own player(launches your MP3 player)

SUMU 190900Z 02011KT CAVOK 11/07 Q1002 NOSIG

SUMU Flight Activity (Flightaware)

Listeners: 0 out of 750 total

SUMU Approach: 120.200
SUMU Approach: 119.200
SUMU Info: 121.800
SUMU Informacion: 121.800
SUMU Radar Control: 128.500
SUMU Radar Control: 126.300
SUMU Radar Control: 128.000
SUMU Tower: 118.100

Feed provided by:

Volemos.com.uy

Aviación Uruguaya - Volemos.com.uy

SUPU/SUPC Misc
Paysandu, Uruguay

Feed Status: DOWN
Offline since: 2019-08-30 07:22:22 UTC

SUPU 040900Z 10005KT 9999 FEW020TCU BKN070 FEW200 23/23 Q1010

Chalkling Tower: 118.700
Paysandu Tower: 118.200

Courtesy of: Aeroclub Paysandu

SVPR Twr/App/FIR (Archives)
Ciudad Guayana, Venezuela

Feed Status: UP
Listen in your browser - HTML5 player(in browser, HTML5)
Click here to listen with your own player(launches your MP3 player)

SVPR Flight Activity (Flightaware)

Listeners: 0 out of 750 total

Emergency/Guard: 121.500
FIR 6: 126.000
Guayana Approach (Primary): 119.500
Guayana Approach (Secondary): 120.300
Guayana Tower (Primary): 118.000
Guayana Tower (Secondary): 123.500
SMC: 121.900

SVVA Gnd/Twr/App
Valencia, Venezuela

Feed Status: DOWN
Offline since: 2019-09-18 17:05:39 UTC

SVVA 182200Z /////KT 9999 BKN016 24/23 Q1010

Libertador Approach: 119.300
Valencia Ground: 121.900
Valencia Tower: 121.200

TBPB Gnd/Twr/Radar/Center
Bridgetown, Barbados

Feed Status: DOWN
Offline since: 2019-09-19 05:00:22 UTC

TBPB 190900Z 07008KT 9999 BKN018 26/24 Q1009 NOSIG

Adams Approach/Departure: 129.350
Adams Approach/Departure: 128.850
Adams Ground: 121.900
Adams Tower: 118.700
Piarco Center: 123.700

TNCA Twr/Apron/FIR (Archives)
Oranjestad, Aruba

Feed Status: UP
Listen in your browser - HTML5 player(in browser, HTML5)
Click here to listen with your own player(launches your MP3 player)

TNCA 190900Z 16006KT 9999 FEW017 28/25 Q1006 NOSIG

TNCA Flight Activity (Flightaware)

Listeners: 0 out of 750 total

Beatrix Ground (Apron): 121.600
Beatrix Tower: 120.900
Beatrix Tower (secondary): 118.000
Curacao Control: 127.100
Emergency/Guard: 121.500
Search/Rescue: 123.100

NOTES: OurAirports.com

TNCB Tower (Archives)
Kralendijk, Bonaire

Feed Status: UP
Listen in your browser - HTML5 player(in browser, HTML5)
Click here to listen with your own player(launches your MP3 player)

TNCB 190855Z AUTO 20005KT 160V230 9999 FEW021/// 28/24 Q1007

TNCB Flight Activity (Flightaware)

Listeners: 0 out of 750 total

Bonaire Tower: 118.700

TNCC Curacao Control (Archives)
Willemstad, Curacao

Feed Status: UP
Listen in your browser - HTML5 player(in browser, HTML5)
Click here to listen with your own player(launches your MP3 player)

TNCC 190900Z 17005KT 9999 FEW016 27/24 Q1007 NOSIG

TNCC Flight Activity (Flightaware)

Listeners: 0 out of 750 total

Curacao Control: 124.100
Curacao Control: 127.100

TNCC Tower/Radar (Archives)
Willemstad, Curacao

Feed Status: UP
Listen in your browser - HTML5 player(in browser, HTML5)
Click here to listen with your own player(launches your MP3 player)

TNCC 190900Z 17005KT 9999 FEW016 27/24 Q1007 NOSIG

TNCC Flight Activity (Flightaware)

Listeners: 0 out of 750 total

Hato Radar: 119.600
Hato Tower: 118.300

TNCC Twr/Radar/Control (Archives)
Willemstad, Curacao

Feed Status: UP
Listen in your browser - HTML5 player(in browser, HTML5)
Click here to listen with your own player(launches your MP3 player)

TNCC 190900Z 17005KT 9999 FEW016 27/24 Q1007 NOSIG

TNCC Flight Activity (Flightaware)

Listeners: 0 out of 750 total

Curacao Control: 127.100
Hato Radar: 119.600
Hato Tower: 118.300

TNCE Info (Archives)
Oranjestad, Sint Eustatius

Feed Status: UP
Listen in your browser - HTML5 player(in browser, HTML5)
Click here to listen with your own player(launches your MP3 player)

TNCE 190855Z AUTO 09005KT 050V120 //// // ///////// 27/25 Q1009 RE//

TNCE Flight Activity (Flightaware)

Listeners: 0 out of 750 total

Statia Info: 118.100

TTCP Gnd/Twr/App (Archives)
Scarborough, Trinidad and Tobago

Feed Status: UP
Listen in your browser - HTML5 player(in browser, HTML5)
Click here to listen with your own player(launches your MP3 player)

TTCP 190700Z 00000KT 9999 FEW016 26/23 Q1008 NOSIG

TTCP Flight Activity (Flightaware)

Listeners: 0 out of 750 total

Piarco Approach: 119.000
Robinson Ground: 121.700
Robinson Tower: 118.400

TTPP Apron/Gnd/Twr (Archives)
Port of Spain, Trinidad and Tobago

Feed Status: UP
Listen in your browser - HTML5 player(in browser, HTML5)
Click here to listen with your own player(launches your MP3 player)

TTPP 190700Z 00000KT C A V O K 24/23 Q1008 NOSIG

TTPP Flight Activity (Flightaware)

Listeners: 1 out of 750 total

Piarco Apron: 121.750
Piarco Ground: 121.900
Piarco Tower: 118.100

TTPP Piarco Approach (Archives)
Port of Spain, Trinidad and Tobago

Feed Status: UP
Listen in your browser - HTML5 player(in browser, HTML5)
Click here to listen with your own player(launches your MP3 player)

TTPP 190700Z 00000KT C A V O K 24/23 Q1008 NOSIG

TTPP Flight Activity (Flightaware)

Listeners: 0 out of 750 total

Piarco Approach: 119.550
Piarco Approach: 119.000
Piarco Approach (backup): 124.000

TTPP Piarco Center (Archives)
Port of Spain, Trinidad and Tobago

Feed Status: UP
Listen in your browser - HTML5 player(in browser, HTML5)
Click here to listen with your own player(launches your MP3 player)

TTPP 190700Z 00000KT C A V O K 24/23 Q1008 NOSIG

TTPP Flight Activity (Flightaware)

Listeners: 0 out of 750 total

Piarco Center: 123.700
Piarco Center (Oceanic): 126.500
Piarco Center (South Sector): 125.400
Piarco Center Oceanic (Backup): 133.100

TXKF Tower/Ground
Hamilton, Bermuda

Feed Status: DOWN
Offline since: 2019-09-18 21:47:40 UTC

TXKF 190855Z 34013KT 9999 VCSH FEW020 BKN080 OVC300 24/21 Q1005

Bermuda CTAF: 122.800
Bermuda Ground/Clearance: 124.500
Bermuda Tower: 118.100

ZNY Bermuda Sector
Hamilton, Bermuda

Feed Status: DOWN
Offline since: 2019-09-18 21:47:40 UTC

TXKF 190855Z 34013KT 9999 VCSH FEW020 BKN080 OVC300 24/21 Q1005

New York Approach (Bermuda Sector) : 119.100
New York Center (Bermuda Sector): 128.500

UKKK Gnd/Twr/ACC
Kyiv, Ukraine

Feed Status: DOWN
Offline since: 2019-09-14 20:56:40 UTC

UKKK 190900Z 29006MPS 9999 BKN030 12/05 Q1017 R26/CLRD70 NOSIG

Emergency/Guard: 121.500
Kyiv Radar ACC: 122.775
Kyiv Radar ACC: 124.675
Kyiv Radar ACC: 127.725
Kyiv Radar ACC: 128.175
Kyiv Radar ACC: 125.300
Kyiv Zhuliany Ground: 119.000
Kyiv Zhuliany Tower: 120.700

UNNT Gnd/Twr/App/Radar/Misc (Archives)
Novosibirsk, Russia

Feed Status: UP
Listen in your browser - HTML5 player(in browser, HTML5)
Click here to listen with your own player(launches your MP3 player)

UNNT 190900Z 17005MPS CAVOK 21/10 Q1013 R25/090070 R16/090070 NOSIG RMK QFE750/1000

UNNT Flight Activity (Flightaware)

Listeners: 9 out of 750 total

ACC_Novosibirsk-Control [5th military channel]: 128.500
ACC_Novosibirsk-Control [Southeast]: 126.100
ACC_Novosibirsk-Control [West]: 127.000
GPA_Kristallik [Severniy airfield]: 123.425
GPA_Sernisiy [Chkalovskiy airfield]: 124.750
GPA_Tomsk Information 1: 134.500
MIL_3 [3rd military channel]: 130.750
MIL_Larek [Shilovo facility]: 123.750
MIL_Maneken [Chkalovskiy airfield]: 123.550
MIL_Novosibirsk-1 [1st military channel]: 124.000
MIL_Noyabr' 31: 124.900
MIL_Trimaran: 124.500
SP_Air-to-Air: 123.450
SP_Air-to-Air 2: 123.400
SP_Common backup frequency: 129.000
SP_Emergency: 121.500
SP_Emergency 2: 123.100
SP_Flyoff: 124.375
SURF_Boarding: 163.425
SURF_Duty chart: 163.800
SURF_O&D Service: 163.325
SURF_Search & Rescue: 164.000
SURF_Security: 163.750
SURF_Tower surf: 163.650
SURF_Vehicles: 163.850
UNNT_Backup frequency: 127.100
UNNT_Novosibirsk-Approach: 127.500
UNNT_Novosibirsk-Ground: 121.700
UNNT_Novosibirsk-Radar: 122.000
UNNT_Novosibirsk-Tower: 118.500
UNNT_Novosibirsk-Transit: 131.600
UNNT_S7 FOCC: 131.925

UNOO Gnd/Tower/App (Archives)
Omsk, Russia

Feed Status: UP
Listen in your browser - HTML5 player(in browser, HTML5)
Click here to listen with your own player(launches your MP3 player)

UNOO 190900Z 22009G14MPS CAVOK 26/06 Q1004 R25/CLRD60 NOSIG RMK QFE745

UNOO Flight Activity (Flightaware)

Listeners: 1 out of 750 total

Aerodrom Kalachevo: 123.300
Aerodrom Marianovka: 123.000
Emergency/Guard: 121.500
Novosibirsk Control (Sector 7): 132.500
Novosibirsk Control (Sector 8): 132.900
Omsk Approach (FL060-FL265): 131.200
Omsk Apron: 118.800
Omsk Start/Radar: 119.000
Omsk Taxiing: 121.700
Omsk Transit: 131.700
UNOS/OMSK-Severny: 124.000

UNTT Gnd/Info/Radar/Control (Archives)
Tomsk, Russia

Feed Status: UP
Listen in your browser - HTML5 player(in browser, HTML5)
Click here to listen with your own player(launches your MP3 player)

UNTT Flight Activity (Flightaware)

Listeners: 0 out of 750 total

Common Backup Frequency: 129.000
Emergency/Guard: 121.500
Novosibirsk Control (Sector 2): 126.100
Novosibirsk Control (Sector 3): 129.300
Novosibirsk Control (Sector 5): 132.300
Tomsk Ground: 118.800
Tomsk Information 1: 134.500
Tomsk Krug (Radar): 127.300
Tomsk Transit: 131.875
Troynik (Golovino): 122.400

URKK Gnd/Twr/App (Archives)
Krasnodar, Russia

Feed Status: UP
Listen in your browser - HTML5 player(in browser, HTML5)
Click here to listen with your own player(launches your MP3 player)

URKK 190900Z 31002MPS 9999 FEW/// 20/07 Q1020 R23L/CLRD70 NOSIG RMK QFE761

URKK Flight Activity (Flightaware)

Listeners: 7 out of 750 total

Krasnodar Approach: 129.600
Krasnodar Ground: 119.000
Krasnodar Radar: 121.300
Krasnodar Tower: 118.200

URMT Twr/App/Control (Archives)
Stavropol, Russia

Feed Status: UP
Listen in your browser - HTML5 player(in browser, HTML5)
Click here to listen with your own player(launches your MP3 player)

URMT 190900Z 30004MPS 9999 SCT040 14/04 Q1020 R25/010070 NOSIG RMK QFE726

URMT Flight Activity (Flightaware)

Listeners: 0 out of 750 total

Stavropol Approach: 120.300
Stavropol Control: 118.250
Stavropol Tower: 120.900

URSS Gnd/Twr/App (Archives)
Sochi, Russia

Feed Status: UP
Listen in your browser - HTML5 player(in browser, HTML5)
Click here to listen with your own player(launches your MP3 player)

URSS 190900Z 28004MPS 9999 BKN120 24/18 Q1017 WS ALL RWY R02/010070 R06/010070 NOSIG RMK R06/29006MPS QFE762

URSS Flight Activity (Flightaware)

Listeners: 0 out of 750 total

Sochi Approach: 118.300
Sochi Approach: 119.700
Sochi District (Small Aircraft): 118.500
Sochi Start: 121.200
Sochi Taxi: 119.000
Sochi Tower: 124.600

USDD Gnd/Twr/App/Control (Archives)
Salekhard, Russia

Feed Status: UP
Listen in your browser - HTML5 player(in browser, HTML5)
Click here to listen with your own player(launches your MP3 player)

USDD 150530Z 05007MPS 9999 -SHRA BKN009CB 09/07 Q1002 R04/290060 NOSIG RMK QFE746/0994

USDD Flight Activity (Flightaware)

Listeners: 0 out of 750 total

Salekhard Control: 132.300
Salekhard Ground: 118.800
Salekhard Info: 125.200
Salekhard Krug: 120.800
Salekhard Tower: 118.600
Salekhard Transit: 131.700

USTR Gnd/Twr/App (Archives)
Tyumen, Russia

Feed Status: UP
Listen in your browser - HTML5 player(in browser, HTML5)
Click here to listen with your own player(launches your MP3 player)

USTR 190900Z 12005MPS 7000 -SHRA SCT004 OVC046CB 11/10 Q0995 R21/290060 R30/290060 NOSIG RMK QBB120 QFE737/0982

USTR Flight Activity (Flightaware)

Listeners: 0 out of 750 total

Tyumen Approach: 126.100
Tyumen Control: 132.600
Tyumen Control: 133.600
Tyumen Info (Regional): 133.400
Tyumen Start: 118.200
Tyumen Transit: 131.800

USUU Twr/App/Control (Archives)
Kurgan, Russia

Feed Status: UP
Listen in your browser - HTML5 player(in browser, HTML5)
Click here to listen with your own player(launches your MP3 player)

USUU Flight Activity (Flightaware)

Listeners: 0 out of 750 total

Aerodromnaya 50: 164.100
Baggage Handling: 164.025
Kurgan Approach: 120.300
Kurgan Tower: 134.300
Kurgan/USUU Transit: 131.700
Kurtamysh: 122.450
Ural Control Sector 4: 119.700
USUL Tower: 129.600

UUDD Twr/App
Moscow, Russia

Feed Status: DOWN
Offline since: 2019-09-18 11:39:05 UTC

UUDD 190900Z 30006MPS 9999 BKN033 12/02 Q1008 R88/CLRD70 NOSIG

Domodedovo Tower: 118.600
Moscow Approach: 125.300
Moscow Approach: 127.700

VCBI Director
Colombo, Sri Lanka

Feed Status: DOWN
Offline since: 2019-09-19 02:37:40 UTC

VCBI 190910Z 25003KT 220V310 9999 SCT017 FEW019CB 27/25 Q1008 NOSIG RMK NE/E/W

Colombo Director: 132.400

VHHH Approach 119.1 #1 (Archives)
Hong Kong, Hong Kong

Feed Status: UP
Listen in your browser - HTML5 player(in browser, HTML5)
Click here to listen with your own player(launches your MP3 player)

VHHH 190900Z 29009KT 9999 FEW035 32/20 Q1009 NOSIG

VHHH Flight Activity (Flightaware)

Listeners: 0 out of 750 total

Hong Kong Approach: 119.100

VHHH ATIS (Archives)
Hong Kong, Hong Kong

Feed Status: UP
Listen in your browser - HTML5 player(in browser, HTML5)
Click here to listen with your own player(launches your MP3 player)

VHHH 190900Z 29009KT 9999 FEW035 32/20 Q1009 NOSIG

VHHH Flight Activity (Flightaware)

Listeners: 0 out of 750 total

Hong Kong Arrival ATIS: 128.200

VHHH Clearance Delivery (Archives)
Hong Kong, Hong Kong

Feed Status: UP
Listen in your browser - HTML5 player(in browser, HTML5)
Click here to listen with your own player(launches your MP3 player)

VHHH 190900Z 29009KT 9999 FEW035 32/20 Q1009 NOSIG

VHHH Flight Activity (Flightaware)

Listeners: 0 out of 750 total

Hong Kong Clearance Delivery: 129.900

VHHH Departure (Primary) (Archives)
Hong Kong, Hong Kong

Feed Status: UP
Listen in your browser - HTML5 player(in browser, HTML5)
Click here to listen with your own player(launches your MP3 player)

VHHH 190900Z 29009KT 9999 FEW035 32/20 Q1009 NOSIG

VHHH Flight Activity (Flightaware)

Listeners: 2 out of 750 total

Hong Kong Departure: 123.800

VHHH Director #1 (Archives)
Hong Kong, Hong Kong

Feed Status: UP
Listen in your browser - HTML5 player(in browser, HTML5)
Click here to listen with your own player(launches your MP3 player)

VHHH 190900Z 29009KT 9999 FEW035 32/20 Q1009 NOSIG

VHHH Flight Activity (Flightaware)

Listeners: 1 out of 750 total

Hong Kong Director: 119.500

VHHH Ground (Archives)
Hong Kong, Hong Kong

Feed Status: UP
Listen in your browser - HTML5 player(in browser, HTML5)
Click here to listen with your own player(launches your MP3 player)

VHHH 190900Z 29009KT 9999 FEW035 32/20 Q1009 NOSIG

VHHH Flight Activity (Flightaware)

Listeners: 0 out of 750 total

Hong Kong Ground (North): 121.600
Hong Kong Ground (South): 122.550

VHHH Ground (North) (Archives)
Hong Kong, Hong Kong

Feed Status: UP
Listen in your browser - HTML5 player(in browser, HTML5)
Click here to listen with your own player(launches your MP3 player)

VHHH 190900Z 29009KT 9999 FEW035 32/20 Q1009 NOSIG

VHHH Flight Activity (Flightaware)

Listeners: 0 out of 750 total

Hong Kong Ground (North): 121.600

VHHH Ground (South) (Archives)
Hong Kong, Hong Kong

Feed Status: UP
Listen in your browser - HTML5 player(in browser, HTML5)
Click here to listen with your own player(launches your MP3 player)

VHHH 190900Z 29009KT 9999 FEW035 32/20 Q1009 NOSIG

VHHH Flight Activity (Flightaware)

Listeners: 0 out of 750 total

Hong Kong Ground (South): 122.550

VHHH Hong Kong Radar (Archives)
Hong Kong, Hong Kong

Feed Status: UP
Listen in your browser - HTML5 player(in browser, HTML5)
Click here to listen with your own player(launches your MP3 player)

VHHH 190900Z 29009KT 9999 FEW035 32/20 Q1009 NOSIG

VHHH Flight Activity (Flightaware)

Listeners: 2 out of 750 total

Hong Kong Radar: 121.300
Hong Kong Radar: 118.925
Hong Kong Radar: 123.950

VHHH Tower (Archives)
Hong Kong, Hong Kong

Feed Status: UP
Listen in your browser - HTML5 player(in browser, HTML5)
Click here to listen with your own player(launches your MP3 player)

VHHH 190900Z 29009KT 9999 FEW035 32/20 Q1009 NOSIG

VHHH Flight Activity (Flightaware)

Listeners: 0 out of 750 total

Hong Kong Tower (North): 118.200
Hong Kong Tower (South): 118.400

VHHH Tower (South) (Archives)
Hong Kong, Hong Kong

Feed Status: UP
Listen in your browser - HTML5 player(in browser, HTML5)
Click here to listen with your own player(launches your MP3 player)

VHHH 190900Z 29009KT 9999 FEW035 32/20 Q1009 NOSIG

VHHH Flight Activity (Flightaware)

Listeners: 1 out of 750 total

Hong Kong Tower (South): 118.400

VHHH Zone (Archives)
Hong Kong, Hong Kong

Feed Status: UP
Listen in your browser - HTML5 player(in browser, HTML5)
Click here to listen with your own player(launches your MP3 player)

VHHH 190900Z 29009KT 9999 FEW035 32/20 Q1009 NOSIG

VHHH Flight Activity (Flightaware)

Listeners: 0 out of 750 total

Hong Kong Zone: 120.600

VTBS Approach (East) (Archives)
Bangkok, Thailand

Feed Status: UP
Listen in your browser - HTML5 player(in browser, HTML5)
Click here to listen with your own player(launches your MP3 player)

VTBS 190900Z VRB02KT 9999 FEW020TCU SCT050 31/24 Q1007 NOSIG

VTBS Flight Activity (Flightaware)

Listeners: 0 out of 750 total

Bangkok Approach (East): 122.350

VTBS Approach (North) (Archives)
Bangkok, Thailand

Feed Status: UP
Listen in your browser - HTML5 player(in browser, HTML5)
Click here to listen with your own player(launches your MP3 player)

VTBS 190900Z VRB02KT 9999 FEW020TCU SCT050 31/24 Q1007 NOSIG

VTBS Flight Activity (Flightaware)

Listeners: 0 out of 750 total

Bangkok Approach (North): 121.700

VTBS Approach 119.1 (Archives)
Bangkok, Thailand

Feed Status: UP
Listen in your browser - HTML5 player(in browser, HTML5)
Click here to listen with your own player(launches your MP3 player)

VTBS 190900Z VRB02KT 9999 FEW020TCU SCT050 31/24 Q1007 NOSIG

VTBS Flight Activity (Flightaware)

Listeners: 0 out of 750 total

Bangkok Approach: 119.100

VTBS Approach 119.4 (Archives)
Bangkok, Thailand

Feed Status: UP
Listen in your browser - HTML5 player(in browser, HTML5)
Click here to listen with your own player(launches your MP3 player)

VTBS 190900Z VRB02KT 9999 FEW020TCU SCT050 31/24 Q1007 NOSIG

VTBS Flight Activity (Flightaware)

Listeners: 0 out of 750 total

Bangkok Approach: 119.400

VTBS Approach 120.3 (Archives)
Bangkok, Thailand

Feed Status: UP
Listen in your browser - HTML5 player(in browser, HTML5)
Click here to listen with your own player(launches your MP3 player)

VTBS 190900Z VRB02KT 9999 FEW020TCU SCT050 31/24 Q1007 NOSIG

VTBS Flight Activity (Flightaware)

Listeners: 0 out of 750 total

Bangkok Approach: 120.300

VTBS Approach/Arrival (Archives)
Bangkok, Thailand

Feed Status: UP
Listen in your browser - HTML5 player(in browser, HTML5)
Click here to listen with your own player(launches your MP3 player)

VTBS 190900Z VRB02KT 9999 FEW020TCU SCT050 31/24 Q1007 NOSIG

VTBS Flight Activity (Flightaware)

Listeners: 1 out of 750 total

Bangkok Approach: 124.350
Bangkok Approach: 125.200
Bangkok Approach: 124.700
Bangkok Approach: 126.300
Bangkok Approach: 133.400
Bangkok Arrival (VTBD): 125.500

VTBS Arrival 121.1 (Archives)
Bangkok, Thailand

Feed Status: UP
Listen in your browser - HTML5 player(in browser, HTML5)
Click here to listen with your own player(launches your MP3 player)

VTBS 190900Z VRB02KT 9999 FEW020TCU SCT050 31/24 Q1007 NOSIG

VTBS Flight Activity (Flightaware)

Listeners: 0 out of 750 total

Bangkok Arrival: 121.100

VTBS ATIS (Archives)
Bangkok, Thailand

Feed Status: UP
Listen in your browser - HTML5 player(in browser, HTML5)
Click here to listen with your own player(launches your MP3 player)

VTBS 190900Z VRB02KT 9999 FEW020TCU SCT050 31/24 Q1007 NOSIG

VTBS Flight Activity (Flightaware)

Listeners: 0 out of 750 total

Bangkok D-ATIS: 133.600

VTBS Control (FIR) (Archives)
Bangkok, Thailand

Feed Status: UP
Listen in your browser - HTML5 player(in browser, HTML5)
Click here to listen with your own player(launches your MP3 player)

VTBS 190900Z VRB02KT 9999 FEW020TCU SCT050 31/24 Q1007 NOSIG

VTBS Flight Activity (Flightaware)

Listeners: 0 out of 750 total

Bangkok FIR (Sector 3): 135.500

VTBS Departure (Archives)
Bangkok, Thailand

Feed Status: UP
Listen in your browser - HTML5 player(in browser, HTML5)
Click here to listen with your own player(launches your MP3 player)

VTBS 190900Z VRB02KT 9999 FEW020TCU SCT050 31/24 Q1007 NOSIG

VTBS Flight Activity (Flightaware)

Listeners: 0 out of 750 total

Bangkok Departure: 119.250

VTBS Ground (East) (Archives)
Bangkok, Thailand

Feed Status: UP
Listen in your browser - HTML5 player(in browser, HTML5)
Click here to listen with your own player(launches your MP3 player)

VTBS 190900Z VRB02KT 9999 FEW020TCU SCT050 31/24 Q1007 NOSIG

VTBS Flight Activity (Flightaware)

Listeners: 0 out of 750 total

Bangkok Ground (East): 121.650

VTBS Ground (Main) (Archives)
Bangkok, Thailand

Feed Status: UP
Listen in your browser - HTML5 player(in browser, HTML5)
Click here to listen with your own player(launches your MP3 player)

VTBS 190900Z VRB02KT 9999 FEW020TCU SCT050 31/24 Q1007 NOSIG

VTBS Flight Activity (Flightaware)

Listeners: 0 out of 750 total

Bangkok Ground (Main): 121.750

VTBS Ground (West) (Archives)
Bangkok, Thailand

Feed Status: UP
Listen in your browser - HTML5 player(in browser, HTML5)
Click here to listen with your own player(launches your MP3 player)

VTBS 190900Z VRB02KT 9999 FEW020TCU SCT050 31/24 Q1007 NOSIG

VTBS Flight Activity (Flightaware)

Listeners: 0 out of 750 total

Bangkok Ground (West): 121.950

VTBS Tower (Archives)
Bangkok, Thailand

Feed Status: UP
Listen in your browser - HTML5 player(in browser, HTML5)
Click here to listen with your own player(launches your MP3 player)

VTBS 190900Z VRB02KT 9999 FEW020TCU SCT050 31/24 Q1007 NOSIG

VTBS Flight Activity (Flightaware)

Listeners: 0 out of 750 total

Bangkok Tower (Rwy 01L/19R): 119.000
Bangkok Tower (Rwy 01R/19L): 118.200

VTBS Tower (Rwy 01L/19R) (Archives)
Bangkok, Thailand

Feed Status: UP
Listen in your browser - HTML5 player(in browser, HTML5)
Click here to listen with your own player(launches your MP3 player)

VTBS 190900Z VRB02KT 9999 FEW020TCU SCT050 31/24 Q1007 NOSIG

VTBS Flight Activity (Flightaware)

Listeners: 0 out of 750 total

Bangkok Tower (Rwy 01L/19R): 119.000

VTBS Tower (Rwy 01R/19L) (Archives)
Bangkok, Thailand

Feed Status: UP
Listen in your browser - HTML5 player(in browser, HTML5)
Click here to listen with your own player(launches your MP3 player)

VTBS 190900Z VRB02KT 9999 FEW020TCU SCT050 31/24 Q1007 NOSIG

VTBS Flight Activity (Flightaware)

Listeners: 0 out of 750 total

Bangkok Tower (Rwy 01R/19L): 118.200

WAHH Approach
Yogyakarta, Indonesia

Feed Status: DOWN
Offline since: 2019-01-09 17:03:03 UTC

Adisutjipto Approach: 123.400

WBKK Gnd/Twr/App (Archives)
Kota Kinabalu, Malaysia

Feed Status: UP
Listen in your browser - HTML5 player(in browser, HTML5)
Click here to listen with your own player(launches your MP3 player)

WBKK 190900Z 01005KT 310V060 6000 FEW015 SCT140 BKN270 30/26 Q1009 NOSIG


Listeners: 3 out of 750 total

Kinabalu Director: 119.100
Kinabalu Ground: 121.600
Kinabalu Radar: 126.100
Kinabalu Radar: 132.450
Kinabalu Tower: 118.300

WBKK Gnd/Twr/Radar/Control (Archives)
Kota Kinabalu, Malaysia

Feed Status: UP
Listen in your browser - HTML5 player(in browser, HTML5)
Click here to listen with your own player(launches your MP3 player)

WBKK 190900Z 01005KT 310V060 6000 FEW015 SCT140 BKN270 30/26 Q1009 NOSIG


Listeners: 2 out of 750 total

Kinabalu Director: 119.100
Kinabalu Ground: 121.600
Kinabalu Radar: 126.100
Kinabalu Radar: 132.450
Kinabalu Radar: 128.300
Kinabalu Tower: 118.300

WBKS Approach (Archives)
Sandakan, Malaysia

Feed Status: UP
Listen in your browser - HTML5 player(in browser, HTML5)
Click here to listen with your own player(launches your MP3 player)

WBKS 190900Z 06007KT 030V100 5000 HZ SCT016 BKN280 30/26 Q1009


Listeners: 0 out of 750 total

Sandakan Approach/Departure: 123.200

WBKS ATIS (Archives)
Sandakan, Malaysia

Feed Status: UP
Listen in your browser - HTML5 player(in browser, HTML5)
Click here to listen with your own player(launches your MP3 player)

WBKS 190900Z 06007KT 030V100 5000 HZ SCT016 BKN280 30/26 Q1009


Listeners: 0 out of 750 total

Sandakan ATIS: 128.200

WBKS Emergency/Guard (Archives)
Sandakan, Malaysia

Feed Status: UP
Listen in your browser - HTML5 player(in browser, HTML5)
Click here to listen with your own player(launches your MP3 player)

WBKS 190900Z 06007KT 030V100 5000 HZ SCT016 BKN280 30/26 Q1009


Listeners: 0 out of 750 total

Emergency/Guard: 121.500

WBKS Gnd/Twr/App/Guard (Archives)
Sandakan, Malaysia

Feed Status: UP
Listen in your browser - HTML5 player(in browser, HTML5)
Click here to listen with your own player(launches your MP3 player)

WBKS 190900Z 06007KT 030V100 5000 HZ SCT016 BKN280 30/26 Q1009


Listeners: 1 out of 750 total

Emergency/Guard: 121.500
Sandakan Approach/Departure: 123.200
Sandakan Ground: 121.900
Sandakan Tower: 122.050

WBKS Ground (Archives)
Sandakan, Malaysia

Feed Status: UP
Listen in your browser - HTML5 player(in browser, HTML5)
Click here to listen with your own player(launches your MP3 player)

WBKS 190900Z 06007KT 030V100 5000 HZ SCT016 BKN280 30/26 Q1009


Listeners: 0 out of 750 total

Sandakan Ground: 121.900

WBKS Tower (Archives)
Sandakan, Malaysia

Feed Status: UP
Listen in your browser - HTML5 player(in browser, HTML5)
Click here to listen with your own player(launches your MP3 player)

WBKS 190900Z 06007KT 030V100 5000 HZ SCT016 BKN280 30/26 Q1009


Listeners: 0 out of 750 total

Sandakan Tower: 122.050

WMKB Radar (Archives)
Penang, Malaysia

Feed Status: UP
Listen in your browser - HTML5 player(in browser, HTML5)
Click here to listen with your own player(launches your MP3 player)

WMKB 190900Z 27006KT 220V330 2000 HZ VV/// 31/26 Q1008 RETS NOSIG


Listeners: 1 out of 750 total

Butterworth Radar: 125.800

WMSA Del/Gnd/Twr/App (Archives)
Subang, Malaysia

Feed Status: UP
Listen in your browser - HTML5 player(in browser, HTML5)
Click here to listen with your own player(launches your MP3 player)

WMSA 190900Z 18010KT 140V210 2000 HZ FEW018 BKN270 33/25 Q1008


Listeners: 1 out of 750 total

Lumpur Approach: 119.450
Lumpur Director: 124.200
Subang Clearance Delivery: 126.000
Subang Ground: 121.900
Subang Tower: 118.200

YADG CTAF (Archives)
Sellicks Hill, South Australia, Australia

Feed Status: UP
Listen in your browser - HTML5 player(in browser, HTML5)
Click here to listen with your own player(launches your MP3 player)

YADG Flight Activity (Flightaware)

Listeners: 0 out of 750 total

Aldinga CTAF: 127.150

YBAF Gnd/Twr #2
Brisbane, Queensland, Australia

Feed Status: DOWN
Offline since: 2019-09-19 01:10:23 UTC

Brisbane Ground: 119.900
Brisbane Tower (North): 123.600
Brisbane Tower/CTAF (South): 118.100

YBAS Tower/Center (Archives)
Alice Springs, Northern Territory, Australia

Feed Status: UP
Listen in your browser - HTML5 player(in browser, HTML5)
Click here to listen with your own player(launches your MP3 player)

YBAS 190900Z AUTO 36010KT 9999 // NCD 31/M09 Q1012

YBAS Flight Activity (Flightaware)

Listeners: 0 out of 750 total

Alice Tower/CTAF: 118.300
Melbourne Center (above FL280): 128.850
Melbourne Center (below FL280): 119.800

Alice Springs Aircraft Movements

YBBN Gnd/Twr/App/Dep (Archives)
Brisbane, Queensland, Australia

Feed Status: UP
Listen in your browser - HTML5 player(in browser, HTML5)
Click here to listen with your own player(launches your MP3 player)

YBBN 190900Z 10004KT CAVOK 19/14 Q1023

YBBN Flight Activity (Flightaware)

Listeners: 6 out of 750 total

Approach: 123.500
Brisbane Approach: 124.700
Brisbane Approach/Departure: 125.600
Brisbane Departure: 128.300
Brisbane Ground: 121.700
Brisbane Tower: 120.500

YBCG Approach (Archives)
Gold Coast City, Queensland, Australia

Feed Status: UP
Listen in your browser - HTML5 player(in browser, HTML5)
Click here to listen with your own player(launches your MP3 player)

YBCG 190900Z AUTO 25003KT 9999 // NCD 17/14 Q1023

YBCG Flight Activity (Flightaware)

Listeners: 0 out of 750 total

Brisbane Approach: 123.500

YBCG Area CTAF (Archives)
Gold Coast City, Queensland, Australia

Feed Status: UP
Listen in your browser - HTML5 player(in browser, HTML5)
Click here to listen with your own player(launches your MP3 player)

YBCG 190900Z AUTO 25003KT 9999 // NCD 17/14 Q1023

YBCG Flight Activity (Flightaware)

Listeners: 0 out of 750 total

Gold Coast Area CTAF: 126.700

YBCG Brisbane Centre (Archives)
Gold Coast City, Queensland, Australia

Feed Status: UP
Listen in your browser - HTML5 player(in browser, HTML5)
Click here to listen with your own player(launches your MP3 player)

YBCG 190900Z AUTO 25003KT 9999 // NCD 17/14 Q1023

YBCG Flight Activity (Flightaware)

Listeners: 0 out of 750 total

Brisbane Centre/Radar: 119.500

YBCG Ground (Archives)
Gold Coast City, Queensland, Australia

Feed Status: UP
Listen in your browser - HTML5 player(in browser, HTML5)
Click here to listen with your own player(launches your MP3 player)

YBCG 190900Z AUTO 25003KT 9999 // NCD 17/14 Q1023

YBCG Flight Activity (Flightaware)

Listeners: 0 out of 750 total

Gold Coast Ground: 121.800

YBCG Ground/Tower (Archives)
Gold Coast City, Queensland, Australia

Feed Status: UP
Listen in your browser - HTML5 player(in browser, HTML5)
Click here to listen with your own player(launches your MP3 player)

YBCG 190900Z AUTO 25003KT 9999 // NCD 17/14 Q1023

YBCG Flight Activity (Flightaware)

Listeners: 0 out of 750 total

Gold Coast Ground: 121.800
Gold Coast Tower: 118.700

YBCG Tower (Archives)
Gold Coast City, Queensland, Australia

Feed Status: UP
Listen in your browser - HTML5 player(in browser, HTML5)
Click here to listen with your own player(launches your MP3 player)

YBCG 190900Z AUTO 25003KT 9999 // NCD 17/14 Q1023

YBCG Flight Activity (Flightaware)

Listeners: 0 out of 750 total

Gold Coast Tower: 118.700

YBCS App/Dep #1 (Archives)
Cairns, Queensland, Australia

Feed Status: UP
Listen in your browser - HTML5 player(in browser, HTML5)
Click here to listen with your own player(launches your MP3 player)

YBCS 190900Z AUTO 15010KT 9999 // NCD 23/17 Q1017 NOSIG

YBCS Flight Activity (Flightaware)

Listeners: 0 out of 750 total

Cairns Approach/Departure: 118.400

YBCS App/Dep #2 (Archives)
Cairns, Queensland, Australia

Feed Status: UP
Listen in your browser - HTML5 player(in browser, HTML5)
Click here to listen with your own player(launches your MP3 player)

YBCS 190900Z AUTO 15010KT 9999 // NCD 23/17 Q1017 NOSIG

YBCS Flight Activity (Flightaware)

Listeners: 0 out of 750 total

Cairns Approach/Departure: 126.100

YBCS App/Dep (all) (Archives)
Cairns, Queensland, Australia

Feed Status: UP
Listen in your browser - HTML5 player(in browser, HTML5)
Click here to listen with your own player(launches your MP3 player)

YBCS 190900Z AUTO 15010KT 9999 // NCD 23/17 Q1017 NOSIG

YBCS Flight Activity (Flightaware)

Listeners: 0 out of 750 total

Cairns Approach/Departure: 126.100
Cairns Approach/Departure: 118.400

YBCS Brisbane Centre (Archives)
Cairns, Queensland, Australia

Feed Status: UP
Listen in your browser - HTML5 player(in browser, HTML5)
Click here to listen with your own player(launches your MP3 player)

YBCS 190900Z AUTO 15010KT 9999 // NCD 23/17 Q1017 NOSIG

YBCS Flight Activity (Flightaware)

Listeners: 0 out of 750 total

Brisbane Centre: 121.200

YBCS Emergency/Guard (Archives)
Cairns, Queensland, Australia

Feed Status: UP
Listen in your browser - HTML5 player(in browser, HTML5)
Click here to listen with your own player(launches your MP3 player)

YBCS 190900Z AUTO 15010KT 9999 // NCD 23/17 Q1017 NOSIG

YBCS Flight Activity (Flightaware)

Listeners: 0 out of 750 total

Emergency/Guard: 121.500

YBCS Ground (Archives)
Cairns, Queensland, Australia

Feed Status: UP
Listen in your browser - HTML5 player(in browser, HTML5)
Click here to listen with your own player(launches your MP3 player)

YBCS 190900Z AUTO 15010KT 9999 // NCD 23/17 Q1017 NOSIG

YBCS Flight Activity (Flightaware)

Listeners: 0 out of 750 total

Cairns Ground: 121.700

YBCS Ground/Tower (Archives)
Cairns, Queensland, Australia

Feed Status: UP
Listen in your browser - HTML5 player(in browser, HTML5)
Click here to listen with your own player(launches your MP3 player)

YBCS 190900Z AUTO 15010KT 9999 // NCD 23/17 Q1017 NOSIG

YBCS Flight Activity (Flightaware)

Listeners: 0 out of 750 total

Cairns Ground: 121.700
Cairns Tower: 124.900

YBCS Tower (Archives)
Cairns, Queensland, Australia

Feed Status: UP
Listen in your browser - HTML5 player(in browser, HTML5)
Click here to listen with your own player(launches your MP3 player)

YBCS 190900Z AUTO 15010KT 9999 // NCD 23/17 Q1017 NOSIG

YBCS Flight Activity (Flightaware)

Listeners: 0 out of 750 total

Cairns Tower: 124.900

YBCV CTAF/Brisbane Center (Archives)
Charleville, Queensland, Australia

Feed Status: UP
Listen in your browser - HTML5 player(in browser, HTML5)
Click here to listen with your own player(launches your MP3 player)

YBCV 190900Z AUTO 13003KT 9999 // NCD 22/M08 Q1017

YBCV Flight Activity (Flightaware)

Listeners: 0 out of 750 total

Brisbane Center: 124.800
Charleville CTAF/UNICOM: 126.700

YBOK Del/Gnd/Twr/App (Archives)
Oakey, Queensland, Australia

Feed Status: UP
Listen in your browser - HTML5 player(in browser, HTML5)
Click here to listen with your own player(launches your MP3 player)

YBOK Flight Activity (Flightaware)

Listeners: 0 out of 750 total

Brisbane Center/FSS: 121.200
Oakey Approach: 125.400
Oakey Approach: 123.700
Oakey Approach (Final): 135.850
Oakey Clearance Delivery: 133.350
Oakey CTAF (+YTWB/YBWW): 127.650
Oakey Ground: 121.900
Oakey Tower: 120.100

YBTL Approach/Departure (Archives)
Townsville, Queensland, Australia

Feed Status: UP
Listen in your browser - HTML5 player(in browser, HTML5)
Click here to listen with your own player(launches your MP3 player)

YBTL 190900Z 07009KT 9999 FEW018 23/18 Q1018 NOSIG

YBTL Flight Activity (Flightaware)

Listeners: 0 out of 750 total

Townsville Approach/Departure: 126.800

YBTL ATIS (Archives)
Townsville, Queensland, Australia

Feed Status: UP
Listen in your browser - HTML5 player(in browser, HTML5)
Click here to listen with your own player(launches your MP3 player)

YBTL 190900Z 07009KT 9999 FEW018 23/18 Q1018 NOSIG

YBTL Flight Activity (Flightaware)

Listeners: 0 out of 750 total

Townsville ATIS: 133.500

YBTL Brisbane Center (Archives)
Townsville, Queensland, Australia

Feed Status: UP
Listen in your browser - HTML5 player(in browser, HTML5)
Click here to listen with your own player(launches your MP3 player)

YBTL 190900Z 07009KT 9999 FEW018 23/18 Q1018 NOSIG

YBTL Flight Activity (Flightaware)

Listeners: 0 out of 750 total

Brisbane Center: 120.550

YBTL Clearance Delivery (Archives)
Townsville, Queensland, Australia

Feed Status: UP
Listen in your browser - HTML5 player(in browser, HTML5)
Click here to listen with your own player(launches your MP3 player)

YBTL 190900Z 07009KT 9999 FEW018 23/18 Q1018 NOSIG

YBTL Flight Activity (Flightaware)

Listeners: 0 out of 750 total

Townsville Clearance Delivery: 128.100

YBTL Ground (Archives)
Townsville, Queensland, Australia

Feed Status: UP
Listen in your browser - HTML5 player(in browser, HTML5)
Click here to listen with your own player(launches your MP3 player)

YBTL 190900Z 07009KT 9999 FEW018 23/18 Q1018 NOSIG

YBTL Flight Activity (Flightaware)

Listeners: 0 out of 750 total

Townsville Ground: 119.450

YBTL Tower (Archives)
Townsville, Queensland, Australia

Feed Status: UP
Listen in your browser - HTML5 player(in browser, HTML5)
Click here to listen with your own player(launches your MP3 player)

YBTL 190900Z 07009KT 9999 FEW018 23/18 Q1018 NOSIG

YBTL Flight Activity (Flightaware)

Listeners: 0 out of 750 total

Townsville Tower: 118.300

YGAW CTAF (Archives)
Gawler, South Australia, Australia

Feed Status: UP
Listen in your browser - HTML5 player(in browser, HTML5)
Click here to listen with your own player(launches your MP3 player)

METAR NOT AVAILABLE

YGAW Flight Activity (Flightaware)

Listeners: 0 out of 750 total

Gawler CTAF: 126.550

YGLA CTAF (Archives)
Gladstone, Queensland, Australia

Feed Status: UP
Listen in your browser - HTML5 player(in browser, HTML5)
Click here to listen with your own player(launches your MP3 player)

YGLA 190900Z AUTO 05005KT 9999 // NCD 22/16 Q1021 RF00.0/000.0

YGLA Flight Activity (Flightaware)

Listeners: 0 out of 750 total

Gladstone CTF/Multicom: 118.800

YMHB Gnd/Twr/Centre (Archives)
Cambridge, Tasmania, Australia

Feed Status: UP
Listen in your browser - HTML5 player(in browser, HTML5)
Click here to listen with your own player(launches your MP3 player)

YMHB 190900Z 35013KT CAVOK 16/04 Q1018

YMHB Flight Activity (Flightaware)

Listeners: 1 out of 750 total

Hobart Ground: 121.700
Hobart Tower: 118.100
Melbourne Centre: 125.550

YMIA CTAF/Melbourne Center (Archives)
Mildura, Victoria, Australia

Feed Status: UP
Listen in your browser - HTML5 player(in browser, HTML5)
Click here to listen with your own player(launches your MP3 player)

YMIA 190900Z AUTO 03012KT 9999 // NCD 24/03 Q1014

YMIA Flight Activity (Flightaware)

Listeners: 0 out of 750 total

Melbourne Center: 112.100
Melbourne Center: 132.600
Mildura CTAF: 118.800

YMML Twr/App/Center (Archives)
Melbourne, Victoria, Australia

Feed Status: UP
Listen in your browser - HTML5 player(in browser, HTML5)
Click here to listen with your own player(launches your MP3 player)

YMML 190906Z 02019G29KT CAVOK 20/10 Q1015

YMML Flight Activity (Flightaware)

Listeners: 3 out of 750 total

Air Ambulance: 132.750
DSE & Other Company: 119.100
Essendon Tower: 125.100
Inter-Pilot: 123.450
Jetstar Company: 130.925
Melbourne ACD: 127.200
Melbourne Approach: 132.000
Melbourne Centre: 130.300
Melbourne Centre: 128.500
Melbourne Centre: 126.800
Melbourne Centre: 125.800
Melbourne Centre: 125.700
Melbourne Centre: 125.200
Melbourne Centre: 123.750
Melbourne Centre: 122.400
Melbourne Departure: 118.900
Melbourne Departure: 129.400
Melbourne Tower: 120.500
Moorabbin Tower (East): 118.100
Moorabbin Tower (West): 123.000
Police Air Wing: 131.600
Qantas Company: 130.850
Qantas Company: 129.500
Rex Company: 126.450
Royal Victorian Aero Club Company: 128.700
Royal Victorian Aero Club Company: 133.400

YPAD Del/Gnd/Twr/App (Archives)
Adelaide, South Australia, Australia

Feed Status: UP
Listen in your browser - HTML5 player(in browser, HTML5)
Click here to listen with your own player(launches your MP3 player)

YPAD 190900Z 02008KT CAVOK 26/M02 Q1006 FM0900 MOD TURB BLW 5000FT TL1200

YPAD Flight Activity (Flightaware)

Listeners: 1 out of 750 total

Adelaide Approach (East of Adelaide): 118.200
Adelaide Approach (East of Adelaide): 130.450
Adelaide Approach (Kangaroo Island): 123.050
Adelaide Approach (North of Adelaide): 128.600
Adelaide Approach (West of Adelaide): 124.200
Adelaide Clearance Delivery: 126.100
Adelaide Ground: 121.700
Adelaide Tower: 120.500

YPAD Gnd/Twr/App/Center (Archives)
Adelaide, South Australia, Australia

Feed Status: UP
Listen in your browser - HTML5 player(in browser, HTML5)
Click here to listen with your own player(launches your MP3 player)

YPAD 190900Z 02008KT CAVOK 26/M02 Q1006 FM0900 MOD TURB BLW 5000FT TL1200

YPAD Flight Activity (Flightaware)

Listeners: 4 out of 750 total

Adelaide Approach (East of Adelaide): 118.200
Adelaide Approach (East of Adelaide): 130.450
Adelaide Approach (Kangaroo Island): 123.050
Adelaide Approach (North of Adelaide): 128.600
Adelaide Approach (West of Adelaide): 124.200
Adelaide Clearance Delivery: 126.100
Adelaide Ground: 121.700
Adelaide Tower: 120.500
Flight Watch: 135.750
Melbourne Centre: 124.300
Melbourne Centre ( East of Adelaide): 125.300
Melbourne Centre ( Pt Augusta, Pt Pirie, Whyalla): 123.900
Melbourne Centre (Mildura): 122.100
Melbourne Centre (North of Adelaide): 122.400
Melbourne Centre (Pt Lincoln): 125.900
Melbourne Centre (West of Adelaide ): 127.050

YPDN Gnd/Twr/App/Dep (Archives)
Darwin, Northern Territory, Australia

Feed Status: UP
Listen in your browser - HTML5 player(in browser, HTML5)
Click here to listen with your own player(launches your MP3 player)

YPDN 190900Z 02009KT CAVOK 28/15 Q1011

YPDN Flight Activity (Flightaware)

Listeners: 2 out of 750 total

Darwin Approach: 134.100
Darwin Arrival: 125.200
Darwin Departure: 119.550
Darwin Ground: 121.800
Darwin Tower: 133.100

YPJT Gnd/Twr (Archives)
Perth, Western Australia, Australia

Feed Status: UP
Listen in your browser - HTML5 player(in browser, HTML5)
Click here to listen with your own player(launches your MP3 player)

YPJT 190900Z AUTO 20014KT 9999 // SCT051 14/04 Q1023 RF00.0/000.2

YPJT Flight Activity (Flightaware)

Listeners: 0 out of 750 total

Jandakot Ground: 124.300
Jandakot Tower: 119.400
Jandakot Tower/CTAF: 118.100

YPMQ CTAF (Archives)
Port Macquarie, New South Wales, Australia

Feed Status: UP
Listen in your browser - HTML5 player(in browser, HTML5)
Click here to listen with your own player(launches your MP3 player)

YPMQ Flight Activity (Flightaware)

Listeners: 0 out of 750 total

Port Macquarie CTAF/Multicom: 118.100

YPPF Ground (Archives)
Parafield, South Australia, Australia

Feed Status: UP
Listen in your browser - HTML5 player(in browser, HTML5)
Click here to listen with your own player(launches your MP3 player)

YPPF Flight Activity (Flightaware)

Listeners: 0 out of 750 total

Parafield Ground: 119.900

YPPF Tower #1 (Archives)
Parafield, South Australia, Australia

Feed Status: UP
Listen in your browser - HTML5 player(in browser, HTML5)
Click here to listen with your own player(launches your MP3 player)

YPPF Flight Activity (Flightaware)

Listeners: 0 out of 750 total

Parafield Tower: 118.700

YPPF Tower #2 (Archives)
Parafield, South Australia, Australia

Feed Status: UP
Listen in your browser - HTML5 player(in browser, HTML5)
Click here to listen with your own player(launches your MP3 player)

YPPF Flight Activity (Flightaware)

Listeners: 0 out of 750 total

Parafield Tower: 124.600

YPPH Approach
Perth, Western Australia, Australia

Feed Status: DOWN
Offline since: 2019-09-15 13:00:40 UTC

YPPH 190900Z 21015KT 9999 SCT044 14/03 Q1023

Perth Approach: 123.600

YPPH Departure (Archives)
Perth, Western Australia, Australia

Feed Status: UP
Listen in your browser - HTML5 player(in browser, HTML5)
Click here to listen with your own player(launches your MP3 player)

YPPH 190900Z 21015KT 9999 SCT044 14/03 Q1023

YPPH Flight Activity (Flightaware)

Listeners: 0 out of 750 total

Perth Departure: 118.700

YPPH Ground
Perth, Western Australia, Australia

Feed Status: DOWN
Offline since: 2019-09-11 08:56:06 UTC

YPPH 190900Z 21015KT 9999 SCT044 14/03 Q1023

Perth Ground: 121.700

YPPH Tower (Archives)
Perth, Western Australia, Australia

Feed Status: UP
Listen in your browser - HTML5 player(in browser, HTML5)
Click here to listen with your own player(launches your MP3 player)

YPPH 190900Z 21015KT 9999 SCT044 14/03 Q1023

YPPH Flight Activity (Flightaware)

Listeners: 3 out of 750 total

Perth Tower: 127.400

YRYW 122.5 (Archives)
Raywood, Victoria, Australia

Feed Status: UP
Listen in your browser - HTML5 player(in browser, HTML5)
Click here to listen with your own player(launches your MP3 player)

METAR NOT AVAILABLE

YRYW Flight Activity (Flightaware)

Listeners: 0 out of 750 total


YRYW 122.7 (Archives)
Raywood, Victoria, Australia

Feed Status: UP
Listen in your browser - HTML5 player(in browser, HTML5)
Click here to listen with your own player(launches your MP3 player)

METAR NOT AVAILABLE

YRYW Flight Activity (Flightaware)

Listeners: 0 out of 750 total


YRYW 122.9 (Archives)
Raywood, Victoria, Australia

Feed Status: UP
Listen in your browser - HTML5 player(in browser, HTML5)
Click here to listen with your own player(launches your MP3 player)

METAR NOT AVAILABLE

YRYW Flight Activity (Flightaware)

Listeners: 0 out of 750 total


YRYW CTAF (Archives)
Raywood, Victoria, Australia

Feed Status: UP
Listen in your browser - HTML5 player(in browser, HTML5)
Click here to listen with your own player(launches your MP3 player)

METAR NOT AVAILABLE

YRYW Flight Activity (Flightaware)

Listeners: 0 out of 750 total

Raywood CTAF: 126.700

YSBK ATIS (Archives)
Bankstown, New South Wales, Australia

Feed Status: UP
Listen in your browser - HTML5 player(in browser, HTML5)
Click here to listen with your own player(launches your MP3 player)

YSBK Flight Activity (Flightaware)

Listeners: 0 out of 750 total

Bankstown ATIS: 120.900

YSBK Tower (Archives)
Bankstown, New South Wales, Australia

Feed Status: UP
Listen in your browser - HTML5 player(in browser, HTML5)
Click here to listen with your own player(launches your MP3 player)

YSBK Flight Activity (Flightaware)

Listeners: 1 out of 750 total

Bankstown Tower: 132.800

NOTE: Feed provided by Bryan Ford

YSCB App/Dep (Archives)
Canberra, Australian Capital Territory, Australia

Feed Status: UP
Listen in your browser - HTML5 player(in browser, HTML5)
Click here to listen with your own player(launches your MP3 player)

YSCB 190900Z AUTO 06009KT 9999 // NCD 15/11 Q1025

YSCB Flight Activity (Flightaware)

Listeners: 0 out of 750 total

Canberra Approach/Departure: 124.500

YSCB App/Dep/Center (Archives)
Canberra, Australian Capital Territory, Australia

Feed Status: UP
Listen in your browser - HTML5 player(in browser, HTML5)
Click here to listen with your own player(launches your MP3 player)

YSCB 190900Z AUTO 06009KT 9999 // NCD 15/11 Q1025

YSCB Flight Activity (Flightaware)

Listeners: 0 out of 750 total

Melbourne Center: 125.900

YSCB ATIS (Archives)
Canberra, Australian Capital Territory, Australia

Feed Status: UP
Listen in your browser - HTML5 player(in browser, HTML5)
Click here to listen with your own player(launches your MP3 player)

YSCB 190900Z AUTO 06009KT 9999 // NCD 15/11 Q1025

YSCB Flight Activity (Flightaware)

Listeners: 0 out of 750 total

Canberra ATIS: 127.450

YSCB Ground/Tower (Archives)
Canberra, Australian Capital Territory, Australia

Feed Status: UP
Listen in your browser - HTML5 player(in browser, HTML5)
Click here to listen with your own player(launches your MP3 player)

YSCB 190900Z AUTO 06009KT 9999 // NCD 15/11 Q1025

YSCB Flight Activity (Flightaware)

Listeners: 0 out of 750 total

Canberra Ground: 121.700
Canberra Tower: 118.700

YSCB Melbourne Center (Archives)
Canberra, Australian Capital Territory, Australia

Feed Status: UP
Listen in your browser - HTML5 player(in browser, HTML5)
Click here to listen with your own player(launches your MP3 player)

YSCB 190900Z AUTO 06009KT 9999 // NCD 15/11 Q1025

YSCB Flight Activity (Flightaware)

Listeners: 0 out of 750 total

Melbourne Center: 128.400

YSCN Tower/CTAF (Archives)
Camden, New South Wales, Australia

Feed Status: UP
Listen in your browser - HTML5 player(in browser, HTML5)
Click here to listen with your own player(launches your MP3 player)

YSCN Flight Activity (Flightaware)

Listeners: 0 out of 750 total

Camden Tower/CTAF: 120.100

YSNW Gnd/CTAF/App/Center (Archives)
Nowra, New South Wales, Australia

Feed Status: UP
Listen in your browser - HTML5 player(in browser, HTML5)
Click here to listen with your own player(launches your MP3 player)

YSNW 190900Z 06007KT 9999 SCT036 BKN091 16/16 Q1025 INTER 1100/1200 5000 SHRA BKN015

YSNW Flight Activity (Flightaware)

Listeners: 0 out of 750 total

Enroute: 132.300
Nowra Approach: 123.500
Nowra CTAF: 118.850
Nowra Ground: 135.850

Australia - ATC Satellite Feed (Archives)
Sydney, New South Wales, Australia

Feed Status: UP
Listen in your browser - HTML5 player(in browser, HTML5)
Click here to listen with your own player(launches your MP3 player)


Listeners: 4 out of 750 total

Brisbane Center: 123.400
Brisbane Center: 128.600
Melbourne Center: 133.500
Melbourne Center: 118.500
Sydney Departures: 118.400

YSSY Approach (North/East) (Archives)
Sydney, New South Wales, Australia

Feed Status: UP
Listen in your browser - HTML5 player(in browser, HTML5)
Click here to listen with your own player(launches your MP3 player)

YSSY 190900Z 05009KT 9999 FEW020 BKN090 19/15 Q1026 NOSIG

YSSY Flight Activity (Flightaware)

Listeners: 0 out of 750 total

Sydney Approach (North/East): 124.400

YSSY Approach (South) (Archives)
Sydney, New South Wales, Australia

Feed Status: UP
Listen in your browser - HTML5 player(in browser, HTML5)
Click here to listen with your own player(launches your MP3 player)

YSSY 190900Z 05009KT 9999 FEW020 BKN090 19/15 Q1026 NOSIG

YSSY Flight Activity (Flightaware)

Listeners: 1 out of 750 total

Sydney Approach (South/West): 128.300

YSSY ATIS (Archives)
Sydney, New South Wales, Australia

Feed Status: UP
Listen in your browser - HTML5 player(in browser, HTML5)
Click here to listen with your own player(launches your MP3 player)

YSSY 190900Z 05009KT 9999 FEW020 BKN090 19/15 Q1026 NOSIG

YSSY Flight Activity (Flightaware)

Listeners: 0 out of 750 total

Sydney ATIS: 118.550

YSSY Center (South/West) (Archives)
Sydney, New South Wales, Australia

Feed Status: UP
Listen in your browser - HTML5 player(in browser, HTML5)
Click here to listen with your own player(launches your MP3 player)

YSSY 190900Z 05009KT 9999 FEW020 BKN090 19/15 Q1026 NOSIG

YSSY Flight Activity (Flightaware)

Listeners: 0 out of 750 total

Sydney Center: 124.550

YSSY Del/Gnd (Archives)
Sydney, New South Wales, Australia

Feed Status: UP
Listen in your browser - HTML5 player(in browser, HTML5)
Click here to listen with your own player(launches your MP3 player)

YSSY 190900Z 05009KT 9999 FEW020 BKN090 19/15 Q1026 NOSIG

YSSY Flight Activity (Flightaware)

Listeners: 1 out of 750 total

Sydney Clearance Delivery: 133.800
Sydney Ground (East of Rwys 16R/34L): 121.700
Sydney Ground (West of Rwys 16R/34L): 126.500

YSSY Departure (North/East) (Archives)
Sydney, New South Wales, Australia

Feed Status: UP
Listen in your browser - HTML5 player(in browser, HTML5)
Click here to listen with your own player(launches your MP3 player)

YSSY 190900Z 05009KT 9999 FEW020 BKN090 19/15 Q1026 NOSIG

YSSY Flight Activity (Flightaware)

Listeners: 0 out of 750 total

Sydney Departure (North/East): 123.000

YSSY Departure (South/West) (Archives)
Sydney, New South Wales, Australia

Feed Status: UP
Listen in your browser - HTML5 player(in browser, HTML5)
Click here to listen with your own player(launches your MP3 player)

YSSY 190900Z 05009KT 9999 FEW020 BKN090 19/15 Q1026 NOSIG

YSSY Flight Activity (Flightaware)

Listeners: 0 out of 750 total

Sydney Departure (Rte S, W and NW): 129.700

YSSY Director (Both) (Archives)
Sydney, New South Wales, Australia

Feed Status: UP
Listen in your browser - HTML5 player(in browser, HTML5)
Click here to listen with your own player(launches your MP3 player)

YSSY 190900Z 05009KT 9999 FEW020 BKN090 19/15 Q1026 NOSIG

YSSY Flight Activity (Flightaware)

Listeners: 0 out of 750 total

Sydney Director (East): 125.300
Sydney Director (West): 126.100

Note: Director provides radar vectoring from late downwind until established on final approach.

YSSY Director (East) (Archives)
Sydney, New South Wales, Australia

Feed Status: UP
Listen in your browser - HTML5 player(in browser, HTML5)
Click here to listen with your own player(launches your MP3 player)

YSSY 190900Z 05009KT 9999 FEW020 BKN090 19/15 Q1026 NOSIG

YSSY Flight Activity (Flightaware)

Listeners: 0 out of 750 total

Sydney Director (East): 125.300

YSSY Tower (Both) (Archives)
Sydney, New South Wales, Australia

Feed Status: UP
Listen in your browser - HTML5 player(in browser, HTML5)
Click here to listen with your own player(launches your MP3 player)

YSSY 190900Z 05009KT 9999 FEW020 BKN090 19/15 Q1026 NOSIG

YSSY Flight Activity (Flightaware)

Listeners: 4 out of 750 total

Sydney Tower (Rwy 16L/34R): 124.700
Sydney Tower (Rwy 16R/34L, Rwy 07/25): 120.500

YSSY Tower (Rwy 16L/34R) (Archives)
Sydney, New South Wales, Australia

Feed Status: UP
Listen in your browser - HTML5 player(in browser, HTML5)
Click here to listen with your own player(launches your MP3 player)

YSSY 190900Z 05009KT 9999 FEW020 BKN090 19/15 Q1026 NOSIG

YSSY Flight Activity (Flightaware)

Listeners: 0 out of 750 total

Sydney Tower (Rwy 16L/34R): 124.700

YSSY Tower (Rwys 16R/34L,7/25) (Archives)
Sydney, New South Wales, Australia

Feed Status: UP
Listen in your browser - HTML5 player(in browser, HTML5)
Click here to listen with your own player(launches your MP3 player)

YSSY 190900Z 05009KT 9999 FEW020 BKN090 19/15 Q1026 NOSIG

YSSY Flight Activity (Flightaware)

Listeners: 4 out of 750 total

Sydney Tower (Rwy 16R/34L, Rwy 07/25): 120.500

ZBAA Tower (Archives)
Beijing, China

Feed Status: UP
Listen in your browser - HTML5 player(in browser, HTML5)
Click here to listen with your own player(launches your MP3 player)

ZBAA 190900Z 20003MPS 160V250 CAVOK 25/13 Q1017 NOSIG


Listeners: 17 out of 750 total

Beijing Tower (Rwy 01/19): 118.600

ZHNY Tower (Archives)
Nanyang, China

Feed Status: UP
Listen in your browser - HTML5 player(in browser, HTML5)
Click here to listen with your own player(launches your MP3 player)


Listeners: 2 out of 750 total

Nanyang Tower: 118.500

ZYCY Tower
Chaoyang, China

Feed Status: DOWN
Offline since: 2019-09-08 02:44:06 UTC

ZYCY 140700Z 25002MPS CAVOK 29/16 Q1006 NOSIG

Chaoyang Tower: 118.350